[[{"header":{"parameterUnit":"m.s-1","parameterCategory":1,"la1":30.6,"la2":29.2853,"lo1":-89.7004,"lo2":-87.6739,"dy":0.0162,"dx":0.0183,"nx":112,"ny":82,"refTime":"2024-05-17T06:00:00:Z","depth":0,"parameterNumber":2,"parameterNumberName":"U-component_of_WINDS"},"data":[0.0,0.0,0.0,0.0,0.0,0.0,0.0,0.0,0.0,0.0,0.0,0.0,0.0,0.0,0.0,0.0,0.0,0.0,0.0,0.0,0.0,0.0,0.0,0.0,0.0,0.0,0.0,0.0,0.0,0.0,0.0,0.0,0.0,0.0,0.0,0.0,0.0,0.0,0.0,0.0,0.0,0.0,0.0,0.0,0.0,0.0,0.0,0.0,0.0,0.0,0.0,0.0,0.0,0.0,0.0,0.0,0.0,0.0,0.0,0.0,0.0,0.0,0.0,0.0,0.0,0.0,0.0,0.0,0.0,0.0,0.0,0.0,0.0,0.0,0.0,0.0,0.0,0.0,0.0,0.0,0.0,0.0,0.0,0.0,0.0,0.0,0.0,0.0,0.0,0.0,-0.0758,-0.0823,-0.133,-0.1679,-0.1679,-0.1679,-0.1874,-0.2299,0.0,0.0,0.0,0.0,0.0,0.0,0.0,0.0,0.0,0.0,0.0,0.0,0.0,0.0,0.0,0.0,0.0,0.0,0.0,0.0,0.0,0.0,0.0,0.0,0.0,0.0,0.0,0.0,0.0,0.0,0.0,0.0,0.0,0.0,0.0,0.0,0.0,0.0,0.0,0.0,0.0,0.0,0.0,0.0,0.0,0.0,0.0,0.0,0.0,0.0,0.0,0.0,0.0,0.0,0.0,0.0,0.0,0.0,0.0,0.0,0.0,0.0,0.0,0.0,0.0,0.0,0.0,0.0,0.0,0.0,0.0,0.0,0.0,0.0,0.0,0.0,0.0,0.0,0.0,0.0,0.0,0.0,0.0,0.0,0.0,0.0,0.0,0.0,0.0,0.0,0.0,0.0,0.0,0.0,0.0,0.0,0.0,0.0,0.0,0.0,0.0,0.0,0.0,0.0,-0.0811,-0.0862,-0.1001,-0.1009,-0.1009,-0.1009,-0.1339,-0.2009,0.0,0.0,0.0,0.0,0.0,0.0,0.0,0.0,0.0,0.0,0.0,0.0,0.0,0.0,0.0,0.0,0.0,0.0,0.0,0.0,0.0,0.0,0.0,0.0,0.0,0.0,0.0,0.0,0.0,0.0,0.0,0.0,0.0,0.0,0.0,0.0,0.0,0.0,0.0,0.0,0.0,0.0,0.0,0.0,0.0,0.0,0.0,0.0,0.0,0.0,0.0,0.0,0.0,0.0,0.0,0.0,0.0,0.0,0.0,0.0,0.0,0.0,0.0,0.0,0.0,0.0,0.0,0.0,0.0,0.0,0.0,0.0,0.0,0.0,0.0,0.0,0.0,0.0,0.0,0.0,0.0,0.0,0.0,0.0,0.0,0.0,0.0,0.0,0.0,0.0,0.0,0.0,0.0,0.0,0.0,0.0,0.0,0.0,0.0,0.0,0.0,0.0,0.0,-0.0774,-0.0815,-0.0885,-0.0898,-0.0898,-0.0898,-0.0898,-0.1126,-0.1678,-0.1423,0.0,0.0,0.0,0.0,0.0,0.0,0.0,0.0,0.0,0.0,0.0,0.0,0.0,0.0,0.0,0.0,0.0,0.0,0.0,0.0,0.0,0.0,0.0,0.0,0.0,0.0,0.0,0.0,0.0,0.0,0.0,0.0,0.0,0.0,0.0,0.0,0.0,0.0,0.0,0.0,0.0,0.0,0.0,0.0,0.0,0.0,0.0,0.0,0.0,0.0,0.0,0.0,0.0,0.0,0.0,0.0,0.0,0.0,0.0,0.0,0.0,0.0,0.0,0.0,0.0,0.0,0.0,0.0,0.0,0.0,0.0,0.0,0.0,0.0,0.0,0.0,0.0,0.0,0.0,0.0,0.0,0.0,0.0,0.0,0.0,0.0,0.0,0.0,0.0,0.0,0.0,0.0,0.0,0.0,0.0,0.0,0.0,0.0,0.0,0.0,0.0,0.0,-0.0819,-0.0913,-0.1111,-0.1121,-0.1177,-0.1288,-0.127,-0.1313,-0.1607,-0.1279,0.0,0.0,0.0,0.0,0.0,0.0,0.0,0.0,0.0,0.0,0.0,0.0,0.0,0.0,0.0,0.0,0.0,0.0,0.0,0.0,0.0,0.0,0.0,0.0,0.0,0.0,0.0,0.0,0.0,0.0,0.0,0.0,0.0,0.0,0.0,0.0,0.0,0.0,0.0,0.0,0.0,0.0,0.0,0.0,0.0,0.0,0.0,0.0,0.0,0.0,0.0,0.0,0.0,0.0,0.0,0.0,0.0,0.0,0.0,0.0,0.0,0.0,0.0,0.0,0.0,0.0,0.0,0.0,0.0,0.0,0.0,0.0,0.0,0.0,0.0,0.0,0.0,0.0,0.0,0.0,0.0,0.0,0.0,0.0,0.0,0.0,0.0,0.0,0.0,0.0,0.0,0.0,0.0,0.0,0.0,0.0,0.0,0.0,0.0,0.0,0.0,0.0,-0.0795,-0.1126,-0.1672,-0.1734,-0.1958,-0.2514,-0.2267,-0.2109,-0.2074,-0.1632,0.0,0.0,0.0,0.0,0.0,0.0,0.0,0.0,0.0,0.0,0.0,0.0,0.0,0.0,0.0,0.0,0.0,0.0,0.0,0.0,0.0,0.0,0.0,0.0,0.0,0.0,0.0,0.0,0.0,0.0,0.0,0.0,0.0,0.0,0.0,0.0,0.0,0.0,0.0,0.0,0.0,0.0,0.0,0.0,0.0,0.0,0.0,0.0,0.0,0.0,0.0,0.0,0.0,0.0,0.0,0.0,0.0,0.0,0.0,0.0,0.0,0.0,0.0,0.0,0.0,0.0,0.0,0.0,0.0,0.0,0.0,0.0,0.0,0.0,0.0,0.0,0.0,0.0,0.0,0.0,0.0,0.0,0.0,0.0,0.0,0.0,0.0,0.0,0.0,0.0,0.0,0.0,0.0,0.0,0.0,0.0,0.0,0.0,0.0,0.0,0.0,0.0,-0.1121,-0.1524,0.0,-0.2124,-0.2458,-0.2681,-0.2565,-0.2303,-0.1806,0.0,0.0,0.0,0.0,0.0,0.0,0.0,0.0,0.0,0.0,0.0,0.0,0.0,0.0,0.0,0.0,0.0,0.0,0.0,0.0,0.0,0.0,0.0,0.0,0.0,0.0,0.0,0.0,0.0,0.0,0.0,0.0,0.0,0.0,0.0,0.0,0.0,0.0,0.0,0.0,0.0,0.0,0.0,0.0,0.0,0.0,0.0,0.0,0.0,0.0,0.0,0.0,0.0,0.0,0.0,0.0,0.0,0.0,0.0,0.0,0.0,0.0,0.0,0.0,0.0,0.0,0.0,0.0,0.0,0.0,0.0,0.0,0.0,0.0,0.0,0.0,0.0,0.0,0.0,0.0,0.0,0.0,0.0,0.0,0.0,0.0,0.0,0.0,0.0,0.0,0.0,0.0,0.0,0.0,0.0,0.0,0.0,0.0,0.0,0.0,0.0,0.0,-0.0839,-0.1376,-0.1751,0.0,-0.2179,-0.2514,-0.2681,-0.2791,-0.2519,-0.1806,0.0,0.0,0.0,0.0,0.0,0.0,0.0,0.0,0.0,0.0,0.0,0.0,0.0,0.0,0.0,0.0,0.0,0.0,0.0,0.0,0.0,0.0,0.0,0.0,0.0,0.0,0.0,0.0,0.0,0.0,0.0,0.0,0.0,0.0,0.0,0.0,0.0,0.0,0.0,0.0,0.0,0.0,0.0,0.0,0.0,0.0,0.0,0.0,0.0,0.0,0.0,0.0,0.0,0.0,0.0,0.0,0.0,0.0,0.0,0.0,0.0,0.0,0.0,0.0,0.0,0.0,0.0,0.0,0.0,0.0,0.0,0.0,0.0,0.0,0.0,0.0,0.0,0.0,0.0,0.0,0.0,0.0,0.0,0.0,0.0,0.0,0.0,0.0,0.0,0.0,0.0,0.0,0.0,0.0,0.0,0.0,0.0,0.0,0.0,0.0,0.0,0.0,-0.0978,-0.1439,-0.179,-0.179,-0.179,-0.2068,-0.2681,-0.2937,-0.2825,0.0,0.0,0.0,0.0,0.0,0.0,0.0,0.0,0.0,0.0,0.0,0.0,0.0,0.0,0.0,0.0,0.0,0.0,0.0,0.0,0.0,0.0,0.0,0.0,0.0,0.0,0.0,0.0,0.0,0.0,0.0,0.0,0.0,0.0,0.0,0.0,0.0,0.0,0.0,0.0,0.0,0.0,0.0,0.0,0.0,0.0,0.0,0.0,0.0,0.0,0.0,0.0,0.0,0.0,0.0,0.0,0.0,0.0,0.0,0.0,0.0,0.0,0.0,0.0,0.0,0.0,0.0,0.0,0.0,0.0,0.0,0.0,0.0,0.0,0.0,0.0,0.0,0.0,0.0,0.0,0.0,0.0,0.0,0.0,0.0,0.0,0.0,0.0,0.0,0.0,0.0,0.0,0.0,0.0,0.0,0.0,0.0,0.0,0.0,0.0,0.0,0.0,0.0,-0.0756,-0.1388,-0.1958,-0.2402,-0.2458,-0.2847,-0.3904,-0.367,-0.3241,-0.2747,0.0,0.0,0.0,0.0,0.0,0.0,0.0,0.0,0.0,0.0,0.0,0.0,0.0,0.0,0.0,0.0,0.0,0.0,0.0,0.0,0.0,0.0,0.0,0.0,0.0,0.0,0.0,0.0,0.0,0.0,0.0,0.0,0.0,0.0,0.0,0.0,0.0,0.0,0.0,0.0,0.0,0.0,0.0,0.0,0.0,0.0,0.0,0.0,0.0,0.0,0.0,0.0,0.0,0.0,0.0,0.0,0.0,0.0,0.0,0.0,0.0,0.0,0.0,0.0,0.0,0.0,0.0,0.0,0.0,0.0,0.0,0.0,0.0,0.0,0.0,0.0,0.0,0.0,0.0,0.0,0.0,0.0,0.0,0.0,0.0,0.0,0.0,0.0,0.0,0.0,0.0,0.0,0.0,0.0,0.0,0.0,0.0,0.0,0.0,0.0,0.0,0.0,-0.1199,-0.1746,-0.2291,-0.2681,-0.2681,-0.3014,-0.3738,-0.368,-0.3439,-0.3001,0.0,0.0,0.0,0.0,0.0,0.0,0.0,0.0,0.0,0.0,0.0,0.0,0.0,0.0,0.0,0.0,0.0,0.0,0.0,0.0,0.0,0.0,0.0,0.0,0.0,0.0,0.0,0.0,0.0,0.0,0.0,0.0,0.0,0.0,0.0,0.0,0.0,0.0,0.0,0.0,0.0,0.0,0.0,0.0,0.0,0.0,0.0,0.0,0.0,0.0,0.0,0.0,0.0,0.0,0.0,0.0,0.0,0.0,0.0,0.0,0.0,0.0,0.0,0.0,0.0,0.0,0.0,0.0,0.0,0.0,0.0,0.0,0.0,0.0,0.0,0.0,0.0,0.0,0.0,0.0,0.0,0.0,0.0,0.0,0.0,0.0,0.0,0.0,0.0,0.0,0.0,0.0,0.0,0.0,0.0,0.0,0.0,0.0,0.0,0.0,0.0,0.0,-0.1952,-0.236,-0.2625,-0.2681,-0.2625,-0.2681,-0.2792,-0.3292,-0.3422,-0.3024,0.0,0.0,0.0,0.0,0.0,0.0,0.0,0.0,0.0,0.0,0.0,0.0,0.0,0.0,0.0,0.0,0.0,0.0,0.0,0.0,0.0,0.0,0.0,0.0,0.0,0.0,0.0,0.0,0.0,0.0,0.0,0.0,0.0,0.0,0.0,0.0,0.0,0.0,0.0,0.0,0.0,0.0,0.0,0.0,0.0,0.0,0.0,0.0,0.0,0.0,0.0,0.0,0.0,0.0,0.0,0.0,0.0,0.0,0.0,0.0,0.0363,0.0,0.0,0.0,0.0,0.0,0.0,0.0,0.0,0.0,0.0,0.0,0.0,0.0,0.0,0.0,0.0,0.0,0.0,0.0,0.0,0.0,0.0,0.0,0.0,0.0,0.0,0.0,0.0,0.0,0.0,0.0,0.0,0.0,0.0,0.0,0.0,0.0,0.0,0.0,0.0,0.0,-0.2035,-0.2051,-0.2179,-0.2625,-0.2291,-0.2402,-0.3347,-0.3514,-0.3672,-0.3741,-0.346,0.0,0.0,0.0,0.0,0.0,0.0,0.0,0.0,0.0,0.0,0.0,0.0,0.0,0.0,0.0,0.0,0.0,0.0,0.0,0.0,0.0,0.0,0.0,0.0,0.0,0.0,0.0,0.0,0.0,0.0,0.0,0.0,0.0,0.0,0.0,0.0,0.0,0.0,0.0,0.0,0.0,0.0,0.0,0.0,0.0,0.0,0.0,0.0,0.0,0.0,0.0,0.0,0.0,0.0,0.0,0.0,0.0,0.0,0.0,0.0,0.0151,0.0,0.0,0.0,0.0,0.0,0.0,0.0,0.0,0.0,0.0,0.0,0.0,0.0,0.0,0.0,0.0,0.0,0.0,0.0,0.0,0.0,0.0,0.0,0.0,0.0,0.0,0.0,0.0,0.0,0.0,0.0,0.0,0.0,0.0,0.0,0.0,0.0,0.0,0.0,0.0,-0.187,-0.2073,-0.2458,-0.307,-0.3125,-0.3347,-0.3959,-0.4015,-0.4041,-0.4093,-0.3725,0.0,0.0,0.0,0.0,0.0,0.0,0.0,0.0,0.0,0.0,0.0,0.0,0.0,0.0,0.0,0.0,0.0,0.0,0.0,0.0,0.0,0.0,0.0,0.0,0.0,0.0,0.0,0.0,0.0,0.0,0.0,0.0,0.0,0.0,0.0,0.0,0.0,0.0,0.0,0.0,0.0,0.0,0.0,0.0,0.0,0.0,0.0,0.0,0.0,0.0,0.0,0.0,0.0,0.0303,0.0099,0.0143,-0.0238,-0.0534,-0.0698,-0.0374,-0.0418,-0.0667,-0.0684,0.0,0.0,0.0,0.0,0.0,0.0,0.0,0.0,0.0,0.0,0.0,0.0,0.0,0.0,0.0,0.0,0.0,0.0,0.0,0.0,0.0,0.0,0.0,0.0,-0.1205,-0.1642,-0.2339,0.0,0.0,0.0,0.0,0.0,0.0,0.0,0.0,0.0,0.0,0.0,-0.1857,-0.2473,-0.307,-0.3572,-0.407,-0.4349,-0.4349,-0.4463,-0.4412,-0.4241,-0.3999,-0.3721,0.0,0.0,0.0,0.0,0.0,0.0,0.0,0.0,0.0,0.0,0.0,0.0,0.0,0.0,0.0,0.0,0.0,0.0,0.0,0.0,0.0,0.0,0.0,0.0,0.0,0.0,0.0,0.0,0.0,0.0,0.0,0.0,0.2417,0.2554,0.0,0.0,0.0,0.0,0.0,0.0,0.0,0.0,0.0,0.0,0.0,0.0,0.0,0.109,0.1318,0.0303,-0.0279,-0.0359,-0.0408,-0.0407,-0.0474,-0.0534,-0.0833,-0.1194,-0.1125,0.0,-0.0947,-0.095,0.0,0.0,0.0,0.0,0.0,0.0,0.0,0.0,0.0,0.0,0.0,0.0,0.0,0.0,0.0,0.0,0.0,0.0,0.0,0.0,0.0,0.0,-0.4171,-0.3567,-0.3493,-0.3555,0.0,-0.3036,-0.2069,-0.1037,-0.1585,0.0,0.0,0.0,0.0,0.0,0.0,0.0,-0.2867,-0.3255,-0.3514,-0.3569,-0.368,-0.3738,-0.3738,-0.4184,-0.4508,-0.4436,-0.4155,-0.3972,-0.3934,-0.3392,0.0,0.0,0.0,0.0,0.0,0.0,0.0,0.0,0.0,0.0,0.0,0.0,0.0,0.0,0.0,0.0,0.0,0.0,0.0,0.0,0.0,0.0,0.0,0.0,0.0,0.0,0.0,0.0,0.0,0.2527,0.2717,0.3014,0.3078,0.2981,0.0,0.0,0.0,0.0,0.0,0.0,0.0,0.0,0.0,0.1233,0.1174,0.1088,0.1073,0.0598,-0.0058,-0.0848,-0.0857,-0.0923,-0.0985,-0.1478,-0.1787,-0.1971,-0.2154,-0.2327,-0.2372,-0.1873,-0.1792,-0.1968,0.0,0.0,0.0,0.0,-0.2188,-0.2276,-0.2885,-0.3071,-0.3166,-0.3386,0.0,0.0,0.0,0.0,0.0,0.0,0.0,0.0,0.0,0.0,-0.4191,-0.3564,-0.3449,-0.3326,-0.3015,-0.2947,-0.2711,0.0,-0.2332,-0.2407,-0.1532,0.0,0.0,0.0,0.0,-0.2633,-0.2778,-0.3302,-0.3624,-0.3624,-0.3904,-0.4125,-0.4125,-0.4349,-0.4519,-0.4519,-0.4341,-0.4233,-0.41,-0.3765,-0.348,0.0,0.0,0.0,0.0,0.0,0.0,0.0,0.0,0.0,0.0,0.0,0.0,0.0,0.0,0.0,0.0,0.0,0.0,0.0,0.0,0.0,0.0,0.0,0.0,0.0,0.0,0.0,0.0,0.267,0.2862,0.3283,0.3121,0.2902,0.0,0.0,0.0,0.0,0.0,0.0,0.11,0.1206,0.117,0.0871,0.1077,0.0966,0.0517,0.0234,-0.0359,-0.1296,-0.1322,-0.1394,-0.1576,-0.2288,-0.2615,-0.2617,-0.3019,-0.335,-0.3589,-0.285,-0.2661,-0.2865,-0.2717,-0.2613,-0.2524,-0.3009,-0.3157,-0.3192,-0.3695,-0.3876,-0.377,-0.3596,-0.3517,-0.3441,-0.3224,0.0,0.0,0.0,0.0,-0.4563,-0.4876,-0.4537,-0.4058,-0.3708,-0.365,-0.3525,-0.3022,-0.3335,-0.3501,0.0,-0.298,-0.292,-0.228,0.0,0.0,0.0,0.0,-0.294,-0.2961,-0.3551,-0.3937,-0.3901,-0.4294,-0.456,-0.4522,-0.4519,-0.4519,-0.4519,-0.4519,-0.4412,-0.4307,-0.4107,-0.3904,-0.3618,0.0,0.0,0.0,0.0,0.0,0.0,0.0,0.0,0.0,0.0,0.0,0.0,0.0,0.0,0.0,0.0,0.0,0.0,0.0,0.0,0.0,0.0,0.0,0.0,0.0,0.0,0.0,0.0,0.0,0.314,0.2593,0.0,0.0,0.0,0.0,0.1421,0.1398,0.1296,0.1098,0.1231,0.0959,0.0175,0.0678,0.0459,-0.049,-0.1558,-0.2071,-0.2142,-0.2005,-0.2009,-0.2147,-0.2682,-0.2853,-0.2926,-0.3357,-0.3752,-0.4013,-0.3604,-0.3432,-0.3486,-0.3476,-0.3222,-0.3036,-0.336,-0.3486,-0.3544,-0.3806,-0.387,-0.3922,-0.3851,-0.383,-0.379,-0.3771,-0.3826,0.0,0.0,-0.4109,-0.4549,-0.4631,-0.4741,-0.491,-0.5239,-0.5272,-0.5272,-0.5272,-0.5272,-0.4854,0.0,-0.3542,-0.3708,-0.2959,0.0,-0.3536,-0.2987,-0.3382,-0.3812,-0.3939,-0.4463,-0.478,-0.4636,-0.468,-0.4619,-0.4529,-0.4519,-0.4519,-0.4519,-0.4519,-0.4515,-0.4508,-0.4314,-0.4161,-0.4143,-0.369,0.0,0.0,0.0,0.0,0.0,0.0,0.0,0.0,0.0,0.0,0.0,0.0,0.0,0.0,0.0,0.0,0.0,0.0,0.0,0.0,0.0,0.0,0.0,0.0,0.0,0.0,0.0,0.0,0.2755,0.2521,0.0,0.2135,0.1869,0.1603,0.1279,0.1136,0.1024,0.0949,0.0758,0.048,0.0182,-0.0182,-0.0553,-0.0942,-0.1776,-0.2248,-0.223,-0.2202,-0.2355,-0.2694,-0.3145,-0.3444,-0.3663,-0.4128,-0.4362,-0.4496,-0.433,-0.4175,-0.4043,-0.4043,-0.3867,-0.3753,-0.4027,-0.4148,-0.4159,-0.4371,-0.4395,-0.4371,-0.4219,-0.4088,-0.3974,-0.3895,-0.4044,-0.4312,-0.4463,-0.4773,-0.5113,-0.532,-0.5428,-0.5369,-0.5066,-0.5291,-0.5504,-0.5078,-0.5291,-0.5448,-0.4849,-0.4736,-0.4464,-0.3614,-0.4048,-0.4429,-0.4104,-0.4342,-0.4496,-0.4601,-0.4796,-0.4897,-0.4843,-0.4748,-0.4667,-0.4613,-0.4573,-0.4519,-0.4632,-0.4574,-0.4519,-0.4632,-0.458,-0.4478,-0.4374,-0.4252,-0.3904,0.0,0.0,0.0,0.0,0.0,0.0,0.0,0.0,0.0,0.0,0.0,0.0,0.0,0.0,0.0,0.0,0.0,0.0,0.0,0.0,0.0,0.0,0.0,0.0,0.0,0.0,0.189,0.2391,0.2132,0.1853,0.1831,0.1602,0.1367,0.1177,0.086,0.0644,0.0658,0.0185,-0.0125,-0.0313,-0.0832,-0.1238,-0.1518,-0.1977,-0.2248,-0.2312,-0.2312,-0.2465,-0.2771,-0.3304,-0.3685,-0.3983,-0.4535,-0.4776,-0.4776,-0.4776,-0.4659,-0.4477,-0.4436,-0.4371,-0.4317,-0.4474,-0.4602,-0.4613,-0.4695,-0.4726,-0.4698,-0.4541,-0.4501,-0.4417,-0.4398,-0.4561,-0.4779,-0.5009,-0.5306,-0.554,-0.5636,-0.5731,-0.5656,-0.5219,-0.5437,-0.5656,-0.5147,-0.5437,-0.5772,-0.5681,-0.5457,-0.5061,-0.4339,-0.4616,-0.4955,-0.4853,-0.4925,-0.5009,-0.5064,-0.5067,-0.5047,-0.4996,-0.4961,-0.4918,-0.4759,-0.4709,-0.4685,-0.4743,-0.4629,-0.4629,-0.4743,-0.4743,-0.4692,-0.4691,-0.4626,-0.4325,-0.3765,0.0,0.0,0.0,0.0,0.0,0.0,0.0,0.0,0.0,0.0,0.0,0.0,0.0,0.0,0.0,0.0,0.0,0.0,0.0,0.0,0.0,0.0,0.0,0.1893,0.1692,0.1619,0.2024,0.1387,0.099,0.1243,0.1073,0.0988,0.0988,0.0494,0.0185,0.0185,-0.0317,-0.0839,-0.1356,-0.1195,-0.1508,-0.2274,-0.2315,-0.2354,-0.2392,-0.2392,-0.2375,-0.2343,-0.3295,-0.3707,-0.3787,-0.4655,-0.5018,-0.5018,-0.5018,-0.4947,-0.4828,-0.4711,-0.4734,-0.4731,-0.4734,-0.4737,-0.4737,-0.4737,-0.4737,-0.4737,-0.4954,-0.5026,-0.5023,-0.5231,-0.5378,-0.5456,-0.5381,-0.5525,-0.5745,-0.5607,-0.5676,-0.5817,-0.5817,-0.5817,-0.5817,-0.5817,-0.5817,-0.5813,-0.581,-0.5698,-0.5508,-0.5196,-0.5145,-0.5142,-0.5138,-0.5138,0.0,-0.5408,-0.5428,-0.5304,-0.5155,-0.5265,-0.5271,-0.4969,-0.4984,-0.4962,-0.4916,-0.4798,-0.4743,-0.4897,-0.4794,-0.4853,-0.5124,-0.4725,-0.4463,-0.4324,0.0,0.0,0.0,0.0,0.0,0.0,0.0,0.0,0.0,0.0,0.0,0.0,0.0,0.0,0.0,0.0,0.0,0.0,0.0,0.0,0.0,0.0,0.1298,0.149,0.1266,0.1124,0.1237,0.1043,0.0948,0.1083,0.0673,0.0432,0.0432,-0.0063,-0.0382,-0.0382,-0.0851,-0.1208,-0.137,-0.1726,-0.204,-0.2317,-0.233,-0.2361,-0.2411,-0.2411,-0.2732,-0.3385,-0.3639,-0.4115,-0.4658,-0.4924,-0.5018,-0.5018,-0.5018,-0.4996,-0.4963,-0.4931,-0.4863,-0.4795,-0.4885,-0.4917,-0.4917,-0.5064,-0.514,-0.5126,-0.5336,-0.538,-0.5362,-0.5331,-0.5517,-0.5744,-0.5667,-0.5894,-0.6135,-0.6059,-0.6135,-0.6135,-0.6135,-0.6135,-0.6135,-0.6135,-0.6135,-0.6101,-0.5989,-0.5935,-0.5813,-0.5515,-0.5464,-0.5426,-0.5315,-0.5298,0.0,-0.5547,-0.5554,-0.5536,-0.5491,-0.5392,-0.5357,-0.5271,-0.5058,-0.502,-0.5262,-0.5027,-0.4901,-0.5014,-0.5014,-0.5073,-0.5242,-0.4895,-0.465,0.0,0.0,0.0,0.0,0.0,0.0,0.0,0.0,0.0,0.0,0.0,0.0,0.0,0.0,0.0,0.0,0.0,0.0,0.0,0.0,0.0,0.0,0.1191,0.1169,0.1185,0.0989,0.0903,0.088,0.0723,0.0617,0.069,0.0191,-0.0064,-0.0064,-0.0591,-0.0935,-0.0935,-0.144,-0.1754,-0.1781,-0.2068,-0.2239,-0.2369,-0.2371,-0.2475,-0.2688,-0.2688,-0.3095,-0.3841,-0.3997,-0.4309,-0.4779,-0.4937,-0.5018,-0.5018,-0.5018,-0.5018,0.0,0.0,0.0,0.0,0.0,-0.5093,-0.5168,-0.5323,-0.5401,-0.5464,-0.5619,-0.5667,-0.5654,-0.5722,-0.5829,-0.6046,-0.6046,-0.6113,-0.6338,-0.6338,-0.6338,-0.6338,-0.6338,-0.6338,-0.6338,-0.6338,-0.6338,-0.6234,-0.6142,-0.6125,0.0,-0.5817,-0.5722,-0.563,-0.5481,-0.5521,-0.5564,-0.5624,-0.5683,-0.5752,-0.5752,-0.5737,-0.5717,-0.559,-0.5413,0.0,0.0,0.0,-0.5091,-0.5073,-0.5128,0.0,0.0,0.0,0.0,0.0,0.0,0.0,0.0,-0.4702,-0.4666,0.0,0.0,0.0,0.0,0.0,0.0,0.0,0.0,0.0,0.0,0.0,0.0,0.0,0.0,0.0,0.0,0.1136,0.0913,0.1002,0.0831,0.0714,0.0774,0.0374,0.0129,0.0065,-0.0397,-0.0673,-0.0607,-0.1175,-0.1543,-0.1478,0.0,0.0,0.0,0.0,-0.252,-0.2581,-0.2582,-0.2764,-0.3141,-0.3141,-0.3452,-0.3841,-0.4229,-0.4462,-0.4462,-0.4859,-0.5018,-0.5018,-0.5031,-0.5045,-0.5053,-0.5026,-0.5018,-0.5015,-0.5243,-0.5321,-0.5321,-0.5556,0.0,0.0,-0.5864,-0.5941,-0.6018,-0.6257,-0.6338,-0.6338,-0.6338,-0.6338,-0.6338,-0.6338,-0.6338,-0.6338,-0.6338,-0.6338,-0.6338,-0.6338,-0.6338,-0.6338,-0.6338,-0.6338,-0.6217,-0.6078,-0.5928,-0.5779,-0.5706,-0.5748,-0.5823,-0.5729,-0.5848,-0.5977,-0.5958,0.0,0.0,-0.5942,-0.5911,-0.5829,-0.5693,-0.5544,-0.535,-0.5191,-0.5302,-0.5302,-0.5183,-0.5302,-0.5434,-0.5644,-0.5644,-0.5738,-0.59,-0.5234,-0.5186,0.0,0.0,0.0,0.0,0.0,0.0,0.0,0.0,0.0,0.0,0.0,0.0,0.0,0.0,0.0,0.0978,0.0968,0.0945,0.0975,0.0125,-0.038,-0.0127,-0.0128,-0.039,-0.0798,-0.1539,-0.1829,-0.1249,-0.2024,-0.2404,-0.217,-0.2617,-0.287,-0.2855,-0.3229,-0.3493,-0.3503,-0.3503,-0.3589,-0.3686,0.0,0.0,-0.4307,-0.4384,-0.4543,-0.4859,-0.4937,-0.5018,-0.5023,-0.5116,-0.5211,-0.5281,-0.5091,-0.5018,-0.5015,-0.5243,-0.5321,-0.5321,-0.5709,-0.5864,-0.5864,-0.618,-0.6257,-0.6257,-0.6261,-0.6338,0.0,-0.6338,-0.6338,-0.6338,-0.6338,-0.6338,-0.6338,-0.6338,-0.6338,-0.6338,-0.6338,-0.6338,-0.6338,-0.6338,-0.6338,-0.6251,-0.622,-0.6088,-0.5935,-0.6004,-0.6051,-0.6061,-0.6241,-0.6291,-0.6237,-0.6164,-0.6148,-0.6199,-0.6167,-0.5977,-0.5931,-0.6046,-0.5912,-0.5759,-0.5723,-0.5787,-0.5787,-0.5723,-0.5787,-0.5799,-0.5835,-0.5835,-0.5925,-0.6154,-0.5807,-0.5734,0.0,0.0,0.0,0.0,0.0,0.0,0.0,0.0,0.0,0.0,0.0,0.0868,0.0,0.0,0.0654,0.0875,0.0908,0.062,-0.0441,-0.0776,-0.0851,-0.058,-0.0847,-0.1255,-0.1677,-0.2109,-0.2277,-0.2099,-0.2584,-0.2858,-0.2674,-0.3156,-0.3423,-0.3388,-0.3619,-0.3795,-0.3763,-0.3763,-0.3919,-0.4073,-0.4073,-0.4309,-0.4701,-0.4755,-0.4938,-0.5105,-0.5167,-0.5192,-0.5197,-0.5254,-0.5399,-0.5527,-0.5406,-0.5359,-0.5356,-0.5594,-0.5749,-0.591,-0.6234,-0.6314,-0.6314,-0.6478,-0.6481,-0.6481,-0.6481,-0.6481,-0.6481,-0.6481,-0.6481,-0.6481,-0.6481,-0.6424,-0.6366,-0.6366,-0.6312,-0.6338,-0.6338,-0.6338,-0.6338,-0.6338,-0.6412,-0.6412,-0.6412,-0.6419,-0.6389,-0.6232,-0.6353,-0.6516,-0.6561,-0.6608,-0.661,-0.6495,-0.6483,-0.638,-0.6292,-0.6121,-0.6085,-0.6207,-0.5982,-0.5888,-0.5888,-0.5888,-0.5888,-0.5888,-0.5888,-0.5933,-0.608,-0.608,-0.6156,-0.642,-0.6331,-0.629,0.0,0.0,0.0,0.0,0.0,0.0,0.0,0.0,0.0968,0.0974,0.0855,0.0763,0.0807,0.0615,0.0466,0.0679,0.0572,-0.0129,-0.1753,-0.1855,-0.1665,-0.1497,-0.1853,-0.228,-0.2618,-0.2687,-0.2737,-0.2889,-0.3095,-0.3185,-0.3123,-0.3647,-0.3919,-0.3919,-0.3997,-0.4075,-0.4231,-0.4075,-0.4231,-0.4696,-0.454,-0.4789,-0.521,-0.5223,-0.5281,-0.5468,-0.5408,-0.5466,-0.5485,-0.5463,-0.565,-0.5861,-0.5838,-0.5843,-0.5942,-0.6056,-0.6197,-0.6443,-0.6615,-0.6702,-0.6702,-0.6702,-0.6702,-0.6702,-0.6702,-0.6702,-0.6702,-0.6702,-0.6702,-0.6702,-0.6702,-0.661,-0.6515,-0.6515,-0.643,-0.6339,-0.6308,-0.6325,-0.6407,-0.6349,-0.6511,-0.6677,-0.6644,-0.6791,-0.682,-0.6536,-0.6742,-0.6908,-0.6817,-0.6937,-0.6936,-0.6749,-0.6741,-0.6672,-0.6489,-0.6302,-0.626,-0.626,-0.6067,-0.5994,-0.5994,-0.5994,-0.5994,-0.5994,-0.5994,-0.6079,-0.6318,-0.6314,-0.6486,-0.6749,-0.6781,-0.6777,-0.0152,-0.0115,0.0236,0.0642,0.0766,0.0786,0.0,0.0,0.0853,0.0914,0.0899,0.0867,0.0873,0.0598,0.0309,0.0128,-0.0772,-0.1431,-0.1601,-0.295,-0.3959,-0.388,-0.328,-0.3082,-0.3623,-0.3988,-0.4021,-0.3469,-0.3795,-0.3971,-0.3744,-0.4144,-0.4307,-0.4307,-0.4701,-0.509,-0.5628,-0.5168,-0.5168,-0.5705,-0.5168,-0.5303,-0.6042,-0.55,-0.5569,-0.6255,-0.5613,-0.5597,-0.586,-0.5751,-0.5923,-0.6289,-0.6263,-0.6378,-0.6627,-0.6457,-0.636,-0.6443,-0.6615,-0.6702,-0.6702,-0.6702,-0.6702,-0.6702,-0.6702,-0.6702,-0.6702,-0.6702,-0.6702,-0.6702,-0.6702,-0.6688,-0.6675,-0.6675,-0.6664,-0.6614,-0.6478,-0.6556,-0.6654,-0.6539,-0.6677,-0.6806,-0.6891,-0.7022,-0.7176,-0.708,-0.7153,-0.7167,-0.7146,-0.7196,-0.7127,-0.7011,-0.6995,-0.6855,-0.668,-0.6497,-0.6388,-0.6388,-0.6371,-0.6359,-0.6359,-0.6359,-0.6359,-0.6359,-0.6359,-0.6453,-0.6635,-0.6623,-0.6721,-0.6999,-0.709,-0.7082,-0.018,-0.032,-0.0231,0.0,-0.0242,-0.0149,0.0214,0.0106,0.0106,0.0778,0.0922,0.0592,-0.0422,-0.1551,-0.211,0.0,-0.1649,-0.2252,-0.3086,-0.383,-0.43,-0.43,-0.3961,-0.3825,-0.4097,-0.3978,-0.388,-0.3779,-0.4152,-0.4264,-0.4148,-0.4545,-0.4779,-0.4779,-0.5243,-0.5479,-0.5401,-0.5479,-0.5634,-0.5864,-0.5786,-0.5854,-0.6157,-0.6077,-0.5969,-0.601,-0.5837,-0.5866,-0.5999,-0.6118,-0.6334,-0.6609,-0.664,-0.6741,-0.6953,-0.6743,-0.6698,-0.6781,-0.687,-0.6956,-0.6956,-0.6956,-0.6956,-0.6956,-0.6956,-0.6956,-0.6956,-0.6956,-0.6956,-0.6956,-0.6956,-0.6895,-0.6834,-0.6834,-0.6766,-0.6681,-0.662,-0.6819,-0.6908,-0.6859,-0.713,-0.7285,-0.719,-0.7407,-0.7532,-0.7427,-0.7407,-0.7383,-0.7387,-0.7374,-0.7309,-0.7131,-0.7017,-0.6995,-0.6851,-0.6773,-0.6688,-0.6587,-0.6583,-0.653,-0.6424,-0.642,-0.6469,-0.6578,-0.6583,-0.6668,-0.6846,-0.6909,-0.6932,-0.7114,-0.7192,-0.724,-0.0539,0.0,0.0,-0.1023,-0.1052,-0.0918,-0.0539,-0.0648,-0.0598,0.0223,0.0403,-0.0059,-0.1454,-0.3147,-0.397,-0.2913,-0.2737,-0.3088,-0.4167,-0.43,-0.43,-0.43,-0.43,-0.43,-0.43,-0.3992,-0.3896,-0.4145,-0.4392,-0.4511,-0.454,-0.4859,-0.5093,-0.5249,-0.5479,-0.5709,-0.5786,-0.5864,-0.6112,-0.6468,-0.6258,-0.6273,-0.6525,-0.6606,-0.6343,-0.5908,-0.6083,-0.6171,-0.626,-0.6435,-0.67,-0.6881,-0.6881,-0.6966,-0.7054,-0.6966,-0.6966,-0.7139,-0.7139,-0.7139,-0.7139,-0.7139,-0.7139,-0.7139,-0.7139,-0.7139,-0.7139,-0.7139,-0.7139,-0.7139,-0.7139,-0.7065,-0.6987,-0.6987,-0.6905,-0.6898,-0.6853,-0.7129,-0.7301,-0.7292,-0.7564,-0.7706,-0.7608,-0.7745,-0.7768,-0.7586,-0.7561,-0.7541,-0.7488,-0.7484,-0.7435,-0.7309,-0.7135,-0.7029,-0.7029,-0.7052,-0.697,-0.6773,-0.6765,-0.6708,-0.657,-0.6566,-0.6631,-0.6765,-0.6765,-0.6855,-0.7029,-0.7029,-0.7123,-0.7297,-0.7297,-0.7391,0.0,0.0,-0.143,-0.1377,-0.1361,-0.1283,-0.1283,-0.1283,-0.1173,-0.0894,-0.0861,-0.1057,-0.1705,-0.3162,-0.4266,-0.4268,-0.423,-0.4233,-0.43,-0.43,-0.43,-0.43,-0.43,-0.43,0.0,-0.4406,-0.4523,-0.4643,-0.4768,-0.4814,-0.501,-0.5018,-0.5249,-0.5864,-0.5326,-0.5864,-0.7706,-0.6475,-0.6634,-0.7982,-0.6711,-0.6627,-0.7595,-0.7058,-0.6599,-0.6343,-0.6169,-0.6349,-0.6792,-0.6795,-0.6881,-0.7051,-0.7051,-0.7051,-0.7139,-0.7051,-0.7051,-0.7139,-0.7139,-0.7139,-0.7139,-0.7139,-0.7139,-0.7139,-0.7139,-0.7139,-0.7139,-0.7139,-0.7139,-0.7139,-0.7139,-0.7136,-0.7132,-0.7132,-0.7312,-0.745,-0.7293,-0.7552,-0.7831,-0.7673,-0.7827,-0.7885,-0.7954,-0.8004,-0.7947,-0.7776,-0.7752,-0.7687,-0.7504,-0.7484,-0.748,-0.7476,-0.7322,-0.7216,-0.7216,-0.7058,-0.7023,-0.7019,-0.7015,-0.7015,-0.7007,-0.7007,-0.7011,-0.7015,-0.7015,-0.7033,-0.7216,-0.7216,-0.7305,-0.7476,-0.7476,-0.7573,-0.1986,0.0,-0.2298,-0.2458,-0.2494,-0.246,-0.2464,-0.2631,-0.2798,-0.2691,-0.2705,-0.2767,-0.3058,-0.3595,-0.4034,-0.4176,-0.4153,-0.4208,-0.4289,-0.4365,-0.4384,-0.4308,-0.4368,0.0,0.0,0.0,0.0,-0.4715,-0.4765,-0.4887,-0.501,-0.5401,-0.5479,-0.5323,-0.6325,-0.6784,-0.6553,-0.6938,-0.7492,-0.8074,-0.7577,-0.7377,-0.7501,-0.6848,-0.6517,-0.6428,-0.6523,-0.6615,-0.6795,-0.6966,-0.7054,-0.7139,-0.7139,-0.7139,-0.7139,-0.7139,-0.7139,-0.7139,-0.7139,-0.7139,-0.7139,-0.7139,-0.7139,-0.7139,-0.7139,-0.7139,-0.7139,-0.7139,-0.7139,-0.7139,-0.7139,-0.7231,-0.7326,-0.7326,-0.7591,-0.7753,-0.7698,-0.7899,-0.8078,-0.8049,-0.817,-0.8328,-0.8231,-0.8195,-0.8097,-0.7805,-0.7655,-0.7553,-0.7492,-0.7484,-0.7484,-0.7484,-0.7431,-0.7399,-0.7399,-0.7342,-0.7257,-0.7143,-0.7135,-0.7078,-0.7027,-0.7023,-0.7009,-0.7131,-0.7135,-0.722,-0.7399,-0.7399,-0.7427,-0.7484,-0.761,-0.7699,-0.2535,-0.2674,-0.2896,-0.3273,-0.3357,-0.3357,-0.3305,-0.3447,-0.3585,-0.3593,-0.3597,-0.365,-0.3702,-0.3738,-0.3853,-0.4034,-0.4088,-0.4175,-0.4338,-0.439,-0.4414,-0.4425,-0.4452,-0.4458,0.0,0.0,0.0,-0.472,-0.4765,-0.4963,-0.5318,-0.5479,-0.5634,-0.5712,-0.6784,-0.7165,-0.678,-0.7842,-0.8321,-0.8264,-0.7893,-0.7563,-0.7228,-0.6694,-0.652,-0.6697,-0.6792,-0.6884,-0.6881,-0.7054,-0.7139,-0.7139,-0.7139,-0.7139,-0.7139,-0.7139,-0.7139,-0.7139,-0.7139,-0.7139,-0.7139,-0.7139,-0.7139,-0.7139,-0.7139,-0.7143,-0.7231,-0.7231,-0.7319,-0.7408,-0.7408,-0.7499,-0.768,-0.768,-0.7852,-0.8028,-0.8028,-0.8204,-0.838,-0.838,-0.8476,-0.8528,-0.841,-0.8337,-0.8211,-0.7983,-0.7793,-0.7626,-0.75,-0.7484,-0.7484,-0.7484,-0.7484,-0.7484,-0.7484,-0.7484,-0.7435,-0.7326,-0.7317,-0.7265,-0.7147,-0.7216,-0.72,-0.7317,-0.7317,-0.737,-0.7484,-0.7549,-0.7581,-0.7586,-0.7764,-0.7886,-0.3308,-0.3338,-0.3332,-0.3727,-0.3812,-0.3809,-0.3804,-0.3718,-0.3583,-0.3574,-0.3574,-0.3572,0.0,0.0,-0.3776,-0.3906,-0.4028,-0.4191,-0.4436,-0.4382,-0.4401,0.0,0.0,0.0,0.0,0.0,0.0,-0.4806,0.0,-0.5185,-0.5931,-0.5401,-0.5712,-0.6865,-0.6707,-0.7169,-0.8394,-0.9077,-0.9147,-0.8603,-0.7846,-0.7316,-0.6881,-0.6609,-0.6697,-0.7228,-0.6969,-0.6966,-0.7139,-0.7139,-0.7139,-0.7139,-0.7139,-0.7139,-0.7139,-0.7139,-0.7139,-0.7139,-0.7139,-0.7139,-0.7139,-0.7139,-0.7139,-0.7139,-0.7139,-0.7323,-0.7507,-0.7507,-0.768,-0.7944,-0.7944,-0.7944,-0.794,-0.794,-0.8116,-0.8201,-0.8201,-0.8384,-0.8568,-0.8568,-0.8568,-0.8568,-0.8568,-0.8422,-0.83,-0.8292,-0.8142,-0.7898,-0.7541,-0.7496,-0.7492,-0.7484,-0.7484,-0.7484,-0.7484,-0.7484,-0.7484,-0.7484,-0.7484,-0.7484,-0.7484,-0.7484,-0.7484,-0.7484,-0.7484,-0.7488,-0.7496,-0.7675,-0.7764,-0.7776,-0.7947,-0.8122,-0.3337,-0.3457,-0.3658,-0.3746,-0.3812,-0.379,-0.3645,-0.3604,-0.3558,-0.3468,-0.3447,-0.342,0.0,0.0,0.0,-0.3765,-0.3901,0.0,-0.4423,-0.4523,0.0,-0.4718,0.0,-0.4719,-0.4731,-0.4876,0.0,0.0,-0.5993,-0.6078,-0.6307,-0.678,-0.7015,-0.6942,-0.7914,-0.8373,-0.8217,-0.9117,-0.9271,-0.8785,-0.8115,-0.7848,-0.8021,-0.7316,-0.7749,-0.9139,-0.7665,-0.7492,-0.8105,-0.7404,-0.7139,-0.7139,-0.7139,-0.7139,-0.7139,-0.7139,-0.7139,-0.7139,-0.7139,-0.7139,-0.7139,-0.7139,-0.7231,-0.7415,-0.7415,-0.7591,-0.7768,-0.7768,-0.7856,-0.7944,-0.7944,-0.8028,-0.8113,-0.8113,-0.8292,-0.8476,-0.8476,-0.8564,-0.8568,-0.8568,-0.8568,-0.8568,-0.8568,-0.8528,-0.845,-0.8312,-0.8251,-0.8089,-0.7736,-0.7691,-0.7638,-0.7496,-0.7484,-0.7484,-0.7484,-0.7484,-0.7484,-0.7484,-0.7484,-0.7484,-0.7484,-0.7484,-0.7484,-0.7484,-0.7484,-0.7553,-0.7691,-0.7736,-0.7825,-0.7951,-0.8134,-0.8243,-0.3545,-0.3714,-0.3901,-0.3846,-0.3833,-0.3789,-0.3621,-0.3542,-0.3468,-0.3346,-0.3322,0.0,-0.3232,0.0,0.0,0.0,0.0,0.0,-0.4628,-0.4812,-0.4919,0.0,-0.5124,0.0,-0.5628,-0.577,-0.6266,0.0,-0.6791,-0.6757,-0.708,-0.7621,-0.7702,-0.7322,-0.8737,-0.9642,-0.9999,-0.9668,-0.9498,-0.9334,-0.8495,-0.8285,-0.8456,-0.836,-0.8882,-0.9836,0.0,-0.8017,-0.8456,-0.7492,-0.7139,-0.7139,-0.7139,-0.7139,-0.7139,-0.7139,-0.7139,-0.7139,-0.7231,-0.7234,-0.7234,-0.7234,-0.7499,-0.7683,-0.7683,-0.7856,-0.8028,-0.8028,-0.812,-0.8212,-0.8212,-0.8296,-0.838,-0.838,-0.8476,-0.8568,-0.8568,-0.8568,-0.8568,-0.8568,-0.8568,-0.8568,-0.8568,-0.8568,-0.8532,-0.8426,-0.841,-0.8308,-0.8028,-0.7923,-0.7833,-0.7728,-0.765,-0.7606,-0.7606,-0.7529,-0.7484,-0.7484,-0.7484,-0.7484,-0.7484,-0.7484,-0.7484,-0.7484,-0.7565,-0.7655,-0.784,-0.7918,-0.804,-0.8138,-0.8325,-0.841,-0.3831,-0.3944,-0.4088,-0.3904,-0.3872,-0.3868,-0.3618,-0.3466,-0.3338,-0.3199,0.0,-0.3216,-0.315,-0.3324,-0.352,-0.3753,0.0,-0.4376,-0.4888,-0.5032,-0.5263,-0.5564,-0.5673,-0.6033,-0.685,-0.7015,-0.7395,-0.8232,-0.7548,-0.7399,-0.8008,-0.8161,-0.8183,-0.8159,-0.9438,-1.0884,-1.2361,-1.0501,-0.9748,-1.0096,-0.8886,-0.854,-0.889,-0.9492,-0.9923,-1.0183,-0.8973,-0.8544,-0.8627,-0.7577,-0.7139,-0.7139,-0.7139,-0.7139,-0.7139,-0.7139,-0.7139,-0.7143,-0.7415,-0.7507,-0.7591,-0.7591,-0.7768,-0.7944,-0.7944,-0.8116,-0.8288,-0.8288,-0.8384,-0.8568,-0.8568,-0.8568,-0.8568,-0.8568,-0.8568,-0.8568,-0.8568,-0.8568,-0.8568,-0.8568,-0.8568,-0.8568,-0.8568,-0.8568,-0.8568,-0.8568,-0.8568,-0.8511,-0.8349,-0.8166,-0.804,-0.8016,-0.7882,-0.7793,-0.7793,-0.7646,-0.7553,-0.7553,-0.7553,-0.7553,-0.7553,-0.7553,-0.7553,-0.7553,-0.7711,-0.7805,-0.7833,-0.8138,-0.8304,-0.8333,-0.8491,-0.8568,-0.3876,-0.4007,-0.4088,-0.3904,-0.3872,-0.3846,-0.3509,-0.3338,0.0,0.0,-0.3155,-0.3254,-0.2838,-0.3319,-0.3697,-0.3626,0.0,0.0,0.0,0.0,-0.5258,0.0,0.0,0.0,0.0,0.0,0.0,0.0,-0.877,-0.8618,-0.9221,-0.8846,-0.9087,-1.0157,-1.0637,-1.1477,-1.2632,-1.0732,-1.0235,-1.1063,-0.8536,-0.8536,-1.0804,-0.941,-1.0014,-1.2095,-0.9584,0.0,-0.9488,-0.7837,-0.7139,-0.7139,-0.7139,-0.7139,-0.7139,-0.7139,-0.7231,-0.7415,-0.7507,-0.7768,-0.8025,-0.7856,-0.794,-0.8113,-0.8113,-0.8292,-0.8564,-0.8564,-0.8564,-0.8568,-0.8568,-0.8568,-0.8568,-0.8568,-0.8568,-0.8568,-0.8568,-0.8568,-0.8568,-0.8568,-0.8568,-0.8568,-0.8568,-0.8568,-0.8568,-0.8568,-0.8568,-0.8556,-0.8524,-0.8357,-0.8182,-0.8028,-0.7988,-0.7967,-0.7967,-0.7939,-0.7923,-0.7923,-0.7923,-0.7923,-0.7923,-0.7923,-0.7923,-0.7923,-0.7951,-0.8044,-0.8199,-0.826,-0.8369,-0.8519,-0.8552,-0.8568,-0.392,-0.4072,-0.4167,-0.3982,-0.3872,-0.3825,-0.3456,0.0,0.0,0.0,-0.3146,-0.3261,-0.2935,0.0,0.0,0.0,0.0,0.0,0.0,0.0,0.0,0.0,0.0,0.0,0.0,0.0,0.0,0.0,-0.976,-0.9458,-0.976,-0.9458,-0.99,-1.1255,-1.1468,-1.1881,-1.2699,-1.1316,-1.0885,-1.1322,-0.9932,-1.0019,-1.1322,-1.0885,-1.1402,-1.2619,-1.0799,-0.9927,-0.9749,-0.836,-0.758,-0.7139,-0.7139,-0.7139,-0.7139,-0.7234,-0.7415,-0.7507,-0.7764,-0.8025,-0.8201,-0.8208,-0.8296,-0.8384,-0.8384,-0.8476,-0.8568,-0.8568,-0.8568,-0.8568,-0.8568,-0.8568,-0.8568,-0.8568,-0.8568,-0.8568,-0.8568,-0.8568,-0.8568,-0.8568,-0.8568,-0.8568,-0.8568,-0.8568,-0.8568,-0.8568,-0.8568,-0.8568,-0.8568,-0.8491,-0.8402,-0.8312,-0.8215,-0.8158,-0.8158,-0.8069,-0.8012,-0.8012,-0.8012,-0.8012,-0.8012,-0.8012,-0.8012,-0.8012,-0.8109,-0.8199,-0.8292,-0.839,-0.8479,-0.8568,-0.8568,-0.8568,-0.3867,-0.4094,-0.4208,-0.399,-0.3872,-0.3808,-0.3485,-0.3348,0.0,0.0,-0.3303,-0.3394,-0.3117,0.0,0.0,0.0,0.0,0.0,0.0,0.0,0.0,0.0,0.0,0.0,0.0,0.0,0.0,0.0,-1.0293,-0.9922,-0.9922,-1.0122,-1.0733,-1.1828,-1.198,-1.2234,-1.2699,-1.1757,-1.1408,-1.1585,-1.1149,-1.1235,-1.1585,-1.2186,-1.2528,-1.2619,-1.1757,-1.0971,-1.0188,-0.9061,-0.8364,-0.7834,-0.7665,-0.7661,-0.7837,-0.8109,-0.8113,-0.8028,-0.8372,-0.8372,-0.8292,-0.8564,-0.8568,-0.8568,-0.8568,-0.8568,-0.8568,-0.8568,-0.8568,-0.8568,-0.8568,-0.8568,-0.8568,-0.8568,-0.8568,-0.8568,-0.8568,-0.8568,-0.8568,-0.8568,-0.8568,-0.8568,-0.8568,-0.8568,-0.8568,-0.8568,-0.8568,-0.8568,-0.8568,-0.8568,-0.8568,-0.8568,-0.8438,-0.8349,-0.8349,-0.8215,-0.8134,-0.8134,-0.8134,-0.8134,-0.8134,-0.8134,-0.8134,-0.8134,-0.8276,-0.8349,-0.8349,-0.8495,-0.8568,-0.8568,-0.8568,-0.8568,-0.3903,-0.4031,-0.4102,-0.3907,-0.3872,-0.3808,-0.3485,0.0,0.0,-0.3288,-0.3738,-0.3958,-0.339,-0.3753,0.0,0.0,0.0,-0.4352,0.0,0.0,0.0,0.0,0.0,0.0,0.0,0.0,0.0,0.0,-0.9922,-0.9922,-0.9922,-1.0824,-1.1546,-1.1914,-1.2155,-1.2415,-1.2699,-1.1757,-1.1757,-1.2528,-1.088,-1.088,-1.2528,-1.1757,-1.1929,-1.2619,-1.1929,-1.1585,0.0,-0.9758,-0.9579,-1.0178,-0.9318,-0.9488,-1.0265,-1.0351,-0.9923,-0.9405,-0.9492,-0.9074,-0.8564,-0.8568,-0.8568,-0.8568,-0.8568,-0.8568,-0.8568,-0.8568,-0.8568,-0.8568,-0.8568,-0.8568,-0.8568,-0.8568,-0.8568,-0.8568,-0.8568,-0.8568,-0.8568,-0.8568,-0.8568,-0.8568,-0.8568,-0.8568,-0.8568,-0.8568,-0.8568,-0.8568,-0.8568,-0.8568,-0.8568,-0.8568,-0.8552,-0.8544,-0.8544,-0.8528,-0.8515,-0.8515,-0.8515,-0.8515,-0.8515,-0.8515,-0.8515,-0.8515,-0.8532,-0.8544,-0.8544,-0.856,-0.8568,-0.8568,-0.8568,-0.8568,-0.403,-0.4039,-0.4168,-0.4099,-0.4068,-0.407,-0.4083,0.0,-0.3781,-0.3883,-0.4047,-0.4054,-0.357,-0.3764,-0.4057,0.0,-0.4245,-0.4451,-0.4975,0.0,0.0,0.0,0.0,0.0,0.0,0.0,0.0,0.0,-0.9922,-1.0143,-1.0594,-1.0994,-1.1479,-1.1908,-1.2023,-1.2282,-1.2699,-1.2357,-1.2448,-1.2966,-1.2009,-1.2095,-1.313,-1.2619,-1.2619,-1.3137,-1.2875,-1.2363,0.0,-1.1144,-1.0794,-1.0524,-1.0183,-1.0265,-1.0611,-1.0783,-1.0269,-0.9579,-0.9763,-0.9253,-0.8652,-0.917,-0.9345,-0.9257,-0.874,-0.8568,-0.8568,-0.8568,-0.8568,-0.8568,-0.8568,-0.8568,-0.8568,-0.8568,-0.8568,-0.8568,-0.8568,-0.8568,-0.8568,-0.8568,-0.8568,-0.8568,-0.8568,-0.8568,-0.8568,-0.8568,-0.8568,-0.8568,-0.8568,-0.8568,-0.8568,-0.8568,-0.8568,-0.8568,-0.8568,-0.8568,-0.8568,-0.8568,-0.8568,-0.8568,-0.8568,-0.8568,-0.8568,-0.8568,-0.8568,-0.8568,-0.8568,-0.8568,-0.8568,-0.8568,-0.8568,-0.8621,-0.4235,-0.4203,-0.4228,-0.4191,-0.4342,-0.4459,0.0,-0.4392,-0.4337,-0.4466,-0.4431,-0.4233,-0.3782,-0.3852,-0.4094,-0.441,-0.4402,-0.4632,-0.5354,-0.5546,0.0,0.0,0.0,0.0,0.0,0.0,0.0,0.0,-0.9992,-1.0218,-1.1037,-1.1186,-1.1435,-1.1988,-1.2006,-1.2337,-1.2875,-1.2875,-1.2966,-1.3222,-1.2966,-1.3052,-1.3398,-1.3222,-1.3307,-1.3398,-1.3483,-1.3137,0.0,-1.2272,-1.2009,-1.1649,-1.1305,-1.1391,-1.1649,-1.1826,-1.1305,-1.0534,-1.0717,-1.012,-0.9515,-1.0115,-1.0289,-1.0207,-0.9602,-0.9432,-0.9345,-0.9087,-0.8828,-0.8568,-0.8568,-0.8568,-0.8656,-0.8911,-0.8999,-0.9087,-0.9345,-0.9432,-0.9432,-0.9432,-0.9432,-0.9345,-0.8999,-0.8999,-0.8915,-0.8656,-0.8568,-0.8568,-0.8568,-0.8568,-0.8568,-0.8568,-0.8568,-0.8568,-0.8568,-0.8568,-0.8568,-0.8568,-0.8568,-0.8568,-0.8568,-0.8568,-0.8568,-0.8568,-0.8568,-0.8568,-0.8568,-0.8568,-0.8568,-0.8568,-0.8617,-0.8763,-0.4634,-0.4459,-0.417,-0.4229,-0.4632,-0.4964,0.0,-0.4894,-0.5224,-0.494,-0.4825,-0.4624,-0.3997,-0.4058,-0.4213,-0.4306,-0.4426,-0.4872,-0.5842,-0.616,0.0,0.0,0.0,0.0,0.0,0.0,0.0,-1.1037,-1.0368,0.0,-1.1037,-1.126,-1.167,-1.2313,-1.2332,-1.2675,-1.3392,-1.3392,-1.3392,-1.3398,-1.3392,-1.3398,-1.3398,-1.3398,-1.3398,-1.3398,-1.3652,-1.3652,0.0,-1.296,-1.3222,-1.4004,-1.3045,-1.3222,-1.4088,-1.4088,-1.3483,-1.2705,-1.2705,-1.21,-1.1241,-1.1241,-1.1322,-1.1322,-1.1241,-1.1241,-1.1063,-1.0115,-0.9257,-0.8568,-0.8568,-0.8568,-0.8828,-0.9689,-0.9859,-1.0115,-1.1068,-1.1241,-1.1241,-1.1241,-1.1241,-1.0982,-1.0033,-0.9859,-0.9602,-0.874,-0.8568,-0.8568,-0.8568,-0.8568,-0.8568,-0.8568,-0.8568,-0.8568,-0.8568,-0.8568,-0.8568,-0.8568,-0.8568,-0.8568,-0.8568,-0.8568,-0.8568,-0.8568,-0.8568,-0.8568,-0.8568,-0.8568,-0.8568,-0.8572,-0.8739,-0.9007,-0.4836,-0.4821,-0.4872,-0.475,-0.5017,-0.5309,-0.5185,-0.5173,-0.5166,-0.5111,-0.4948,-0.4624,-0.4028,-0.3865,-0.4076,-0.4725,-0.4819,0.0,0.0,0.0,0.0,0.0,0.0,0.0,0.0,0.0,0.0,-1.0293,-1.0067,-1.0293,-1.126,-1.1335,-1.167,-1.2313,-1.2412,-1.2751,-1.3385,-1.3398,-1.3483,-1.3568,-1.3483,-1.3568,-1.3913,-1.3652,-1.3737,-1.3913,-1.3913,-1.3997,-1.3997,-1.3737,-1.3828,-1.4088,-1.3737,-1.3828,-1.4088,-1.4088,-1.3483,-1.2705,-1.2705,-1.21,-1.1413,-1.2015,-1.2272,-1.2357,-1.3052,-1.2357,-1.1241,-1.0977,-1.0636,-1.0463,-1.0463,-1.0463,-1.0549,-1.0809,-1.0895,-1.0977,-1.1241,-1.1327,-1.1327,-1.1327,-1.1327,-1.1241,-1.0895,-1.0895,-1.0722,-1.0463,-0.9859,-0.9515,-0.9515,-0.8999,-0.8568,-0.8568,-0.8568,-0.8568,-0.8568,-0.8568,-0.8568,-0.8568,-0.8568,-0.8568,-0.8568,-0.8568,-0.8568,-0.8568,-0.8568,-0.8568,-0.8568,-0.8568,-0.8625,-0.8747,-0.9047,-0.9246,0.0,-0.5024,-0.51,-0.5023,-0.5278,-0.5575,-0.5536,-0.5369,-0.5264,-0.5222,-0.4994,-0.4595,-0.3957,-0.4005,-0.4305,-0.4812,-0.5161,-0.5504,0.0,0.0,0.0,0.0,0.0,0.0,0.0,0.0,-1.0218,-1.0588,-1.0293,-1.0513,-1.1484,-1.1558,-1.1847,-1.2321,-1.2491,-1.2833,-1.349,-1.349,-1.3633,-1.3822,-1.3737,-1.3828,-1.4088,-1.3913,-1.3913,-1.4088,-1.4088,-1.4088,0.0,-1.4088,-1.4088,-1.4088,-1.4088,-1.4088,-1.4088,-1.4088,-1.3743,-1.3222,-1.3222,-1.2875,-1.2443,-1.3045,-1.3222,-1.3313,-1.3913,-1.3045,-1.1843,-1.1843,-1.158,-1.1327,-1.1327,-1.1327,-1.1408,-1.1752,-1.1911,-1.2042,-1.2295,-1.2433,-1.2475,-1.2381,-1.2357,-1.2272,-1.1929,-1.1843,-1.1671,-1.1322,-1.0463,-1.0028,-1.0539,-0.9428,-0.8911,-0.9767,-0.951,-0.9423,-0.9854,-0.9082,-0.8568,-0.8568,-0.8656,-0.8652,-0.8568,-0.8999,-0.8999,-0.8568,-0.8911,-0.8945,-0.8662,-0.8731,-0.8857,-0.9027,-0.925,-0.9489,0.0,-0.5024,0.0,-0.4961,-0.542,-0.5784,-0.5513,-0.5488,0.0,-0.5231,-0.4982,-0.4587,-0.3888,-0.4388,-0.4802,-0.4558,-0.5375,0.0,0.0,0.0,0.0,0.0,0.0,0.0,0.0,0.0,-1.0887,-1.1632,-1.1037,-1.0887,-1.1706,-1.1929,-1.214,-1.2503,-1.2496,-1.2843,-1.3526,-1.3552,-1.3781,-1.4055,-1.4075,-1.4088,-1.4088,-1.4088,-1.4088,0.0,-1.4088,-1.4088,-1.4088,-1.4088,-1.4088,-1.4088,-1.4088,-1.4088,-1.4088,-1.4088,-1.4088,-1.4088,-1.4088,-1.4088,-1.4088,-1.4088,-1.4166,-1.4173,-1.4173,-1.3476,-1.279,-1.279,-1.2186,-1.1494,-1.1494,-1.1494,-1.1752,-1.2613,-1.3077,-1.338,-1.3998,-1.4435,-1.4462,-1.426,-1.42,-1.3939,-1.2991,-1.2887,-1.254,-1.1716,-1.0738,-1.0549,-1.1671,-1.012,-0.9685,-1.1729,-1.1042,-1.0875,-1.1923,-1.0033,-0.8828,-0.8823,-0.9007,-0.9016,-0.8761,-0.9814,-0.9818,-0.8693,-0.9472,-0.9557,-0.884,-0.9023,-0.9292,-0.9452,-0.9464,-0.966,-0.4497,0.0,-0.4966,-0.4742,-0.495,-0.5147,0.0,-0.5054,-0.5219,-0.4958,-0.4875,-0.4751,-0.4315,-0.4613,-0.4872,-0.4831,-0.5274,-0.5642,0.0,0.0,0.0,0.0,0.0,0.0,0.0,0.0,-1.1484,-1.1706,-1.1484,-1.1558,-1.1929,-1.2003,-1.2109,-1.2337,-1.233,-1.2623,-1.3307,-1.3534,-1.3674,-1.3748,-1.3981,-1.4088,-1.4088,-1.4088,-1.4088,-1.4088,-1.4088,-1.4088,-1.4088,-1.4088,-1.4088,-1.4088,-1.4088,-1.4088,-1.4088,-1.4088,-1.4088,-1.4088,-1.4088,-1.4088,-1.4166,-1.4237,-1.4405,-1.4573,-1.4573,-1.4159,-1.3737,-1.3737,-1.373,-1.3626,-1.3626,-1.3795,-1.3971,-1.4139,-1.4453,-1.4742,-1.494,-1.5168,-1.5293,-1.4981,-1.4926,-1.484,-1.4661,-1.4379,-1.4294,-1.4663,-1.3467,-1.2753,-1.3213,-1.2106,-1.1391,-1.1901,-1.1729,-1.1802,-1.2348,-1.1494,-1.1047,-1.1219,-1.1298,-1.105,-1.0351,-1.0865,-1.0692,-0.9614,-0.9609,-0.9631,-0.9675,-0.9678,-0.9693,-0.9927,-1.0078,-1.0173,-0.421,-0.4557,-0.4915,-0.4663,-0.4786,-0.4915,-0.4851,-0.4927,-0.4982,0.0,0.0,0.0,0.0,0.0,0.0,0.0,-0.5335,0.0,0.0,0.0,0.0,0.0,0.0,0.0,0.0,0.0,-1.1558,-1.1929,-1.1632,-1.1632,-1.2077,-1.215,-1.2157,-1.2305,-1.2305,-1.2525,-1.2993,-1.3153,-1.3373,-1.3566,-1.3808,-1.3955,-1.4088,-1.4088,-1.4088,-1.4088,-1.4088,-1.4088,-1.4088,-1.4088,-1.4088,-1.4088,-1.4088,-1.4088,-1.4088,-1.4088,-1.4166,-1.4243,-1.4243,-1.4328,-1.4412,-1.4482,-1.465,-1.4734,-1.4734,-1.4573,-1.4412,-1.4412,-1.4489,-1.4566,-1.4566,-1.4754,-1.4951,-1.4951,-1.5294,-1.5588,-1.5448,-1.5658,-1.5784,-1.5476,-1.5413,-1.5413,-1.5413,-1.5273,-1.528,-1.5616,-1.4656,-1.4067,-1.4757,-1.3391,-1.2861,-1.3909,-1.3561,-1.3536,-1.4216,-1.3918,-1.3305,-1.251,-1.2549,-1.2355,-1.1817,-1.2037,-1.166,-1.0575,-1.0014,-0.987,-0.9965,-1.0062,-1.0153,-1.025,-1.036,-1.0511,-0.4009,-0.4398,-0.4693,-0.4457,-0.4573,-0.4739,-0.4933,0.0,0.0,0.0,0.0,0.0,0.0,-0.4802,0.0,0.0,0.0,0.0,0.0,0.0,0.0,0.0,0.0,0.0,-1.1774,-1.1552,-1.1558,-1.2231,-1.1706,-1.1558,-1.2224,-1.2305,-1.2305,-1.2305,-1.2305,-1.2425,-1.2755,-1.2802,-1.3026,-1.3581,-1.3539,-1.3801,-1.4088,-1.4088,-1.4088,-1.4088,0.0,0.0,-1.4088,-1.4088,-1.4088,-1.4088,-1.4088,-1.4088,-1.4088,-1.4088,-1.4243,-1.4398,-1.4398,-1.4566,-1.4734,-1.4734,-1.4741,-1.4824,-1.4824,-1.4824,-1.4824,-1.4824,-1.4741,-1.4734,-1.4734,-1.5057,-1.5289,-1.5289,-1.5761,-1.6141,-1.597,-1.6063,-1.619,-1.5977,-1.5913,-1.5913,-1.5913,-1.5878,-1.5878,-1.597,-1.5163,-1.5033,-1.5995,-1.4584,-1.4283,-1.6183,-1.5555,-1.5397,-1.6344,-1.627,-1.5473,-1.3768,-1.3738,-1.3641,-1.3397,-1.3318,-1.2687,-1.1497,-1.083,-1.0345,-1.0254,-1.0427,-1.0511,-1.0511,-1.0511,-1.0609,-0.3509,-0.3801,-0.3978,-0.3651,-0.3676,-0.3893,-0.4342,-0.469,0.0,0.0,0.0,0.0,0.0,-0.533,-0.5181,0.0,0.0,0.0,0.0,0.0,0.0,0.0,0.0,-0.9895,-1.0045,-1.1323,-1.215,-1.2298,-1.2157,-1.215,-1.2298,-1.2305,-1.2305,-1.2305,-1.2305,-1.2325,-1.2371,-1.2694,-1.2926,-1.328,-1.3527,-1.3801,-1.4088,-1.4088,-1.4088,-1.4088,0.0,-1.4088,-1.4088,-1.4088,-1.4088,-1.4088,-1.4088,-1.4088,-1.4088,-1.4088,-1.4088,-1.4166,-1.4314,-1.4657,-1.5006,-1.5006,-1.5173,-1.5257,-1.5257,-1.5257,-1.5257,-1.5257,-1.5173,-1.5006,-1.5006,-1.5411,-1.5827,-1.5827,-1.6308,-1.6752,-1.6701,-1.6941,-1.7065,-1.6752,-1.6693,-1.6693,-1.6693,-1.6461,-1.6468,-1.7006,-1.653,-1.6284,-1.6657,-1.626,-1.6006,-1.6367,-1.6279,-1.6299,-1.6755,-1.6784,-1.6711,-1.6686,-1.6281,-1.5793,-1.5363,-1.4527,-1.3576,-1.2528,-1.2174,-1.1614,-1.1049,-1.0788,-1.0904,-1.1096,-1.1096,-1.11,-0.3135,-0.3236,-0.3313,-0.3463,-0.3808,-0.4128,-0.4252,-0.467,0.0,0.0,0.0,0.0,0.0,0.0,-0.5196,0.0,0.0,-0.5627,-0.599,-0.6408,-0.6859,0.0,0.0,-1.0045,-1.0351,-1.1552,-1.2305,-1.2305,-1.2305,-1.2305,-1.2305,-1.2305,-1.2305,-1.2305,-1.2305,-1.2305,-1.2305,-1.2438,-1.2659,-1.2966,-1.3267,-1.3561,-1.3854,-1.4015,-1.4088,-1.4088,0.0,-1.4088,-1.4088,-1.4088,-1.4088,-1.4088,-1.4088,-1.4088,-1.4173,-1.4328,-1.4496,-1.4671,-1.4831,-1.5082,-1.5264,-1.5264,-1.5347,-1.5431,-1.5431,-1.5431,-1.5431,-1.5431,-1.534,-1.53,-1.5474,-1.5835,-1.6206,-1.6382,-1.6777,-1.7113,-1.7113,-1.7223,-1.7282,-1.7135,-1.7113,-1.7113,-1.7113,-1.6989,-1.6989,-1.7282,-1.7077,-1.6938,-1.7091,-1.6982,-1.6887,-1.6887,-1.6887,-1.6952,-1.7099,-1.7113,-1.7172,-1.7318,-1.7101,-1.6614,-1.5792,-1.5317,-1.4358,-1.2727,-1.2533,-1.2058,-1.1194,-1.1096,-1.1096,-1.1194,-1.1194,-1.1194,-0.2874,-0.2874,-0.2877,-0.346,-0.3902,-0.4268,-0.4479,-0.4783,0.0,0.0,0.0,0.0,0.0,0.0,0.0,-0.5566,-0.5754,-0.5907,-0.6201,-0.6539,-0.6982,-0.7797,-0.9056,-1.006,-1.0726,-1.1706,-1.2305,-1.2305,-1.2305,-1.2305,-1.2305,-1.2305,-1.2305,-1.2305,-1.2305,-1.2305,-1.2305,-1.2305,-1.2452,-1.2829,-1.2986,-1.326,-1.3554,-1.3848,-1.3981,-1.3988,-1.4055,-1.4088,-1.4088,-1.4088,-1.4166,-1.4166,-1.4166,-1.4166,-1.425,-1.4573,-1.4908,-1.509,-1.5257,-1.5347,-1.5431,-1.5431,-1.5431,-1.5431,-1.5431,-1.5431,-1.5431,-1.5431,-1.5431,-1.5489,-1.5738,-1.6082,-1.6433,-1.6682,-1.704,-1.7326,-1.7326,-1.7326,-1.7326,-1.7326,-1.7326,-1.7326,-1.7326,-1.7326,-1.7326,-1.7326,-1.7326,-1.7326,-1.7326,-1.7326,-1.7326,-1.7326,-1.7326,-1.7326,-1.7326,-1.7326,-1.7326,-1.7326,-1.7326,-1.6943,-1.6177,-1.6177,-1.5222,-1.3113,-1.3113,-1.2446,-1.1194,-1.1194,-1.1194,-1.1194,-1.1194,-1.1194,-0.2829,-0.2883,-0.3002,-0.3495,-0.3473,-0.3702,-0.4861,-0.5031,0.0,-0.5793,0.0,0.0,0.0,-0.5441,0.0,-0.5652,-0.596,-0.6205,-0.6375,0.0,-0.6773,-0.7074,-0.8563,-0.9732,-0.9948,-1.1397,-1.2305,-1.2305,-1.2305,-1.2305,-1.2305,-1.2305,-1.2305,-1.2305,-1.2305,-1.2305,-1.2305,-1.2305,-1.2452,-1.2822,-1.2842,-1.2946,-1.3253,-1.354,-1.3674,-1.3687,-1.3968,-1.4088,-1.4088,-1.4088,-1.4243,-1.4398,-1.4398,-1.4482,-1.465,-1.4657,-1.4908,-1.509,-1.509,-1.5257,-1.5431,-1.5431,-1.5431,-1.5431,-1.5431,-1.5431,-1.5431,-1.5431,-1.5431,-1.5431,-1.546,-1.5913,-1.6374,-1.6396,-1.6879,-1.7326,-1.7326,-1.7326,-1.7326,-1.7326,-1.7326,-1.7326,-1.7326,-1.7326,-1.7326,-1.7326,-1.7326,-1.7326,-1.7326,-1.7326,-1.7326,-1.7326,-1.7326,-1.7326,-1.7326,-1.7326,-1.7326,-1.7326,-1.7326,-1.7232,-1.7232,-1.7232,-1.6271,-1.4268,-1.4172,-1.321,-1.1194,-1.1194,-1.1194,-1.1194,-1.1194,-1.1194,-0.2617,-0.2763,-0.3018,-0.3526,-0.3745,0.0,0.0,-0.4964,-0.5333,-0.545,-0.5521,0.0,0.0,0.0,-0.5751,-0.5816,-0.6128,-0.6339,-0.6408,-0.657,-0.6708,-0.6773,-0.8348,-0.9427,-0.9658,-1.1149,-1.2104,-1.2285,-1.2305,-1.2305,-1.2305,-1.2305,-1.2305,-1.2305,-1.2305,-1.2305,-1.2305,-1.2305,-1.2358,-1.2472,-1.2735,-1.2882,-1.2933,-1.324,-1.3548,-1.3886,-1.4001,-1.4234,-1.4489,-1.4489,-1.4489,-1.4566,-1.4566,-1.4741,-1.4915,-1.4915,-1.509,-1.5264,-1.5264,-1.5347,-1.5431,-1.5431,-1.5431,-1.5431,-1.5431,-1.5431,-1.5431,-1.5431,-1.5431,-1.5474,-1.5679,-1.6045,-1.6418,-1.6623,-1.7004,-1.7326,-1.7326,-1.7326,-1.7326,-1.7326,-1.7326,-1.7326,-1.7326,-1.7326,-1.7326,-1.7326,-1.7326,-1.7326,-1.7326,-1.7326,-1.7326,-1.7326,-1.7326,-1.7326,-1.7326,-1.7326,-1.7326,-1.7326,-1.7326,-1.7326,-1.7326,-1.7326,-1.6662,-1.5222,-1.5222,-1.4166,-1.2155,-1.2155,-1.177,-1.1194,-1.1194,-1.1194,-0.262,-0.2769,-0.3039,-0.3634,0.0,0.0,-0.4396,-0.4958,-0.5429,-0.5312,-0.5381,-0.5538,-0.5478,0.0,0.0,0.0,-0.6349,-0.6482,-0.6745,-0.6651,-0.6683,-0.701,-0.8236,-0.9249,-0.9773,-1.0941,-1.185,-1.2144,-1.2164,-1.2204,-1.2298,-1.2305,-1.2305,-1.2305,-1.2305,-1.2305,-1.2378,-1.2378,-1.2452,-1.2526,-1.2736,-1.2832,-1.277,-1.3081,-1.3403,-1.3753,-1.3929,-1.4144,-1.4594,-1.4594,-1.465,-1.4824,-1.4915,-1.4999,-1.5173,-1.5173,-1.5257,-1.5431,-1.5431,-1.5431,-1.5431,-1.5431,-1.5431,-1.5431,-1.5431,-1.5431,-1.5431,-1.5431,-1.5431,-1.5482,-1.5701,-1.6067,-1.6426,-1.6645,-1.7026,-1.7326,-1.7326,-1.7326,-1.7326,-1.7326,-1.7326,-1.7326,-1.7326,-1.7326,-1.7326,-1.7326,-1.7326,-1.7326,-1.7326,-1.7326,-1.7326,-1.7326,-1.7326,-1.7326,-1.7326,-1.7326,-1.7326,-1.7326,-1.7326,-1.7326,-1.7326,-1.7326,-1.685,-1.5798,-1.5798,-1.4937,-1.321,-1.321,-1.2829,-1.2155,-1.2155,-1.1965,-0.2882,-0.2898,-0.3093,0.0,0.0,0.0,-0.4786,-0.5057,-0.5294,-0.5522,-0.5509,-0.5506,-0.5856,0.0,0.0,-0.704,-0.6741,-0.6679,-0.7391,-0.6872,-0.6751,-0.7613,-0.8435,-0.927,-1.0083,-1.0936,-1.1543,-1.1844,-1.1864,-1.1991,-1.2278,-1.2298,-1.2298,-1.2298,-1.2298,-1.2378,-1.2599,-1.2599,-1.2673,-1.29,-1.29,-1.282,-1.2606,-1.3058,-1.3272,-1.3293,-1.3677,-1.3992,-1.4279,-1.4279,-1.4632,-1.5082,-1.534,-1.5431,-1.5431,-1.5431,-1.5431,-1.5431,-1.5431,-1.5431,-1.5431,-1.5431,-1.5431,-1.5431,-1.5431,-1.5431,-1.5431,-1.5431,-1.5431,-1.5431,-1.5431,-1.5899,-1.6367,-1.6367,-1.6857,-1.7326,-1.7326,-1.7326,-1.7326,-1.7326,-1.7326,-1.7326,-1.7326,-1.7326,-1.7326,-1.7326,-1.7326,-1.7326,-1.7326,-1.7326,-1.7326,-1.7326,-1.7326,-1.7326,-1.7326,-1.7326,-1.7326,-1.7326,-1.7326,-1.7326,-1.7326,-1.7326,-1.685,-1.5798,-1.5798,-1.5317,-1.4268,-1.4268,-1.4268,-1.4268,-1.4268,-1.3692,-0.2673,-0.296,0.0,-0.3727,0.0,0.0,0.0,-0.5361,0.0,0.0,-0.5867,-0.5789,-0.59,0.0,0.0,-0.6446,-0.6423,-0.6482,-0.6679,-0.6548,-0.67,-0.748,-0.8204,-0.9013,-0.9946,-1.0715,-1.1243,-1.1536,-1.1557,-1.1597,-1.1683,-1.2026,-1.222,-1.222,-1.2563,-1.2746,-1.2826,-1.2826,-1.2826,-1.29,-1.3046,-1.3046,-1.2826,-1.2991,-1.3227,-1.3596,-1.3689,-1.3994,-1.4468,-1.4604,-1.4837,-1.5027,-1.526,-1.5431,-1.5431,-1.5431,-1.5431,-1.5431,-1.5431,-1.5431,-1.5431,-1.5431,-1.5431,-1.5431,-1.5431,-1.5431,-1.5431,-1.5431,-1.5431,-1.5431,-1.5431,-1.5738,-1.6104,-1.6316,-1.6689,-1.7055,-1.7282,-1.7326,-1.7326,-1.7326,-1.7326,-1.7326,-1.7326,-1.7326,-1.7326,-1.7326,-1.7326,-1.7326,-1.7326,-1.7326,-1.7326,-1.7326,-1.7326,-1.7326,-1.7326,-1.7326,-1.7326,-1.7326,-1.7326,-1.7326,-1.7326,-1.7326,-1.7138,-1.685,-1.685,-1.6372,-1.5317,-1.5317,-1.5032,-1.4268,-1.4268,-1.4172,-0.2996,-0.3316,0.0,-0.406,-0.4557,-0.506,-0.5259,0.0,0.0,0.0,0.0,-0.6014,-0.6107,-0.6124,0.0,-0.6685,-0.6542,-0.6482,-0.6806,-0.6613,-0.6745,-0.7777,-0.8231,-0.8933,-1.0139,-1.062,-1.0942,-1.1229,-1.1249,-1.1303,-1.1485,-1.1805,-1.2102,-1.2289,-1.2541,-1.2774,-1.3046,-1.3046,-1.3046,-1.3119,-1.3273,-1.3273,-1.3119,-1.3119,-1.33,-1.3643,-1.3773,-1.4015,-1.4304,-1.4618,-1.475,-1.4787,-1.5109,-1.5233,-1.5248,-1.5379,-1.5431,-1.5431,-1.5431,-1.5431,-1.5431,-1.5431,-1.5431,-1.5431,-1.5431,-1.5431,-1.5431,-1.5431,-1.5431,-1.5431,-1.5431,-1.5577,-1.5804,-1.6111,-1.6528,-1.6908,-1.7099,-1.7238,-1.7326,-1.7326,-1.7326,-1.7326,-1.7326,-1.7326,-1.7326,-1.7326,-1.7326,-1.7326,-1.7326,-1.7326,-1.7326,-1.7326,-1.7326,-1.7326,-1.7326,-1.7326,-1.7326,-1.7326,-1.7326,-1.7326,-1.7326,-1.7326,-1.7326,-1.7326,-1.7326,-1.7037,-1.6372,-1.6372,-1.6082,-1.5507,-1.5507,-1.5317,-0.3538,0.0,0.0,-0.4657,-0.4852,0.0,-0.5454,-0.573,-0.5917,-0.617,0.0,-0.6285,-0.6388,-0.6346,-0.654,-0.7298,-0.6937,-0.6811,-0.7391,-0.7003,-0.7064,-0.8425,-0.8619,-0.9134,-1.0498,-1.0624,-1.0732,-1.0935,-1.0949,-1.1201,-1.1607,-1.1716,-1.1923,-1.234,-1.2375,-1.2685,-1.315,-1.315,-1.3317,-1.3492,-1.3492,-1.3492,-1.3492,-1.3492,-1.3492,-1.3514,-1.3806,-1.3938,-1.396,-1.4289,-1.4421,-1.4457,-1.4779,-1.4918,-1.4977,-1.5277,-1.5401,-1.5431,-1.5431,-1.5431,-1.5431,-1.5431,-1.5431,-1.5431,-1.5431,-1.5431,-1.5431,-1.5431,-1.5431,-1.5431,-1.5431,-1.5431,-1.5504,-1.5804,-1.633,-1.6777,-1.6806,-1.7062,-1.7282,-1.7282,-1.7311,-1.7326,-1.7326,-1.7326,-1.7326,-1.7326,-1.7326,-1.7326,-1.7326,-1.7326,-1.7326,-1.7326,-1.7326,-1.7326,-1.7326,-1.7326,-1.7326,-1.7326,-1.7326,-1.7326,-1.7326,-1.7326,-1.7326,-1.7326,-1.7326,-1.7326,-1.7326,-1.7326,-1.7326,-1.7326,-1.7326,-1.685,-0.314,-0.3582,0.0,0.0,-0.4952,-0.5257,-0.5337,-0.5543,-0.5762,-0.6141,-0.6258,-0.6371,-0.6412,-0.6841,-0.708,-0.6671,-0.7456,-0.7907,-0.7521,-0.7842,-0.8361,-0.9198,-0.9262,-0.9652,-1.0491,-1.0624,-1.0651,-1.0832,-1.0839,-1.093,-1.1191,-1.1551,-1.1845,-1.1909,-1.2287,-1.2644,-1.304,-1.304,-1.3171,-1.3492,-1.3492,-1.3492,-1.3492,-1.3492,-1.3492,-1.3499,-1.3572,-1.3601,-1.3623,-1.3953,-1.4084,-1.4121,-1.4443,-1.4721,-1.4867,-1.5021,-1.5211,-1.5431,-1.5431,-1.5431,-1.5431,-1.5431,-1.5431,-1.5431,-1.5431,-1.5431,-1.5431,-1.5431,-1.5431,-1.5431,-1.5431,-1.5431,-1.5445,-1.5518,-1.5833,-1.6184,-1.6418,-1.6726,-1.696,-1.696,-1.7157,-1.7326,-1.7326,-1.7326,-1.7326,-1.7326,-1.7326,-1.7326,-1.7326,-1.7326,-1.7326,-1.7326,-1.7326,-1.7326,-1.7326,-1.7326,-1.7326,-1.7326,-1.7326,-1.7326,-1.7326,-1.7326,-1.7326,-1.7326,-1.7326,-1.7326,-1.7326,-1.7326,-1.7326,-1.7326,-1.7326,-1.7138,-0.324,0.0,0.0,-0.486,0.0,-0.5297,-0.5297,-0.543,-0.5665,-0.5852,-0.6099,-0.6314,-0.64,-0.7003,-0.7391,-0.7003,-0.7842,-0.8361,-0.8037,-0.8296,-0.8748,-0.939,-0.9518,-0.9843,-1.0618,-1.0681,-1.0744,-1.0933,-1.0933,-1.0996,-1.1185,-1.1404,-1.1689,-1.1906,-1.2138,-1.2445,-1.2775,-1.2928,-1.3097,-1.3265,-1.3418,-1.3492,-1.3492,-1.3492,-1.3702,-1.4049,-1.4049,-1.4049,-1.4065,-1.4248,-1.4103,-1.3784,-1.4106,-1.434,-1.4516,-1.4831,-1.4969,-1.5218,-1.5372,-1.5431,-1.5431,-1.5431,-1.5431,-1.5431,-1.5431,-1.5431,-1.5431,-1.5431,-1.5431,-1.5431,-1.5431,-1.5431,-1.5431,-1.5431,-1.5679,-1.5965,-1.6118,-1.6521,-1.6857,-1.6857,-1.7113,-1.7326,-1.7326,-1.7326,-1.7326,-1.7326,-1.7326,-1.7326,-1.7326,-1.7326,-1.7326,-1.7326,-1.7326,-1.7326,-1.7326,-1.7326,-1.7326,-1.7326,-1.7326,-1.7326,-1.7326,-1.7326,-1.7326,-1.7326,-1.7326,-1.7326,-1.7326,-1.7326,-1.7326,-1.7326,-1.7326,-1.7326,-0.3329,0.0,-0.457,-0.5128,-0.5277,0.0,-0.5297,-0.5406,-0.5575,-0.5604,-0.5872,-0.6219,-0.6339,-0.695,-0.7478,-0.7517,-0.8166,-0.8683,-0.8683,-0.8812,-0.9069,-0.9652,-0.9709,-1.0034,-1.0737,-1.0807,-1.0933,-1.1122,-1.1122,-1.1185,-1.1373,-1.1365,-1.1551,-1.1941,-1.1955,-1.2109,-1.2438,-1.2701,-1.2939,-1.306,-1.3465,-1.3585,-1.3492,-1.3637,-1.4049,-1.4601,-1.4601,-1.4601,-1.4601,-1.4744,-1.433,-1.3732,-1.4156,-1.4224,-1.4268,-1.4724,-1.4918,-1.4903,-1.5248,-1.5379,-1.5431,-1.5431,-1.5431,-1.5431,-1.5431,-1.5431,-1.5431,-1.5431,-1.5431,-1.5431,-1.5431,-1.5431,-1.5431,-1.5431,-1.5635,-1.5833,-1.5833,-1.6323,-1.6769,-1.6769,-1.7069,-1.7326,-1.7326,-1.7326,-1.7326,-1.7326,-1.7326,-1.7326,-1.7326,-1.7326,-1.7326,-1.7326,-1.7326,-1.7326,-1.7326,-1.7326,-1.7326,-1.7326,-1.7326,-1.7326,-1.7326,-1.7326,-1.7326,-1.7326,-1.7326,-1.7326,-1.7326,-1.7326,-1.7326,-1.7326,-1.7326,-1.7326,0.0,0.0,-0.459,0.0,-0.5238,-0.5297,0.0,0.0,-0.5374,0.0,-0.5778,-0.5977,-0.6211,-0.6804,-0.7302,-0.7493,-0.8549,-0.939,-0.939,-0.9907,-1.0364,-1.0428,-1.0555,-1.0674,-1.08,-1.0933,-1.1122,-1.124,-1.124,-1.1365,-1.156,-1.156,-1.1582,-1.1626,-1.1626,-1.178,-1.2029,-1.208,-1.2564,-1.3447,-1.3791,-1.3775,-1.3492,-1.4186,-1.4537,-1.4601,-1.4601,-1.4601,-1.4673,-1.5313,-1.5108,-1.4537,-1.5237,-1.5227,-1.4926,-1.502,-1.4979,-1.4867,-1.4911,-1.5196,-1.5431,-1.5431,-1.5431,-1.5431,-1.5431,-1.5431,-1.5431,-1.5431,-1.5431,-1.5431,-1.5431,-1.5431,-1.5431,-1.5431,-1.546,-1.5496,-1.5496,-1.5987,-1.6433,-1.6433,-1.6916,-1.7326,-1.7326,-1.7326,-1.7326,-1.7326,-1.7326,-1.7326,-1.7326,-1.7326,-1.7326,-1.7326,-1.7326,-1.7326,-1.7326,-1.7326,-1.7326,-1.7326,-1.7326,-1.7326,-1.7326,-1.7326,-1.7326,-1.7326,-1.7326,-1.7326,-1.7326,-1.7326,-1.7326,-1.7326,-1.7326,-1.7326,-0.317,-0.3731,-0.4247,0.0,-0.5141,-0.5226,-0.5277,0.0,-0.5321,-0.5394,-0.5474,-0.5673,-0.5949,-0.6843,-0.7639,-0.787,-0.8982,-0.9925,-1.0078,-1.0428,-1.0624,-1.0681,-1.0744,-1.0863,-1.1059,-1.1178,-1.131,-1.1435,-1.1498,-1.1498,-1.1622,-1.1622,-1.1622,-1.1622,-1.1622,-1.1626,-1.1765,-1.2319,-1.3097,-1.404,-1.3862,-1.3989,-1.4401,-1.4315,-1.463,-1.5242,-1.5666,-1.5877,-1.5948,-1.6228,-1.5948,-1.5251,-1.5604,-1.5342,-1.4855,-1.5054,-1.4942,-1.4699,-1.4882,-1.516,-1.5431,-1.5431,-1.5431,-1.5431,-1.5431,-1.5431,-1.5431,-1.5431,-1.5431,-1.5431,-1.5431,-1.5431,-1.5431,-1.5431,-1.5431,-1.5431,-1.5431,-1.5921,-1.6477,-1.6835,-1.7135,-1.7326,-1.7326,-1.7326,-1.7326,-1.7326,-1.7326,-1.7326,-1.7326,-1.7326,-1.7326,-1.7326,-1.7326,-1.7326,-1.7326,-1.7326,-1.7326,-1.7326,-1.7326,-1.7326,-1.7326,-1.7326,-1.7326,-1.7326,-1.7326,-1.7326,-1.7326,-1.7326,-1.7326,-1.7326,-1.7326,-1.7326,0.0,0.0,-0.3845,-0.4641,-0.4909,-0.506,0.0,0.0,-0.5297,0.0,-0.5297,-0.5378,-0.5701,-0.6542,-0.7408,-0.7995,-0.8896,-0.9736,-1.0401,-1.0448,-1.0537,-1.0793,-1.087,-1.0996,-1.124,-1.1365,-1.1428,-1.156,-1.1622,-1.1622,-1.1622,-1.1622,-1.1622,-1.1622,-1.1622,-1.1685,-1.1856,-1.2845,-1.3722,-1.4374,-1.4023,-1.428,-1.4976,-1.479,-1.5189,-1.6017,-1.6609,-1.6932,-1.6941,-1.7148,-1.6793,-1.6097,-1.6306,-1.5877,-1.5275,-1.5259,-1.5087,-1.4842,-1.4786,-1.5117,-1.5486,-1.5477,-1.5506,-1.559,-1.559,-1.5514,-1.5514,-1.5514,-1.5431,-1.5431,-1.5514,-1.5514,-1.5514,-1.5506,-1.5506,-1.5467,-1.5628,-1.5994,-1.6491,-1.7194,-1.7326,-1.7326,-1.7326,-1.7326,-1.7326,-1.7326,-1.7326,-1.7326,-1.7326,-1.7326,-1.7326,-1.7326,-1.7326,-1.7326,-1.7326,-1.7326,-1.7326,-1.7326,-1.7326,-1.7326,-1.7326,-1.7326,-1.7326,-1.7326,-1.7326,-1.7326,-1.7326,-1.7326,-1.7326,-1.7326,-1.7326,-1.7326,0.0,-0.2985,0.0,-0.3935,-0.4447,0.0,0.0,0.0,0.0,-0.5297,-0.5297,-0.5305,-0.5321,-0.5515,-0.62,-0.7575,-0.7849,-0.8414,-0.9912,-1.014,-1.0302,-1.0773,-1.0996,-1.1122,-1.131,-1.1498,-1.156,-1.1622,-1.1622,-1.1622,-1.1622,-1.1622,-1.1622,-1.1622,-1.1622,-1.1856,-1.2451,-1.3752,-1.4284,-1.4047,-1.4595,-1.479,-1.478,-1.5894,-1.6476,-1.6627,-1.6825,-1.7001,-1.7148,-1.791,-1.7774,-1.7079,-1.7852,-1.7706,-1.6862,-1.5974,-1.5652,-1.5502,-1.4749,-1.5016,-1.5579,-1.5636,-1.5831,-1.6087,-1.6087,-1.6012,-1.5846,-1.5846,-1.568,-1.5431,-1.5763,-1.5846,-1.5839,-1.5741,-1.565,-1.5829,-1.6271,-1.6271,-1.6316,-1.7165,-1.7326,-1.7326,-1.7326,-1.7326,-1.7326,-1.7326,-1.7326,-1.7326,-1.7326,-1.7326,-1.7326,-1.7326,-1.7326,-1.7326,-1.7326,-1.7326,-1.7326,-1.7326,-1.7326,-1.7326,-1.7326,-1.7326,-1.7326,-1.7326,-1.7326,-1.7326,-1.7326,-1.7326,-1.7326,-1.7326,-1.7326,-1.7326,0.0,0.0,0.0,-0.3665,-0.4154,-0.454,-0.4836,-0.5137,-0.5297,-0.5297,-0.5297,-0.5297,-0.5297,-0.6004,-0.6784,-0.7515,-0.824,-0.8972,-0.9852,-1.018,-1.0397,-1.0744,-1.1057,-1.131,-1.1498,-1.156,-1.1622,-1.1622,-1.1622,-1.1622,-1.1622,-1.1622,-1.1622,-1.1622,-1.1622,-1.2112,-1.313,-1.4043,-1.4602,-1.492,-1.48,-1.5135,-1.5723,-1.5864,-1.6488,-1.7484,-1.751,-1.7744,-1.7988,-1.8337,-1.8269,-1.8056,-1.8337,-1.7978,-1.7198,-1.6367,-1.5905,-1.5618,-1.5104,-1.5222,-1.5637,-1.589,-1.5922,-1.6012,-1.6012,-1.6012,-1.6012,-1.6012,-1.5756,-1.5514,-1.5922,-1.6087,-1.6087,-1.6004,-1.5997,-1.6263,-1.6752,-1.6572,-1.6469,-1.7186,-1.7326,-1.7326,-1.7326,-1.7326,-1.7326,-1.7326,-1.7326,-1.7326,-1.7326,-1.7326,-1.7326,-1.7326,-1.7326,-1.7326,-1.7326,-1.7326,-1.7326,-1.7326,-1.7326,-1.7326,-1.7326,-1.7326,-1.7326,-1.7326,-1.7326,-1.7326,-1.7326,-1.7326,-1.7326,-1.7326,-1.7326,-1.7326,-0.2507,0.0,0.0,0.0,0.0,-0.4134,-0.4609,0.0,-0.5132,-0.5197,-0.5257,-0.5297,-0.5297,-0.6273,-0.7133,-0.7345,-0.7982,-0.8799,-0.9599,-0.9932,-1.0207,-1.06,-1.0952,-1.1207,-1.1399,-1.1556,-1.1622,-1.1622,-1.1622,0.0,-1.1622,-1.1622,-1.1685,-1.1919,-1.2104,-1.2781,-1.3812,-1.4469,-1.5059,-1.5478,-1.5186,-1.5458,-1.6208,-1.6097,-1.6614,-1.76,-1.7958,-1.8268,-1.8617,-1.8617,-1.8617,-1.8617,-1.8617,-1.8327,-1.7755,-1.6715,-1.6254,-1.602,-1.5229,-1.5203,-1.5699,-1.5975,-1.6078,-1.617,-1.617,-1.6252,-1.6335,-1.6335,-1.6087,-1.5922,-1.6245,-1.6335,-1.6409,-1.6335,-1.6252,-1.6292,-1.673,-1.6563,-1.6557,-1.7201,-1.7326,-1.7326,-1.7326,-1.7326,-1.7326,-1.7326,-1.7326,-1.7326,-1.7326,-1.7326,-1.7326,-1.7326,-1.7326,-1.7326,-1.7326,-1.7613,-1.78,-1.78,-1.7606,-1.7512,-1.7512,-1.7333,-1.7326,-1.7326,-1.7326,-1.7326,-1.7326,-1.7326,-1.7326,-1.7326,-1.7326,-1.7326,0.0,0.0,0.0,0.0,0.0,0.0,-0.4312,0.0,-0.4836,-0.5031,-0.5214,-0.5285,-0.5297,-0.6273,-0.7085,-0.7085,-0.7139,-0.7703,-0.9172,-0.9391,-0.9611,-1.0244,-1.0623,-1.0876,-1.1063,-1.1409,-1.1593,-1.1593,-1.1593,-1.1593,-1.1593,-1.1593,-1.1834,-1.2496,-1.3122,-1.3795,-1.4469,-1.5118,-1.5478,-1.5672,-1.5672,-1.5836,-1.6124,-1.6573,-1.6847,-1.7028,-1.7978,-1.8555,-1.8787,-1.8808,-1.8808,-1.8808,-1.8808,-1.8808,-1.8596,-1.6932,-1.6585,-1.6709,-1.5169,-1.5078,-1.5729,-1.5866,-1.6299,-1.673,-1.673,-1.673,-1.673,-1.673,-1.673,-1.673,-1.673,-1.673,-1.673,-1.673,-1.6409,-1.6087,-1.6087,-1.6249,-1.6625,-1.7201,-1.7326,-1.7326,-1.7326,-1.7326,-1.7326,-1.7326,-1.7326,-1.7326,-1.7326,-1.7326,-1.7326,-1.7326,-1.7326,-1.7326,-1.7326,-1.8265,-1.8827,-1.8827,-1.8172,-1.7792,-1.78,-1.7512,-1.7326,-1.7326,-1.7326,-1.7326,-1.7326,-1.7333,-1.7326,-1.7326,-1.7326,-1.7326,-0.2428,0.0,0.0,0.0,0.0,0.0,0.0,0.0,0.0,-0.4792,-0.4922,-0.5035,-0.5249,-0.5946,-0.6642,-0.7182,-0.7937,-0.8712,-0.9323,-0.958,-0.9866,-1.0111,-1.0464,-1.0661,-1.0719,-1.0799,-1.0858,0.0,-1.0858,-1.0858,-1.0858,-1.0858,-1.1255,-1.2087,-1.2806,-1.3582,-1.4469,-1.5118,-1.5478,-1.5672,-1.5798,-1.5904,-1.6124,-1.6382,-1.6677,-1.7018,-1.7657,-1.8101,-1.8534,-1.8874,-1.9008,-1.9008,-1.9008,-1.9008,-1.8865,-1.7891,-1.7276,-1.6778,-1.6046,-1.5593,-1.5419,-1.5937,-1.6364,-1.673,-1.673,-1.673,-1.673,-1.673,-1.673,-1.673,-1.673,-1.673,-1.673,-1.673,-1.6566,-1.6492,-1.6492,-1.6557,-1.6776,-1.7206,-1.7326,-1.7326,-1.7326,-1.7326,-1.7326,-1.7326,-1.7893,-1.8079,-1.7419,-1.7986,-1.8365,-1.8365,-1.8365,-1.8365,-1.8365,-1.8643,-1.8827,-1.8827,-1.8357,-1.8079,-1.7994,-1.7893,-1.78,-1.7699,-1.78,-1.7893,-1.7893,-1.752,-1.7326,-1.7326,-1.7326,-1.7326,0.0,0.0,0.0,0.0,0.0,0.0,-0.3569,-0.3926,0.0,0.0,-0.4698,-0.4919,-0.5288,-0.5967,-0.6659,-0.7344,-0.8384,-0.9159,-0.9361,-0.9571,-0.9739,-0.9899,-1.0185,-1.0382,-1.0382,-1.0507,-1.0587,-1.0587,-1.0587,-1.0587,-1.0587,-1.0587,-1.1069,-1.2135,-1.2544,-1.3274,-1.4308,-1.4945,-1.5328,-1.5509,-1.5813,-1.6077,-1.6249,-1.6374,-1.6519,-1.6788,-1.7243,-1.7698,-1.8143,-1.8599,-1.8889,-1.9075,-1.9075,-1.9075,-1.8998,-1.824,-1.755,-1.683,-1.6297,-1.5698,-1.5253,-1.565,-1.6214,-1.673,-1.673,-1.673,-1.673,-1.673,-1.673,-1.673,-1.673,-1.673,-1.673,-1.673,-1.673,-1.673,-1.673,-1.673,-1.6975,-1.7812,-1.7613,-1.7326,-1.7326,-1.7606,-1.7893,-1.7893,-1.845,-1.8542,-1.7986,-1.8458,-1.8827,-1.8827,-1.8827,-1.8827,-1.8827,-1.8827,-1.8827,-1.8827,-1.8458,-1.8265,-1.8179,-1.8179,-1.8172,-1.7986,-1.7986,-1.7994,-1.8087,-1.7707,-1.7426,-1.7326,-1.7326,-1.7326,0.0,0.0,0.0,0.0,0.0,0.0,-0.3704,-0.4112,-0.4523,0.0,-0.4558,-0.4887,-0.5408,-0.618,-0.694,-0.7486,-0.8466,-0.9169,-0.9354,-0.9413,-0.9465,-0.9562,-0.987,-1.0046,-1.0046,-1.0309,-1.0477,-1.0477,-1.0477,-1.0477,-1.0477,-1.0477,-1.1056,-1.2329,-1.2384,-1.295,-1.4131,-1.4735,-1.5119,-1.534,-1.5843,-1.6181,-1.6384,-1.6384,-1.6384,-1.6405,-1.685,-1.7214,-1.7637,-1.8175,-1.8651,-1.9075,-1.9075,-1.9075,-1.8998,-1.8375,-1.7696,-1.6932,-1.6245,-1.5707,-1.5274,-1.5314,-1.5886,-1.6579,-1.6698,-1.673,-1.673,-1.673,-1.673,-1.673,-1.673,-1.673,-1.673,-1.673,-1.673,-1.673,-1.673,-1.673,-1.7151,-1.8557,-1.7986,-1.7333,-1.7419,-1.8172,-1.8827,-1.8827,-1.8827,-1.8827,-1.8827,-1.8827,-1.8827,-1.8827,-1.8827,-1.8827,-1.8827,-1.8827,-1.8827,-1.8827,-1.8542,-1.8357,-1.8357,-1.8357,-1.8357,-1.8357,-1.8079,-1.7986,-1.8179,-1.7986,-1.7707,-1.7426,-1.7326,-1.7333,-0.4192,0.0,0.0,0.0,0.0,0.0,-0.37,-0.4199,-0.4813,0.0,-0.4536,-0.4573,-0.5237,-0.5844,-0.6422,-0.6886,-0.7937,-0.8887,-0.9325,-0.951,-0.9562,-0.9614,-0.9672,-0.9709,-0.9709,-0.9768,-0.9804,-0.9804,-0.9804,-0.9804,-0.9804,-0.9804,-1.0455,-1.1971,-1.2095,-1.2823,-1.4247,-1.4855,-1.523,-1.5385,-1.5889,-1.6181,-1.6384,-1.6384,-1.6384,-1.6405,-1.685,-1.7028,-1.7172,-1.805,-1.8651,-1.9075,-1.9075,-1.9075,-1.9065,-1.8931,-1.8452,-1.7755,-1.7619,-1.6709,-1.572,-1.6024,-1.5831,-1.5642,-1.6484,-1.673,-1.673,-1.673,-1.673,-1.673,-1.673,-1.673,-1.673,-1.673,-1.673,-1.673,-1.673,-1.673,-1.7151,-1.8557,-1.7986,-1.752,-1.8357,-1.8643,-1.8827,-1.8827,-1.8827,-1.8827,-1.8827,-1.8827,-1.8827,-1.8827,-1.8827,-1.8827,-1.8827,-1.8827,-1.8827,-1.8827,-1.8735,-1.8735,-1.8735,-1.8735,-1.8735,-1.8735,-1.8643,-1.8643,-1.8643,-1.8265,-1.7986,-1.7893,-1.7512,-1.7549,-0.4826,0.0,0.0,-0.4249,0.0,0.0,0.0,-0.4873,-0.5216,-0.5273,-0.4886,-0.4787,-0.5646,-0.6006,-0.6355,-0.6843,-0.7789,-0.8532,-0.8827,-0.9213,-0.951,-0.9614,-0.9614,-0.9614,-0.9614,-0.9614,-0.9614,-0.9614,-0.9614,-0.9614,-0.9614,-0.9614,-1.02,-1.1533,-1.1645,-1.2307,-1.3669,-1.425,-1.473,-1.5114,-1.5628,-1.609,-1.6384,-1.6384,-1.6384,-1.6394,-1.6612,-1.6839,-1.7018,-1.7522,-1.8112,-1.8744,-1.8982,-1.9075,-1.9075,-1.9075,-1.8654,-1.7969,-1.7969,-1.7285,-1.6351,-1.6128,-1.5892,-1.579,-1.5878,-1.6198,-1.6508,-1.6683,-1.673,-1.673,-1.673,-1.673,-1.673,-1.673,-1.673,-1.673,-1.673,-1.673,-1.7151,-1.8557,-1.8357,-1.8172,-1.8735,-1.8827,-1.8827,-1.8827,-1.8827,-1.8827,-1.8827,-1.8827,-1.8827,-1.8827,-1.8827,-1.8827,-1.8827,-1.8827,-1.8827,-1.8827,-1.8827,-1.8827,-1.8827,-1.8827,-1.8827,-1.8827,-1.8827,-1.8827,-1.8827,-1.855,-1.8458,-1.8458,-1.8172,-1.8195,0.0,0.0,0.0,0.0,0.0,-0.6085,0.0,0.0,0.0,-0.5879,-0.5375,0.0,0.0,0.0,0.0,0.0,0.0,0.0,0.0,-0.8706,0.0,-0.938,-0.949,-0.9533,-0.9533,-0.9475,-0.9482,-0.9607,-0.9504,-0.949,-0.9607,-0.9614,-1.0072,-1.115,-1.125,-1.185,-1.3123,-1.3681,-1.4216,-1.484,-1.5409,-1.5939,-1.6384,-1.6384,-1.6384,-1.6384,-1.6384,-1.6581,-1.6863,-1.6946,-1.7522,-1.8299,-1.8764,-1.8992,-1.9075,-1.9075,-1.8721,-1.824,-1.824,-1.7765,-1.7001,-1.6455,-1.6234,-1.6198,-1.5476,-1.5713,-1.6277,-1.6635,-1.673,-1.673,-1.673,-1.673,-1.673,-1.673,-1.673,-1.673,-1.673,-1.673,-1.7072,-1.82,-1.8637,-1.8827,-1.8827,-1.8827,-1.8827,-1.8827,-1.8827,-1.8827,-1.8827,-1.8827,-1.8827,-1.8827,-1.8827,-1.8827,-1.8827,-1.8827,-1.8827,-1.8827,-1.8827,-1.8827,-1.8827,-1.8827,-1.8827,-1.8827,-1.8827,-1.8827,-1.8827,-1.8827,-1.8827,-1.8827,-1.8827,-1.8827,0.0,0.0,0.0,0.0,-0.6366,0.0,0.0,0.0,-0.6712,-0.6232,0.0,0.0,0.0,0.0,0.0,0.0,0.0,0.0,-0.7247,-0.7752,-0.8335,-0.8758,-0.9051,-0.9226,-0.9226,-0.8963,-0.9021,-0.957,-0.9102,-0.9036,-0.9585,-0.9614,-1.0072,-1.115,-1.1334,-1.1972,-1.317,-1.377,-1.4379,-1.4997,-1.5463,-1.5939,-1.6384,-1.6384,-1.6384,-1.6384,-1.6384,-1.6415,-1.6487,-1.6881,-1.7286,-1.7854,-1.8288,-1.8702,-1.9075,-1.9075,-1.9065,-1.8998,-1.8998,-1.8519,-1.7833,-1.7765,-1.7067,-1.6249,-1.5751,-1.5896,-1.6277,-1.6635,-1.673,-1.673,-1.673,-1.673,-1.673,-1.673,-1.673,-1.673,-1.673,-1.673,-1.6786,-1.6937,-1.7977,-1.8827,-1.8827,-1.8827,-1.8827,-1.8827,-1.8827,-1.8827,-1.8827,-1.8827,-1.8827,-1.8827,-1.8827,-1.8827,-1.8827,-1.8827,-1.8827,-1.8827,-1.8827,-1.8827,-1.8827,-1.8827,-1.8827,-1.8827,-1.8827,-1.8827,-1.8827,-1.8827,-1.8827,-1.8827,-1.8827,-1.8827,0.0,0.0,0.0,0.0,0.0,0.0,-0.6439,0.0,-0.68,0.0,0.0,0.0,0.0,0.0,0.0,0.0,-0.6601,0.0,0.0,0.0,-0.7462,0.0,0.0,0.0,-0.859,-0.8655,-0.8794,-0.9058,-0.8838,-0.9026,-0.9772,-0.998,-1.0592,-1.1719,-1.1801,-1.2255,-1.3152,-1.3419,-1.388,-1.4491,-1.5017,-1.5535,-1.5991,-1.626,-1.6384,-1.6384,-1.6384,-1.6384,-1.6394,-1.6581,-1.6922,-1.7317,-1.7823,-1.8444,-1.9075,-1.9075,-1.9075,-1.9075,-1.9075,-1.8931,-1.8519,-1.7628,-1.6772,-1.5944,-1.5581,-1.5594,-1.5856,-1.654,-1.673,-1.673,-1.673,-1.673,-1.673,-1.673,-1.673,-1.673,-1.673,-1.673,-1.673,-1.673,-1.7866,-1.8827,-1.8827,-1.8827,-1.8827,-1.8827,-1.8827,-1.8827,-1.8827,-1.8827,-1.8827,-1.8827,-1.8827,-1.8827,-1.8827,-1.8827,-1.8827,-1.8827,-1.8827,-1.8827,-1.8827,-1.8827,-1.8827,-1.8827,-1.8827,-1.8827,-1.8827,-1.8827,-1.8827,-1.8827,-1.8827,-1.8827,-0.7778,0.0,0.0,0.0,0.0,0.0,0.0,0.0,0.0,0.0,0.0,0.0,0.0,0.0,0.0,0.0,0.0,-0.665,0.0,0.0,0.0,0.0,0.0,0.0,0.0,-0.8394,-0.8445,-0.8842,-0.8527,-0.886,-1.0084,-1.0218,-1.0856,-1.2076,-1.2076,-1.2421,-1.3113,-1.318,-1.3547,-1.4154,-1.4594,-1.5121,-1.5701,-1.6032,-1.626,-1.6384,-1.6384,-1.6384,-1.6384,-1.6384,-1.6643,-1.7028,-1.7492,-1.8206,-1.8889,-1.9023,-1.9075,-1.9075,-1.9075,-1.9075,-1.8865,-1.7619,-1.6793,-1.6202,-1.5856,-1.5538,-1.5618,-1.6492,-1.673,-1.673,-1.673,-1.673,-1.673,-1.673,-1.673,-1.673,-1.673,-1.673,-1.673,-1.673,-1.7866,-1.8827,-1.8827,-1.8827,-1.8827,-1.8827,-1.8827,-1.8827,-1.8827,-1.8827,-1.8827,-1.8827,-1.8827,-1.8827,-1.8827,-1.8827,-1.8827,-1.8827,-1.8827,-1.8827,-1.8827,-1.8827,-1.8827,-1.8827,-1.8827,-1.8827,-1.8827,-1.8827,-1.8827,-1.8827,-1.8827,-1.8827,0.0,0.0,0.0,-0.7284,0.0,0.0,0.0,0.0,-0.7486,0.0,0.0,0.0,0.0,0.0,0.0,0.0,0.0,0.0,0.0,0.0,0.0,0.0,0.0,0.0,0.0,-0.8059,-0.7818,0.0,-0.8002,-0.8234,-1.0449,-1.0221,-1.0647,-1.2067,-1.2076,-1.2461,-1.317,-1.3218,-1.3596,-1.4304,-1.4324,-1.4811,-1.5691,-1.5701,-1.5949,-1.6384,-1.6384,-1.6384,-1.6384,-1.6384,-1.6643,-1.7028,-1.7492,-1.8009,-1.8454,-1.8909,-1.9075,-1.9075,-1.9075,-1.9075,-1.8998,-1.824,-1.7755,-1.7439,-1.6927,-1.623,-1.5817,-1.6532,-1.673,-1.673,-1.673,-1.673,-1.673,-1.673,-1.673,-1.673,-1.673,-1.673,-1.673,-1.673,-1.7866,-1.8827,-1.8827,-1.8827,-1.8827,-1.8827,-1.8827,-1.8827,-1.8827,-1.8827,-1.8827,-1.8827,-1.8827,-1.8827,-1.8827,-1.8827,-1.8827,-1.8827,-1.8827,-1.8827,-1.8827,-1.8827,-1.8827,-1.8827,-1.8827,-1.8827,-1.8827,-1.8827,-1.8827,-1.8827,-1.8827,-1.8827,0.0,0.0,-0.8617,-0.7775,0.0,0.0,0.0,0.0,0.0,0.0,0.0,0.0,0.0,0.0,0.0,0.0,0.0,0.0,0.0,0.0,0.0,0.0,0.0,0.0,0.0,0.0,0.0,0.0,-0.8667,0.0,-1.0868,-1.1238,-1.1782,-1.2627,-1.2627,-1.2774,-1.3007,-1.3132,-1.3337,-1.3596,-1.406,-1.4635,-1.5245,-1.5546,-1.5939,-1.6384,-1.6384,-1.6384,-1.6384,-1.6384,-1.6467,-1.6674,-1.744,-1.7823,-1.804,-1.8796,-1.9075,-1.9075,-1.9075,-1.9075,-1.8931,-1.8027,-1.7687,-1.7304,-1.5816,-1.5146,-1.5237,-1.6404,-1.673,-1.673,-1.673,-1.673,-1.673,-1.673,-1.673,-1.673,-1.673,-1.673,-1.673,-1.673,-1.7866,-1.8827,-1.8827,-1.8827,-1.8827,-1.8827,-1.8827,-1.8827,-1.8827,-1.8827,-1.8827,-1.8827,-1.8827,-1.8827,-1.8827,-1.8827,-1.8827,-1.8827,-1.8827,-1.8827,-1.8827,-1.8827,-1.8827,-1.8827,-1.8827,-1.8827,-1.8827,-1.8827,-1.8827,-1.8827,-1.8827,-1.8827,-0.8804,-0.8804,0.0,-0.8028,-0.8009,0.0,-0.7188,0.0,-0.7809,0.0,0.0,0.0,0.0,0.0,0.0,0.0,0.0,0.0,0.0,-0.619,0.0,0.0,0.0,0.0,0.0,0.0,-0.8127,-0.8351,-0.8568,0.0,0.0,-1.1584,-1.212,-1.2871,-1.2881,-1.2929,-1.2978,-1.3132,-1.3218,-1.3266,-1.3813,-1.4386,-1.5007,-1.5308,-1.5784,-1.6384,-1.6384,-1.6384,-1.6384,-1.6384,-1.6384,-1.6477,-1.7378,-1.7668,-1.7843,-1.8733,-1.9075,-1.9075,-1.9075,-1.9075,-1.8998,-1.8375,-1.8104,-1.7891,-1.6576,-1.6616,-1.7121,-1.679,-1.673,-1.673,-1.673,-1.673,-1.673,-1.673,-1.673,-1.673,-1.673,-1.673,-1.6881,-1.7382,-1.8208,-1.8827,-1.8827,-1.8827,-1.8827,-1.8827,-1.8827,-1.8827,-1.8827,-1.8827,-1.8827,-1.8827,-1.8827,-1.8827,-1.8827,-1.8827,-1.8827,-1.8827,-1.8827,-1.8827,-1.8827,-1.8827,-1.8827,-1.8827,-1.8827,-1.8827,-1.8827,-1.8827,-1.8827,-1.8827,-1.8827,-1.8827]},{"header":{"parameterUnit":"m.s-1","parameterCategory":1,"la1":30.6,"la2":29.2853,"lo1":-89.7004,"lo2":-87.6739,"dy":0.0162,"dx":0.0183,"nx":112,"ny":82,"refTime":"2024-05-17T06:00:00:Z","depth":0,"parameterNumber":3,"parameterNumberName":"V-component_of_WINDS"},"data":[0.0,0.0,0.0,0.0,0.0,0.0,0.0,0.0,0.0,0.0,0.0,0.0,0.0,0.0,0.0,0.0,0.0,0.0,0.0,0.0,0.0,0.0,0.0,0.0,0.0,0.0,0.0,0.0,0.0,0.0,0.0,0.0,0.0,0.0,0.0,0.0,0.0,0.0,0.0,0.0,0.0,0.0,0.0,0.0,0.0,0.0,0.0,0.0,0.0,0.0,0.0,0.0,0.0,0.0,0.0,0.0,0.0,0.0,0.0,0.0,0.0,0.0,0.0,0.0,0.0,0.0,0.0,0.0,0.0,0.0,0.0,0.0,0.0,0.0,0.0,0.0,0.0,0.0,0.0,0.0,0.0,0.0,0.0,0.0,0.0,0.0,0.0,0.0,0.0,0.0,-1.9301,-2.2172,-2.4358,-2.5609,-2.5609,-2.5609,-2.4499,-2.1872,0.0,0.0,0.0,0.0,0.0,0.0,0.0,0.0,0.0,0.0,0.0,0.0,0.0,0.0,0.0,0.0,0.0,0.0,0.0,0.0,0.0,0.0,0.0,0.0,0.0,0.0,0.0,0.0,0.0,0.0,0.0,0.0,0.0,0.0,0.0,0.0,0.0,0.0,0.0,0.0,0.0,0.0,0.0,0.0,0.0,0.0,0.0,0.0,0.0,0.0,0.0,0.0,0.0,0.0,0.0,0.0,0.0,0.0,0.0,0.0,0.0,0.0,0.0,0.0,0.0,0.0,0.0,0.0,0.0,0.0,0.0,0.0,0.0,0.0,0.0,0.0,0.0,0.0,0.0,0.0,0.0,0.0,0.0,0.0,0.0,0.0,0.0,0.0,0.0,0.0,0.0,0.0,0.0,0.0,0.0,0.0,0.0,0.0,0.0,0.0,0.0,0.0,0.0,0.0,-2.0648,-2.4692,-2.5469,-2.5683,-2.5683,-2.5683,-2.4534,-2.1861,0.0,0.0,0.0,0.0,0.0,0.0,0.0,0.0,0.0,0.0,0.0,0.0,0.0,0.0,0.0,0.0,0.0,0.0,0.0,0.0,0.0,0.0,0.0,0.0,0.0,0.0,0.0,0.0,0.0,0.0,0.0,0.0,0.0,0.0,0.0,0.0,0.0,0.0,0.0,0.0,0.0,0.0,0.0,0.0,0.0,0.0,0.0,0.0,0.0,0.0,0.0,0.0,0.0,0.0,0.0,0.0,0.0,0.0,0.0,0.0,0.0,0.0,0.0,0.0,0.0,0.0,0.0,0.0,0.0,0.0,0.0,0.0,0.0,0.0,0.0,0.0,0.0,0.0,0.0,0.0,0.0,0.0,0.0,0.0,0.0,0.0,0.0,0.0,0.0,0.0,0.0,0.0,0.0,0.0,0.0,0.0,0.0,0.0,0.0,0.0,0.0,0.0,0.0,-1.9692,-2.1957,-2.5336,-2.5707,-2.5707,-2.5707,-2.5707,-2.4564,-2.1928,-1.9734,0.0,0.0,0.0,0.0,0.0,0.0,0.0,0.0,0.0,0.0,0.0,0.0,0.0,0.0,0.0,0.0,0.0,0.0,0.0,0.0,0.0,0.0,0.0,0.0,0.0,0.0,0.0,0.0,0.0,0.0,0.0,0.0,0.0,0.0,0.0,0.0,0.0,0.0,0.0,0.0,0.0,0.0,0.0,0.0,0.0,0.0,0.0,0.0,0.0,0.0,0.0,0.0,0.0,0.0,0.0,0.0,0.0,0.0,0.0,0.0,0.0,0.0,0.0,0.0,0.0,0.0,0.0,0.0,0.0,0.0,0.0,0.0,0.0,0.0,0.0,0.0,0.0,0.0,0.0,0.0,0.0,0.0,0.0,0.0,0.0,0.0,0.0,0.0,0.0,0.0,0.0,0.0,0.0,0.0,0.0,0.0,0.0,0.0,0.0,0.0,0.0,0.0,-2.2075,-2.3244,-2.5444,-2.5679,-2.5676,-2.5651,-2.5281,-2.4046,-2.162,-1.8882,0.0,0.0,0.0,0.0,0.0,0.0,0.0,0.0,0.0,0.0,0.0,0.0,0.0,0.0,0.0,0.0,0.0,0.0,0.0,0.0,0.0,0.0,0.0,0.0,0.0,0.0,0.0,0.0,0.0,0.0,0.0,0.0,0.0,0.0,0.0,0.0,0.0,0.0,0.0,0.0,0.0,0.0,0.0,0.0,0.0,0.0,0.0,0.0,0.0,0.0,0.0,0.0,0.0,0.0,0.0,0.0,0.0,0.0,0.0,0.0,0.0,0.0,0.0,0.0,0.0,0.0,0.0,0.0,0.0,0.0,0.0,0.0,0.0,0.0,0.0,0.0,0.0,0.0,0.0,0.0,0.0,0.0,0.0,0.0,0.0,0.0,0.0,0.0,0.0,0.0,0.0,0.0,0.0,0.0,0.0,0.0,0.0,0.0,0.0,0.0,0.0,0.0,-2.276,-2.4564,-2.5512,-2.5605,-2.5589,-2.5521,-2.4093,-2.242,-2.0599,-1.7345,0.0,0.0,0.0,0.0,0.0,0.0,0.0,0.0,0.0,0.0,0.0,0.0,0.0,0.0,0.0,0.0,0.0,0.0,0.0,0.0,0.0,0.0,0.0,0.0,0.0,0.0,0.0,0.0,0.0,0.0,0.0,0.0,0.0,0.0,0.0,0.0,0.0,0.0,0.0,0.0,0.0,0.0,0.0,0.0,0.0,0.0,0.0,0.0,0.0,0.0,0.0,0.0,0.0,0.0,0.0,0.0,0.0,0.0,0.0,0.0,0.0,0.0,0.0,0.0,0.0,0.0,0.0,0.0,0.0,0.0,0.0,0.0,0.0,0.0,0.0,0.0,0.0,0.0,0.0,0.0,0.0,0.0,0.0,0.0,0.0,0.0,0.0,0.0,0.0,0.0,0.0,0.0,0.0,0.0,0.0,0.0,0.0,0.0,0.0,0.0,0.0,0.0,-2.2316,-2.4053,0.0,-2.5556,-2.5526,-2.5504,-2.4927,-2.3383,-2.0644,0.0,0.0,0.0,0.0,0.0,0.0,0.0,0.0,0.0,0.0,0.0,0.0,0.0,0.0,0.0,0.0,0.0,0.0,0.0,0.0,0.0,0.0,0.0,0.0,0.0,0.0,0.0,0.0,0.0,0.0,0.0,0.0,0.0,0.0,0.0,0.0,0.0,0.0,0.0,0.0,0.0,0.0,0.0,0.0,0.0,0.0,0.0,0.0,0.0,0.0,0.0,0.0,0.0,0.0,0.0,0.0,0.0,0.0,0.0,0.0,0.0,0.0,0.0,0.0,0.0,0.0,0.0,0.0,0.0,0.0,0.0,0.0,0.0,0.0,0.0,0.0,0.0,0.0,0.0,0.0,0.0,0.0,0.0,0.0,0.0,0.0,0.0,0.0,0.0,0.0,0.0,0.0,0.0,0.0,0.0,0.0,0.0,0.0,0.0,0.0,0.0,0.0,-2.0217,-2.2497,-2.4273,0.0,-2.5552,-2.5521,-2.5504,-2.4981,-2.3478,-2.0644,0.0,0.0,0.0,0.0,0.0,0.0,0.0,0.0,0.0,0.0,0.0,0.0,0.0,0.0,0.0,0.0,0.0,0.0,0.0,0.0,0.0,0.0,0.0,0.0,0.0,0.0,0.0,0.0,0.0,0.0,0.0,0.0,0.0,0.0,0.0,0.0,0.0,0.0,0.0,0.0,0.0,0.0,0.0,0.0,0.0,0.0,0.0,0.0,0.0,0.0,0.0,0.0,0.0,0.0,0.0,0.0,0.0,0.0,0.0,0.0,0.0,0.0,0.0,0.0,0.0,0.0,0.0,0.0,0.0,0.0,0.0,0.0,0.0,0.0,0.0,0.0,0.0,0.0,0.0,0.0,0.0,0.0,0.0,0.0,0.0,0.0,0.0,0.0,0.0,0.0,0.0,0.0,0.0,0.0,0.0,0.0,0.0,0.0,0.0,0.0,0.0,0.0,-2.0367,-2.353,-2.5601,-2.5601,-2.5601,-2.5561,-2.5504,-2.3922,-2.2204,0.0,0.0,0.0,0.0,0.0,0.0,0.0,0.0,0.0,0.0,0.0,0.0,0.0,0.0,0.0,0.0,0.0,0.0,0.0,0.0,0.0,0.0,0.0,0.0,0.0,0.0,0.0,0.0,0.0,0.0,0.0,0.0,0.0,0.0,0.0,0.0,0.0,0.0,0.0,0.0,0.0,0.0,0.0,0.0,0.0,0.0,0.0,0.0,0.0,0.0,0.0,0.0,0.0,0.0,0.0,0.0,0.0,0.0,0.0,0.0,0.0,0.0,0.0,0.0,0.0,0.0,0.0,0.0,0.0,0.0,0.0,0.0,0.0,0.0,0.0,0.0,0.0,0.0,0.0,0.0,0.0,0.0,0.0,0.0,0.0,0.0,0.0,0.0,0.0,0.0,0.0,0.0,0.0,0.0,0.0,0.0,0.0,0.0,0.0,0.0,0.0,0.0,0.0,-2.0377,-2.3533,-2.5589,-2.5532,-2.5526,-2.5486,-2.5365,-2.4927,-2.3429,-2.052,0.0,0.0,0.0,0.0,0.0,0.0,0.0,0.0,0.0,0.0,0.0,0.0,0.0,0.0,0.0,0.0,0.0,0.0,0.0,0.0,0.0,0.0,0.0,0.0,0.0,0.0,0.0,0.0,0.0,0.0,0.0,0.0,0.0,0.0,0.0,0.0,0.0,0.0,0.0,0.0,0.0,0.0,0.0,0.0,0.0,0.0,0.0,0.0,0.0,0.0,0.0,0.0,0.0,0.0,0.0,0.0,0.0,0.0,0.0,0.0,0.0,0.0,0.0,0.0,0.0,0.0,0.0,0.0,0.0,0.0,0.0,0.0,0.0,0.0,0.0,0.0,0.0,0.0,0.0,0.0,0.0,0.0,0.0,0.0,0.0,0.0,0.0,0.0,0.0,0.0,0.0,0.0,0.0,0.0,0.0,0.0,0.0,0.0,0.0,0.0,0.0,0.0,-2.0336,-2.349,-2.5542,-2.5504,-2.5504,-2.5467,-2.539,-2.5379,-2.4092,-2.1017,0.0,0.0,0.0,0.0,0.0,0.0,0.0,0.0,0.0,0.0,0.0,0.0,0.0,0.0,0.0,0.0,0.0,0.0,0.0,0.0,0.0,0.0,0.0,0.0,0.0,0.0,0.0,0.0,0.0,0.0,0.0,0.0,0.0,0.0,0.0,0.0,0.0,0.0,0.0,0.0,0.0,0.0,0.0,0.0,0.0,0.0,0.0,0.0,0.0,0.0,0.0,0.0,0.0,0.0,0.0,0.0,0.0,0.0,0.0,0.0,0.0,0.0,0.0,0.0,0.0,0.0,0.0,0.0,0.0,0.0,0.0,0.0,0.0,0.0,0.0,0.0,0.0,0.0,0.0,0.0,0.0,0.0,0.0,0.0,0.0,0.0,0.0,0.0,0.0,0.0,0.0,0.0,0.0,0.0,0.0,0.0,0.0,0.0,0.0,0.0,0.0,0.0,-2.0277,-2.3436,-2.551,-2.5504,-2.551,-2.5504,-2.5492,-2.5432,-2.435,-2.1862,0.0,0.0,0.0,0.0,0.0,0.0,0.0,0.0,0.0,0.0,0.0,0.0,0.0,0.0,0.0,0.0,0.0,0.0,0.0,0.0,0.0,0.0,0.0,0.0,0.0,0.0,0.0,0.0,0.0,0.0,0.0,0.0,0.0,0.0,0.0,0.0,0.0,0.0,0.0,0.0,0.0,0.0,0.0,0.0,0.0,0.0,0.0,0.0,0.0,0.0,0.0,0.0,0.0,0.0,0.0,0.0,0.0,0.0,0.0,0.0,-1.5132,0.0,0.0,0.0,0.0,0.0,0.0,0.0,0.0,0.0,0.0,0.0,0.0,0.0,0.0,0.0,0.0,0.0,0.0,0.0,0.0,0.0,0.0,0.0,0.0,0.0,0.0,0.0,0.0,0.0,0.0,0.0,0.0,0.0,0.0,0.0,0.0,0.0,0.0,0.0,0.0,0.0,-2.021,-2.3446,-2.5552,-2.551,-2.5542,-2.5532,-2.5425,-2.5403,-2.4571,-2.2662,-2.0135,0.0,0.0,0.0,0.0,0.0,0.0,0.0,0.0,0.0,0.0,0.0,0.0,0.0,0.0,0.0,0.0,0.0,0.0,0.0,0.0,0.0,0.0,0.0,0.0,0.0,0.0,0.0,0.0,0.0,0.0,0.0,0.0,0.0,0.0,0.0,0.0,0.0,0.0,0.0,0.0,0.0,0.0,0.0,0.0,0.0,0.0,0.0,0.0,0.0,0.0,0.0,0.0,0.0,0.0,0.0,0.0,0.0,0.0,0.0,0.0,-1.7304,0.0,0.0,0.0,0.0,0.0,0.0,0.0,0.0,0.0,0.0,0.0,0.0,0.0,0.0,0.0,0.0,0.0,0.0,0.0,0.0,0.0,0.0,0.0,0.0,0.0,0.0,0.0,0.0,0.0,0.0,0.0,0.0,0.0,0.0,0.0,0.0,0.0,0.0,0.0,0.0,-2.0854,-2.3698,-2.5526,-2.546,-2.5453,-2.5425,-2.5357,-2.5348,-2.481,-2.3514,-2.1397,0.0,0.0,0.0,0.0,0.0,0.0,0.0,0.0,0.0,0.0,0.0,0.0,0.0,0.0,0.0,0.0,0.0,0.0,0.0,0.0,0.0,0.0,0.0,0.0,0.0,0.0,0.0,0.0,0.0,0.0,0.0,0.0,0.0,0.0,0.0,0.0,0.0,0.0,0.0,0.0,0.0,0.0,0.0,0.0,0.0,0.0,0.0,0.0,0.0,0.0,0.0,0.0,0.0,-2.3123,-2.2617,-2.1835,-2.1835,-2.224,-2.2841,-2.1442,-2.1304,-2.1845,-1.9597,0.0,0.0,0.0,0.0,0.0,0.0,0.0,0.0,0.0,0.0,0.0,0.0,0.0,0.0,0.0,0.0,0.0,0.0,0.0,0.0,0.0,0.0,0.0,0.0,-2.3993,-2.4241,-2.1357,0.0,0.0,0.0,0.0,0.0,0.0,0.0,0.0,0.0,0.0,0.0,-2.1776,-2.4033,-2.546,-2.5414,-2.5339,-2.5313,-2.5313,-2.5313,-2.5024,-2.436,-2.2677,-2.11,0.0,0.0,0.0,0.0,0.0,0.0,0.0,0.0,0.0,0.0,0.0,0.0,0.0,0.0,0.0,0.0,0.0,0.0,0.0,0.0,0.0,0.0,0.0,0.0,0.0,0.0,0.0,0.0,0.0,0.0,0.0,0.0,-1.2582,-1.3451,0.0,0.0,0.0,0.0,0.0,0.0,0.0,0.0,0.0,0.0,0.0,0.0,0.0,-1.6624,-2.0113,-2.3162,-2.5604,-2.7419,-2.6716,-2.6657,-2.7183,-2.7182,-2.7253,-2.7337,-2.7125,0.0,-2.2832,-2.1757,0.0,0.0,0.0,0.0,0.0,0.0,0.0,0.0,0.0,0.0,0.0,0.0,0.0,0.0,0.0,0.0,0.0,0.0,0.0,0.0,0.0,0.0,-2.6332,-2.709,-2.7454,-2.7466,0.0,-2.3457,-2.0109,-1.8995,-1.8114,0.0,0.0,0.0,0.0,0.0,0.0,0.0,-2.2533,-2.4314,-2.5403,-2.5395,-2.5379,-2.539,-2.539,-2.534,-2.5245,-2.5159,-2.3562,-2.2524,-2.2312,-1.9234,0.0,0.0,0.0,0.0,0.0,0.0,0.0,0.0,0.0,0.0,0.0,0.0,0.0,0.0,0.0,0.0,0.0,0.0,0.0,0.0,0.0,0.0,0.0,0.0,0.0,0.0,0.0,0.0,0.0,-1.2561,-1.3817,-1.5152,-1.5299,-1.5159,0.0,0.0,0.0,0.0,0.0,0.0,0.0,0.0,0.0,-2.0901,-1.9202,-1.9931,-2.3393,-2.4934,-2.6387,-2.7741,-2.8034,-2.8188,-2.8205,-2.8203,-2.8205,-2.8193,-2.816,-2.7284,-2.5809,-2.4479,-2.3428,-2.2492,0.0,0.0,0.0,0.0,-2.1726,-2.1658,-2.3928,-2.4141,-2.3262,-2.2323,0.0,0.0,0.0,0.0,0.0,0.0,0.0,0.0,0.0,0.0,-2.7633,-2.8016,-2.809,-2.8105,-2.81,-2.6379,-2.4263,0.0,-2.1731,-2.072,-1.8433,0.0,0.0,0.0,0.0,-2.2247,-2.3469,-2.4663,-2.5387,-2.5387,-2.5365,-2.533,-2.533,-2.5313,-2.5303,-2.5303,-2.462,-2.4005,-2.3552,-2.1628,-1.9735,0.0,0.0,0.0,0.0,0.0,0.0,0.0,0.0,0.0,0.0,0.0,0.0,0.0,0.0,0.0,0.0,0.0,0.0,0.0,0.0,0.0,0.0,0.0,0.0,0.0,0.0,0.0,0.0,-1.4065,-1.544,-1.6891,-1.7477,-1.7575,0.0,0.0,0.0,0.0,0.0,0.0,-2.0146,-2.1235,-2.2333,-2.346,-2.2416,-2.3281,-2.6303,-2.6776,-2.7439,-2.8271,-2.8837,-2.9029,-2.8863,-2.907,-2.916,-2.918,-2.9337,-2.94,-2.9234,-2.7116,-2.5859,-2.515,-2.385,-2.2937,-2.2594,-2.4503,-2.4819,-2.4658,-2.7152,-2.758,-2.6826,-2.5588,-2.5027,-2.4486,-2.2583,0.0,0.0,0.0,0.0,-2.5553,-2.6965,-2.7856,-2.8423,-2.8648,-2.8694,-2.871,-2.8748,-2.8713,-2.8005,0.0,-2.5176,-2.4219,-2.1245,0.0,0.0,0.0,0.0,-2.3941,-2.5021,-2.5673,-2.5953,-2.5721,-2.5659,-2.5534,-2.5322,-2.5303,-2.5303,-2.5303,-2.5303,-2.5024,-2.4428,-2.359,-2.2139,-2.0007,0.0,0.0,0.0,0.0,0.0,0.0,0.0,0.0,0.0,0.0,0.0,0.0,0.0,0.0,0.0,0.0,0.0,0.0,0.0,0.0,0.0,0.0,0.0,0.0,0.0,0.0,0.0,0.0,0.0,-1.8762,-2.0383,0.0,0.0,0.0,0.0,-1.9127,-2.0636,-2.1973,-2.2864,-2.452,-2.5842,-2.6738,-2.589,-2.6285,-2.8062,-2.9725,-3.0574,-3.0628,-2.96,-2.9659,-3.0706,-3.1448,-3.1806,-3.1838,-3.2621,-3.2931,-3.2684,-2.935,-2.7954,-2.7888,-2.7811,-2.7743,-2.7725,-2.7865,-2.7888,-2.7861,-2.7965,-2.7976,-2.7909,-2.784,-2.7252,-2.6547,-2.6412,-2.6384,0.0,0.0,-2.7092,-2.7933,-2.883,-2.9109,-2.9338,-3.0094,-3.0287,-3.0287,-3.0287,-3.0287,-2.9803,0.0,-2.7842,-2.7249,-2.5473,0.0,-2.5163,-2.5234,-2.5263,-2.5893,-2.7591,-2.7788,-2.7458,-2.6631,-2.6544,-2.6197,-2.536,-2.5303,-2.5303,-2.5303,-2.5303,-2.5284,-2.5245,-2.4466,-2.3601,-2.2632,-2.0153,0.0,0.0,0.0,0.0,0.0,0.0,0.0,0.0,0.0,0.0,0.0,0.0,0.0,0.0,0.0,0.0,0.0,0.0,0.0,0.0,0.0,0.0,0.0,0.0,0.0,0.0,0.0,0.0,-2.1287,-2.2122,0.0,-2.1672,-2.1913,-2.2227,-2.2522,-2.3645,-2.4686,-2.5568,-2.6727,-2.7515,-2.7831,-2.787,-2.8178,-2.8774,-3.0123,-3.1169,-3.1895,-3.1486,-3.169,-3.2427,-3.2661,-3.2769,-3.2784,-3.3024,-3.3132,-3.3035,-3.1816,-3.0674,-2.9707,-2.9707,-2.9375,-2.8996,-3.0083,-3.0481,-3.0558,-3.1101,-3.1275,-3.1101,-3.0017,-2.9089,-2.8277,-2.7716,-2.7892,-2.8425,-2.8994,-2.9717,-3.0552,-3.1368,-3.1588,-3.1657,-3.1984,-3.2047,-3.203,-3.2061,-3.2047,-3.1703,-3.0614,-2.9485,-2.8184,-2.6552,-2.6687,-2.6824,-2.6283,-2.666,-2.7229,-2.7865,-2.7911,-2.7775,-2.7467,-2.6928,-2.6467,-2.6159,-2.561,-2.5303,-2.5302,-2.5293,-2.5303,-2.5302,-2.5014,-2.4457,-2.3602,-2.2134,-1.9854,0.0,0.0,0.0,0.0,0.0,0.0,0.0,0.0,0.0,0.0,0.0,0.0,0.0,0.0,0.0,0.0,0.0,0.0,0.0,0.0,0.0,0.0,0.0,0.0,0.0,0.0,-2.1068,-2.2746,-2.3772,-2.4226,-2.3934,-2.444,-2.5041,-2.5676,-2.6255,-2.6828,-2.7414,-2.8242,-2.8691,-2.8709,-2.9324,-2.9857,-3.0235,-3.1207,-3.2148,-3.3064,-3.3064,-3.317,-3.3342,-3.3549,-3.3646,-3.3652,-3.3877,-3.3982,-3.3982,-3.3982,-3.3151,-3.1855,-3.1565,-3.1101,-3.0714,-3.1835,-3.2232,-3.2309,-3.2889,-3.3102,-3.2908,-3.1806,-3.1043,-3.0463,-2.9873,-3.0066,-3.0606,-3.1182,-3.1707,-3.2242,-3.28,-3.2923,-3.2916,-3.2949,-3.2933,-3.2916,-3.296,-3.2933,-3.2737,-3.2218,-3.0948,-2.9451,-2.7788,-2.7961,-2.8102,-2.7525,-2.7928,-2.8409,-2.8717,-2.8736,-2.8621,-2.8332,-2.7783,-2.7196,-2.6649,-2.6042,-2.559,-2.5282,-2.5283,-2.5283,-2.5282,-2.5282,-2.5013,-2.4417,-2.2996,-2.1024,-1.8508,0.0,0.0,0.0,0.0,0.0,0.0,0.0,0.0,0.0,0.0,0.0,0.0,0.0,0.0,0.0,0.0,0.0,0.0,0.0,0.0,0.0,0.0,0.0,-1.9223,-2.1496,-2.3147,-2.3134,-2.5411,-2.6681,-2.5869,-2.7303,-2.8303,-2.8303,-2.8316,-2.8339,-2.8339,-2.91,-2.9558,-2.9578,-3.0406,-3.139,-3.2518,-3.3103,-3.3668,-3.4213,-3.4213,-3.396,-3.3512,-3.4217,-3.4548,-3.4578,-3.5359,-3.5704,-3.5704,-3.5704,-3.5201,-3.435,-3.3518,-3.316,-3.314,-3.316,-3.3179,-3.3179,-3.3179,-3.3179,-3.3179,-3.3147,-3.3137,-3.3117,-3.3026,-3.3022,-3.3049,-3.3041,-3.3017,-3.3,-3.3063,-3.3031,-3.2987,-3.2987,-3.2987,-3.2987,-3.2987,-3.2987,-3.2968,-3.2949,-3.2314,-3.1237,-2.9467,-2.9179,-2.9159,-2.914,-2.914,0.0,-3.0283,-3.0398,-3.0083,-2.9236,-2.9118,-2.8441,-2.6809,-2.6568,-2.6135,-2.5288,-2.5271,-2.5282,-2.5192,-2.5252,-2.5261,-2.5187,-2.2717,-2.0996,-2.0127,0.0,0.0,0.0,0.0,0.0,0.0,0.0,0.0,0.0,0.0,0.0,0.0,0.0,0.0,0.0,0.0,0.0,0.0,0.0,0.0,0.0,0.0,-2.2012,-2.2,-2.3188,-2.4505,-2.5752,-2.6542,-2.7151,-2.7557,-2.8019,-2.8297,-2.8297,-2.8848,-2.9177,-2.9177,-2.9988,-3.0738,-3.1376,-3.1613,-3.2201,-3.3142,-3.3317,-3.3765,-3.4486,-3.4486,-3.4717,-3.515,-3.536,-3.5426,-3.5378,-3.5599,-3.5704,-3.5704,-3.5704,-3.5549,-3.5317,-3.5085,-3.4601,-3.4118,-3.4756,-3.4988,-3.4988,-3.4928,-3.4917,-3.482,-3.4176,-3.3971,-3.3855,-3.3188,-3.3415,-3.3872,-3.3865,-3.4302,-3.4795,-3.4808,-3.4795,-3.4795,-3.4795,-3.4795,-3.4795,-3.4795,-3.4795,-3.4603,-3.3968,-3.366,-3.2968,-3.1275,-3.0987,-3.0775,-3.014,-3.0044,0.0,-3.0297,-3.0336,-3.0239,-2.999,-2.9452,-2.8902,-2.8441,-2.7289,-2.6442,-2.6156,-2.5565,-2.5212,-2.5209,-2.5209,-2.5217,-2.5203,-2.328,-2.1875,0.0,0.0,0.0,0.0,0.0,0.0,0.0,0.0,0.0,0.0,0.0,0.0,0.0,0.0,0.0,0.0,0.0,0.0,0.0,0.0,0.0,0.0,-2.2723,-2.4327,-2.4679,-2.5176,-2.5863,-2.688,-2.7627,-2.8255,-2.8742,-2.912,-2.9355,-2.9355,-3.0111,-3.0591,-3.0591,-3.1412,-3.212,-3.2627,-3.2649,-3.3049,-3.3882,-3.3902,-3.4325,-3.5132,-3.5132,-3.5373,-3.5791,-3.5773,-3.5737,-3.5697,-3.5695,-3.5704,-3.5704,-3.5704,-3.5704,0.0,0.0,0.0,0.0,0.0,-3.5673,-3.5643,-3.562,-3.5608,-3.55,-3.4981,-3.4795,-3.4718,-3.4192,-3.4372,-3.4732,-3.4732,-3.5116,-3.5493,-3.5493,-3.5493,-3.5493,-3.5493,-3.5493,-3.5493,-3.5493,-3.5493,-3.5353,-3.4834,-3.4737,0.0,-3.2987,-3.2449,-3.1929,-3.1083,-3.0917,-3.077,-3.0343,-3.0292,-3.0299,-3.0299,-2.9864,-2.941,-2.9097,-2.8176,0.0,0.0,0.0,-2.5592,-2.5217,-2.5206,0.0,0.0,0.0,0.0,0.0,0.0,0.0,0.0,-2.2123,-2.1951,0.0,0.0,0.0,0.0,0.0,0.0,0.0,0.0,0.0,0.0,0.0,0.0,0.0,0.0,0.0,0.0,-2.4779,-2.6156,-2.7013,-2.7214,-2.7276,-2.7274,-2.8591,-2.9531,-2.9648,-3.0349,-3.0832,-3.0931,-3.1658,-3.2131,-3.2232,0.0,0.0,0.0,0.0,-3.391,-3.4728,-3.4748,-3.5126,-3.5898,-3.5898,-3.585,-3.5791,-3.5727,-3.5699,-3.5699,-3.5706,-3.5704,-3.5704,-3.58,-3.5897,-3.5955,-3.5762,-3.5704,-3.5684,-3.5612,-3.5601,-3.5601,-3.5584,0.0,0.0,-3.5515,-3.5502,-3.5489,-3.5488,-3.5493,-3.5493,-3.5493,-3.5493,-3.5493,-3.5493,-3.5493,-3.5493,-3.5493,-3.5493,-3.5493,-3.5493,-3.5493,-3.5493,-3.5493,-3.5493,-3.5257,-3.4468,-3.3622,-3.2776,-3.1955,-3.1789,-3.1418,-3.0541,-3.0439,-3.0394,-3.0299,0.0,0.0,-2.9206,-2.9053,-2.8332,-2.6784,-2.6656,-2.6297,-2.5512,-2.549,-2.549,-2.5474,-2.549,-2.5841,-2.6555,-2.6555,-2.6995,-2.7759,-2.4626,-2.4396,0.0,0.0,0.0,0.0,0.0,0.0,0.0,0.0,0.0,0.0,0.0,0.0,0.0,0.0,0.0,-2.4883,-2.6076,-2.7054,-2.7932,-2.8613,-2.9021,-2.9023,-2.9297,-2.9783,-3.0478,-3.0645,-3.102,-3.1792,-3.1948,-3.2352,-3.3112,-3.3256,-3.3647,-3.4354,-3.4321,-3.4688,-3.557,-3.557,-3.564,-3.5826,0.0,0.0,-3.5718,-3.5708,-3.5708,-3.5706,-3.5695,-3.5704,-3.5742,-3.64,-3.7077,-3.758,-3.6226,-3.5704,-3.5684,-3.5612,-3.5601,-3.5601,-3.554,-3.5515,-3.5515,-3.5501,-3.5488,-3.5488,-3.5507,-3.5493,0.0,-3.5493,-3.5493,-3.5493,-3.5493,-3.5493,-3.5493,-3.5493,-3.5493,-3.5493,-3.5493,-3.5493,-3.5493,-3.5493,-3.5493,-3.5449,-3.5276,-3.4526,-3.366,-3.2795,-3.2647,-3.2307,-3.1377,-3.1268,-3.1,-3.0297,-3.0221,-3.0131,-2.9978,-2.9379,-2.883,-2.8446,-2.7816,-2.7389,-2.7217,-2.7224,-2.7224,-2.7217,-2.7224,-2.7281,-2.7453,-2.7453,-2.7873,-2.8643,-2.7319,-2.6975,0.0,0.0,0.0,0.0,0.0,0.0,0.0,0.0,0.0,0.0,0.0,-2.0939,0.0,0.0,-2.4972,-2.6724,-2.7739,-2.8431,-2.8844,-2.9619,-2.9988,-2.9545,-2.9851,-3.0267,-3.0716,-3.114,-3.1578,-3.2021,-3.2828,-3.3511,-3.3977,-3.4347,-3.4754,-3.5189,-3.5166,-3.5363,-3.5799,-3.5799,-3.5782,-3.5745,-3.5745,-3.5737,-3.5707,-3.6114,-3.6287,-3.6323,-3.6767,-3.6942,-3.698,-3.7386,-3.782,-3.8117,-3.7286,-3.6957,-3.6938,-3.6883,-3.6819,-3.6794,-3.676,-3.6747,-3.6747,-3.6738,-3.6757,-3.6757,-3.6757,-3.6757,-3.6757,-3.6757,-3.6757,-3.6757,-3.6757,-3.643,-3.6103,-3.6103,-3.5795,-3.5493,-3.5493,-3.5493,-3.5493,-3.5493,-3.546,-3.546,-3.546,-3.5062,-3.4471,-3.3626,-3.3465,-3.3135,-3.2249,-3.212,-3.1781,-3.0887,-3.083,-3.0672,-3.0251,-2.9429,-2.8937,-2.8891,-2.8141,-2.7701,-2.7701,-2.7701,-2.7701,-2.7701,-2.7701,-2.7912,-2.83,-2.83,-2.8962,-3.0204,-2.9784,-2.9593,0.0,0.0,0.0,0.0,0.0,0.0,0.0,0.0,-1.9273,-2.027,-2.1761,-2.3308,-2.4655,-2.5618,-2.6715,-2.8293,-2.9135,-2.9629,-2.9733,-3.0334,-3.0501,-2.9806,-3.0295,-3.0677,-3.0689,-3.1507,-3.209,-3.2214,-3.3686,-3.4659,-3.4821,-3.5438,-3.5782,-3.5782,-3.5773,-3.5765,-3.5747,-3.5765,-3.5747,-3.5669,-3.5689,-3.5775,-3.5933,-3.6582,-3.6988,-3.7139,-3.7878,-3.8284,-3.8419,-3.8264,-3.8375,-3.864,-3.8485,-3.8524,-3.8608,-3.8234,-3.8053,-3.7993,-3.8003,-3.8007,-3.8007,-3.8007,-3.8007,-3.8007,-3.8007,-3.8007,-3.8007,-3.8007,-3.8007,-3.8007,-3.8007,-3.7488,-3.6949,-3.6949,-3.6469,-3.5949,-3.5776,-3.5872,-3.5878,-3.5551,-3.5561,-3.559,-3.5417,-3.535,-3.5085,-3.4424,-3.4285,-3.3953,-3.3134,-3.2989,-3.263,-3.1752,-3.1713,-3.1389,-3.0529,-2.965,-2.914,-2.914,-2.8542,-2.8198,-2.8198,-2.8198,-2.8198,-2.8198,-2.8198,-2.8599,-2.9407,-2.9388,-3.019,-3.1752,-3.1904,-3.1885,-1.7382,-1.7617,-1.8065,-1.9618,-1.9497,-2.0004,0.0,0.0,-2.2992,-2.4631,-2.5746,-2.649,-2.6665,-2.7415,-2.8338,-2.9297,-2.9482,-2.979,-3.0544,-3.0639,-3.0585,-3.0496,-3.0567,-3.0607,-3.0607,-3.1349,-3.2171,-3.3002,-3.3968,-3.4853,-3.5624,-3.5678,-3.5718,-3.5718,-3.5707,-3.5654,-3.5534,-3.5643,-3.5643,-3.5521,-3.5643,-3.6018,-3.6594,-3.6798,-3.7262,-3.7885,-3.8124,-3.86,-3.9213,-3.8479,-3.9045,-4.0274,-3.9546,-3.9706,-4.014,-3.8584,-3.8007,-3.7993,-3.8003,-3.8007,-3.8007,-3.8007,-3.8007,-3.8007,-3.8007,-3.8007,-3.8007,-3.8007,-3.8007,-3.8007,-3.8007,-3.793,-3.7853,-3.7853,-3.7796,-3.7507,-3.6738,-3.718,-3.7262,-3.5715,-3.6027,-3.6281,-3.545,-3.5304,-3.5273,-3.5193,-3.5159,-3.4837,-3.3983,-3.3853,-3.3528,-3.2634,-3.2558,-3.2248,-3.1427,-3.0567,-3.0051,-3.0051,-2.9975,-2.9917,-2.9917,-2.9917,-2.9917,-2.9917,-2.9917,-3.0357,-3.1217,-3.1159,-3.1618,-3.2577,-3.3356,-3.3318,-2.0585,-2.0974,-2.1132,0.0,-2.2167,-2.2734,-2.453,-2.4375,-2.4218,-2.5457,-2.639,-2.7142,-2.7614,-2.8415,-2.926,0.0,-3.0209,-3.0307,-3.0646,-3.064,-3.0598,-3.0598,-3.0604,-3.0602,-3.0606,-3.1823,-3.2779,-3.3164,-3.4438,-3.5369,-3.5717,-3.5728,-3.5697,-3.5697,-3.5612,-3.5596,-3.5608,-3.5596,-3.5572,-3.5515,-3.6023,-3.6447,-3.6793,-3.7835,-3.8782,-3.9625,-3.9651,-3.9844,-4.014,-3.9747,-3.999,-4.0579,-4.0217,-4.028,-4.0462,-3.9764,-3.9495,-3.9461,-3.9465,-3.945,-3.945,-3.945,-3.945,-3.945,-3.945,-3.945,-3.945,-3.945,-3.945,-3.945,-3.945,-3.9104,-3.8757,-3.8757,-3.8373,-3.7892,-3.7546,-3.7709,-3.7732,-3.7006,-3.7114,-3.7044,-3.6147,-3.6004,-3.5818,-3.5321,-3.5226,-3.5111,-3.4751,-3.4694,-3.4388,-3.3547,-3.3012,-3.2558,-3.2229,-3.1866,-3.1465,-3.0987,-3.0968,-3.072,-3.0223,-3.0204,-3.0433,-3.0949,-3.0968,-3.1369,-3.221,-3.2157,-3.2611,-3.3471,-3.3834,-3.4063,-2.2435,0.0,0.0,-2.3435,-2.4098,-2.4729,-2.4721,-2.4738,-2.4915,-2.5546,-2.6364,-2.7148,-2.7735,-2.8734,-2.9657,-3.0251,-3.0522,-3.0665,-3.0616,-3.0598,-3.0598,-3.0598,-3.0598,-3.0598,-3.0598,-3.1939,-3.2915,-3.316,-3.4526,-3.5456,-3.5689,-3.5706,-3.5673,-3.5651,-3.5596,-3.554,-3.5528,-3.5515,-3.5572,-3.5767,-3.6419,-3.6991,-3.7483,-3.8955,-4.0048,-4.0746,-4.07,-4.0687,-4.0673,-4.0626,-4.0583,-4.0573,-4.0573,-4.0539,-4.0523,-4.0539,-4.0539,-4.0489,-4.0489,-4.0489,-4.0489,-4.0489,-4.0489,-4.0489,-4.0489,-4.0489,-4.0489,-4.0489,-4.0489,-4.0489,-4.0489,-4.0065,-3.9623,-3.9623,-3.9161,-3.8627,-3.8377,-3.8466,-3.8454,-3.7958,-3.8024,-3.7876,-3.6979,-3.6831,-3.6547,-3.5687,-3.5572,-3.5477,-3.5229,-3.5209,-3.498,-3.4388,-3.3566,-3.307,-3.307,-3.2825,-3.2443,-3.1866,-3.1828,-3.156,-3.0911,-3.0892,-3.1197,-3.1828,-3.1828,-3.2248,-3.307,-3.307,-3.3509,-3.4331,-3.4331,-3.477,0.0,0.0,-2.4255,-2.4258,-2.4924,-2.5554,-2.5554,-2.5554,-2.5579,-2.5609,-2.6294,-2.6913,-2.6919,-2.83,-2.9419,-2.9438,-3.0095,-3.0607,-3.0598,-3.0598,-3.0598,-3.0598,-3.0598,-3.0598,0.0,-3.1352,-3.2184,-3.3035,-3.3924,-3.4805,-3.5646,-3.5704,-3.5651,-3.5515,-3.5639,-3.5515,-3.5122,-3.5369,-3.5797,-3.6381,-3.6656,-3.7584,-3.9073,-4.0027,-4.0521,-4.0621,-4.0668,-4.066,-4.0588,-4.0607,-4.0573,-4.0504,-4.0504,-4.0504,-4.0489,-4.0504,-4.0504,-4.0489,-4.0489,-4.0489,-4.0489,-4.0489,-4.0489,-4.0489,-4.0489,-4.0489,-4.0489,-4.0489,-4.0489,-4.0489,-4.0489,-4.0469,-4.045,-4.045,-4.0438,-4.0194,-3.9349,-3.9778,-3.9823,-3.8142,-3.847,-3.8757,-3.7825,-3.7655,-3.7387,-3.6585,-3.647,-3.6165,-3.5305,-3.5209,-3.519,-3.5171,-3.4445,-3.3949,-3.3949,-3.3203,-3.2691,-3.2672,-3.2653,-3.2653,-3.2615,-3.2615,-3.2634,-3.2653,-3.2653,-3.3089,-3.3949,-3.3949,-3.4369,-3.5171,-3.5171,-3.563,-2.3902,0.0,-2.4423,-2.4957,-2.5327,-2.5546,-2.5585,-2.5568,-2.555,-2.5601,-2.6287,-2.6889,-2.6838,-2.7776,-2.8702,-2.9254,-2.9553,-2.994,-3.052,-3.1062,-3.1197,-3.0656,-3.1081,0.0,0.0,0.0,0.0,-3.3024,-3.3905,-3.4775,-3.5646,-3.5608,-3.5596,-3.562,-3.5416,-3.5311,-3.5355,-3.5281,-3.5627,-3.642,-3.7663,-3.8857,-3.9986,-4.038,-4.0574,-4.0588,-4.0612,-4.0617,-4.0607,-4.0539,-4.0523,-4.0489,-4.0489,-4.0489,-4.0489,-4.0489,-4.0489,-4.0489,-4.0489,-4.0489,-4.0489,-4.0489,-4.0489,-4.0489,-4.0489,-4.0489,-4.0489,-4.0489,-4.0489,-4.0489,-4.0489,-4.0492,-4.0515,-4.0515,-4.0466,-4.0356,-4.0068,-4.0168,-4.0152,-3.9561,-3.9715,-3.9603,-3.8725,-3.8553,-3.8094,-3.6719,-3.6012,-3.5534,-3.5248,-3.5209,-3.5209,-3.5209,-3.4961,-3.4808,-3.4808,-3.4541,-3.414,-3.3605,-3.3566,-3.3299,-3.2711,-3.2691,-3.2974,-3.3547,-3.3566,-3.3968,-3.4808,-3.4808,-3.4942,-3.5209,-3.5802,-3.6222,-2.4635,-2.4915,-2.493,-2.573,-2.5936,-2.5936,-2.5982,-2.5747,-2.5511,-2.5569,-2.6002,-2.6389,-2.6343,-2.7028,-2.786,-2.8702,-2.9089,-2.9708,-3.0868,-3.1236,-3.141,-3.1487,-3.1681,-3.1719,0.0,0.0,0.0,-3.3063,-3.3905,-3.4765,-3.5581,-3.5596,-3.5572,-3.556,-3.5311,-3.5216,-3.5292,-3.5372,-3.6044,-3.7278,-3.8795,-3.9835,-4.0473,-4.0545,-4.0593,-4.0564,-4.0588,-4.0592,-4.0573,-4.0523,-4.0489,-4.0489,-4.0489,-4.0489,-4.0489,-4.0489,-4.0489,-4.0489,-4.0489,-4.0489,-4.0489,-4.0489,-4.0489,-4.0489,-4.0489,-4.0508,-4.0492,-4.0492,-4.0476,-4.046,-4.046,-4.0463,-4.0449,-4.0449,-4.0396,-4.0362,-4.0362,-4.0326,-4.029,-4.029,-4.031,-4.0119,-3.9565,-3.9221,-3.8629,-3.7559,-3.6661,-3.5878,-3.5286,-3.5209,-3.5209,-3.5209,-3.5209,-3.5209,-3.5209,-3.5209,-3.498,-3.4464,-3.4426,-3.4178,-3.3624,-3.3589,-3.3872,-3.4426,-3.4426,-3.4674,-3.5209,-3.5515,-3.5668,-3.5687,-3.6528,-3.7101,-2.4307,-2.4934,-2.5742,-2.6517,-2.6702,-2.6683,-2.6644,-2.6044,-2.5492,-2.5434,-2.5434,-2.5414,0.0,0.0,-2.6865,-2.7793,-2.8664,-2.9824,-3.1565,-3.1178,-3.1313,0.0,0.0,0.0,0.0,0.0,0.0,-3.3149,0.0,-3.4693,-3.5445,-3.5608,-3.556,-3.5315,-3.5326,-3.5235,-3.4963,-3.574,-3.7031,-3.8804,-3.99,-4.0457,-4.0573,-4.0579,-4.0564,-4.0473,-4.0558,-4.0539,-4.0489,-4.0489,-4.0489,-4.0489,-4.0489,-4.0489,-4.0489,-4.0489,-4.0489,-4.0489,-4.0489,-4.0489,-4.0489,-4.0489,-4.0489,-4.0489,-4.0489,-4.0495,-4.0502,-4.0502,-4.0449,-4.0398,-4.0398,-4.0398,-4.0379,-4.0379,-4.0344,-4.0307,-4.0307,-4.0309,-4.031,-4.031,-4.031,-4.031,-4.031,-3.9623,-3.9049,-3.9011,-3.8304,-3.7158,-3.5477,-3.5267,-3.5248,-3.5209,-3.5209,-3.5209,-3.5209,-3.5209,-3.5209,-3.5209,-3.5209,-3.5209,-3.5209,-3.5209,-3.5209,-3.5209,-3.5209,-3.5229,-3.5267,-3.6107,-3.6528,-3.6585,-3.7387,-3.8209,-2.5781,-2.6258,-2.6447,-2.6652,-2.6702,-2.6547,-2.5936,-2.5646,-2.5318,-2.4679,-2.4525,-2.4331,0.0,0.0,0.0,-2.6787,-2.7755,0.0,-3.1468,-3.2184,0.0,-3.3044,0.0,-3.3576,-3.314,-3.3633,0.0,0.0,-3.3987,-3.4468,-3.532,-3.5292,-3.5266,-3.53,-3.5696,-3.5912,-3.5948,-3.726,-3.8248,-3.8823,-3.9886,-4.0377,-4.0323,-4.0457,-4.0336,-3.9984,-4.0372,-4.0425,-4.0286,-4.0441,-4.0489,-4.0489,-4.0489,-4.0489,-4.0489,-4.0489,-4.0489,-4.0489,-4.0489,-4.0489,-4.0489,-4.0489,-4.0492,-4.0499,-4.0499,-4.0466,-4.0432,-4.0432,-4.0415,-4.0398,-4.0398,-4.0362,-4.0325,-4.0325,-4.0308,-4.031,-4.031,-4.0291,-4.031,-4.031,-4.031,-4.031,-4.031,-4.0119,-3.9756,-3.9107,-3.882,-3.8056,-3.6394,-3.6184,-3.5935,-3.5267,-3.5209,-3.5209,-3.5209,-3.5209,-3.5209,-3.5209,-3.5209,-3.5209,-3.5209,-3.5209,-3.5209,-3.5209,-3.5209,-3.5534,-3.6184,-3.6394,-3.6814,-3.7406,-3.8266,-3.8782,-2.6482,-2.7287,-2.7755,-2.7368,-2.7271,-2.6962,-2.5762,-2.5201,-2.4679,-2.3809,-2.3635,0.0,-2.2997,0.0,0.0,0.0,0.0,0.0,-3.1438,-3.2201,-3.2916,0.0,-3.4287,0.0,-3.4089,-3.4481,-3.4653,0.0,-3.4534,-3.4759,-3.5193,-3.51,-3.5102,-3.5203,-3.5704,-3.63,-3.6993,-3.8069,-3.8816,-3.9257,-3.9966,-4.027,-4.0214,-4.0194,-4.0062,-3.9819,0.0,-4.0304,-4.0214,-4.0425,-4.0489,-4.0489,-4.0489,-4.0489,-4.0489,-4.0489,-4.0489,-4.0489,-4.0492,-4.0511,-4.0511,-4.0511,-4.0463,-4.0468,-4.0468,-4.0415,-4.0362,-4.0362,-4.0363,-4.0364,-4.0364,-4.0327,-4.029,-4.029,-4.031,-4.031,-4.031,-4.031,-4.031,-4.031,-4.031,-4.031,-4.031,-4.031,-4.0138,-3.9642,-3.9565,-3.9088,-3.7769,-3.7273,-3.6852,-3.6356,-3.5993,-3.5783,-3.5783,-3.542,-3.5209,-3.5209,-3.5209,-3.5209,-3.5209,-3.5209,-3.5209,-3.5209,-3.5592,-3.6012,-3.6491,-3.7254,-3.7827,-3.8285,-3.9164,-3.9565,-2.6837,-2.8064,-2.9089,-2.8227,-2.7995,-2.7522,-2.5743,-2.466,-2.3751,-2.2765,0.0,-2.2525,-2.2416,-2.328,-2.4277,-2.5112,0.0,-2.885,-3.13,-3.1772,-3.2764,-3.5128,-3.4834,-3.4655,-3.5239,-3.5266,-3.5168,-3.4962,-3.5136,-3.5187,-3.5034,-3.4999,-3.5094,-3.534,-3.5849,-3.6742,-3.8042,-3.8516,-3.9096,-3.9754,-4.0081,-4.0177,-4.0101,-3.9922,-3.9797,-3.9731,-4.0062,-4.0196,-4.0158,-4.0389,-4.0489,-4.0489,-4.0489,-4.0489,-4.0489,-4.0489,-4.0489,-4.0508,-4.0499,-4.0502,-4.0466,-4.0466,-4.0432,-4.0398,-4.0398,-4.0344,-4.0289,-4.0289,-4.0309,-4.031,-4.031,-4.031,-4.031,-4.031,-4.031,-4.031,-4.031,-4.031,-4.031,-4.031,-4.031,-4.031,-4.031,-4.031,-4.031,-4.031,-4.031,-4.0043,-3.9279,-3.8419,-3.7827,-3.7712,-3.7082,-3.6661,-3.6661,-3.5974,-3.5534,-3.5534,-3.5534,-3.5534,-3.5534,-3.5534,-3.5534,-3.5534,-3.6279,-3.6719,-3.6852,-3.8285,-3.9069,-3.9202,-3.9947,-4.031,-2.758,-2.8509,-2.9089,-2.8227,-2.7995,-2.7368,-2.4969,-2.3751,0.0,0.0,-2.0797,-2.0545,-1.9877,-2.1562,-2.3342,-2.4262,0.0,0.0,0.0,0.0,-3.3199,0.0,0.0,0.0,0.0,0.0,0.0,0.0,-3.4851,-3.4889,-3.4714,-3.4832,-3.5456,-3.6625,-3.7404,-3.8134,-3.8878,-3.9364,-3.9577,-3.9556,-4.0157,-4.0157,-3.9628,-3.9962,-3.9794,-3.9253,-3.992,0.0,-3.9903,-4.0319,-4.0489,-4.0489,-4.0489,-4.0489,-4.0489,-4.0489,-4.0492,-4.0499,-4.0502,-4.0432,-4.0342,-4.0415,-4.0379,-4.0325,-4.0325,-4.0308,-4.0291,-4.0291,-4.0291,-4.031,-4.031,-4.031,-4.031,-4.031,-4.031,-4.031,-4.031,-4.031,-4.031,-4.031,-4.031,-4.031,-4.031,-4.031,-4.031,-4.031,-4.031,-4.0253,-4.01,-3.9317,-3.8495,-3.7769,-3.7578,-3.7483,-3.7483,-3.7349,-3.7273,-3.7273,-3.7273,-3.7273,-3.7273,-3.7273,-3.7273,-3.7273,-3.7406,-3.7846,-3.8572,-3.8858,-3.9374,-4.0081,-4.0234,-4.031,-2.789,-2.8973,-2.965,-2.8335,-2.7995,-2.7213,-2.4208,0.0,0.0,0.0,-1.9316,-1.898,-1.9072,0.0,0.0,0.0,0.0,0.0,0.0,0.0,0.0,0.0,0.0,0.0,0.0,0.0,0.0,0.0,-3.4607,-3.4691,-3.4607,-3.4691,-3.5399,-3.6814,-3.7219,-3.797,-3.9082,-3.9464,-3.9585,-3.9483,-3.9835,-3.9813,-3.9483,-3.9585,-3.9439,-3.9129,-3.9609,-3.9816,-3.984,-4.0194,-4.0408,-4.0489,-4.0489,-4.0489,-4.0489,-4.0511,-4.0499,-4.0502,-4.0413,-4.0342,-4.0307,-4.0345,-4.0327,-4.0309,-4.0309,-4.031,-4.031,-4.031,-4.031,-4.031,-4.031,-4.031,-4.031,-4.031,-4.031,-4.031,-4.031,-4.031,-4.031,-4.031,-4.031,-4.031,-4.031,-4.031,-4.031,-4.031,-4.031,-4.031,-4.031,-3.9947,-3.9527,-3.9107,-3.8648,-3.8381,-3.8381,-3.796,-3.7693,-3.7693,-3.7693,-3.7693,-3.7693,-3.7693,-3.7693,-3.7693,-3.8151,-3.8572,-3.9011,-3.947,-3.989,-4.031,-4.031,-4.031,-2.7956,-2.9128,-2.994,-2.8393,-2.7995,-2.7097,-2.3671,-2.2072,0.0,0.0,-1.804,-1.7665,-1.8628,0.0,0.0,0.0,0.0,0.0,0.0,0.0,0.0,0.0,0.0,0.0,0.0,0.0,0.0,0.0,-3.4473,-3.4602,-3.4602,-3.4727,-3.5381,-3.6675,-3.6872,-3.7652,-3.9082,-3.9376,-3.9458,-3.9427,-3.9532,-3.9508,-3.9427,-3.9245,-3.9137,-3.9129,-3.9376,-3.9561,-3.975,-4.0042,-4.0213,-4.03,-4.0372,-4.0353,-4.0319,-4.0306,-4.0325,-4.0362,-4.0252,-4.0252,-4.0308,-4.0291,-4.031,-4.031,-4.031,-4.031,-4.031,-4.031,-4.031,-4.031,-4.031,-4.031,-4.031,-4.031,-4.031,-4.031,-4.031,-4.031,-4.031,-4.031,-4.031,-4.031,-4.031,-4.031,-4.031,-4.031,-4.031,-4.031,-4.031,-4.031,-4.031,-4.031,-3.9699,-3.9279,-3.9279,-3.8648,-3.8266,-3.8266,-3.8266,-3.8266,-3.8266,-3.8266,-3.8266,-3.8266,-3.8935,-3.9279,-3.9279,-3.9966,-4.031,-4.031,-4.031,-4.031,-2.7774,-2.8683,-2.9186,-2.8247,-2.7995,-2.7097,-2.3671,0.0,0.0,-1.8182,-1.7036,-1.6645,-1.7646,-1.9088,0.0,0.0,0.0,-2.6006,0.0,0.0,0.0,0.0,0.0,0.0,0.0,0.0,0.0,0.0,-3.4602,-3.4602,-3.4602,-3.5128,-3.5801,-3.6668,-3.7411,-3.8209,-3.9082,-3.9376,-3.9376,-3.9137,-3.9566,-3.9566,-3.9137,-3.9376,-3.9324,-3.9129,-3.9324,-3.9427,0.0,-3.9878,-3.9901,-3.9712,-3.9963,-3.9903,-3.969,-3.9668,-3.9797,-3.9943,-3.9922,-4.0099,-4.0291,-4.031,-4.031,-4.031,-4.031,-4.031,-4.031,-4.031,-4.031,-4.031,-4.031,-4.031,-4.031,-4.031,-4.031,-4.031,-4.031,-4.031,-4.031,-4.031,-4.031,-4.031,-4.031,-4.031,-4.031,-4.031,-4.031,-4.031,-4.031,-4.031,-4.031,-4.031,-4.0234,-4.0196,-4.0196,-4.0119,-4.0062,-4.0062,-4.0062,-4.0062,-4.0062,-4.0062,-4.0062,-4.0062,-4.0138,-4.0196,-4.0196,-4.0272,-4.031,-4.031,-4.031,-4.031,-2.6966,-2.7853,-2.8308,-2.743,-2.7217,-2.6446,-2.3456,0.0,-1.9679,-1.7884,-1.6383,-1.5817,-1.7351,-1.771,-1.8686,0.0,-2.2096,-2.317,-2.5894,0.0,0.0,0.0,0.0,0.0,0.0,0.0,0.0,0.0,-3.4602,-3.4517,-3.4381,-3.4604,-3.533,-3.6649,-3.7002,-3.7801,-3.9082,-3.9192,-3.9183,-3.9036,-3.9279,-3.9253,-3.896,-3.9129,-3.9129,-3.8979,-3.9045,-3.921,0.0,-3.9513,-3.959,-3.9622,-3.9731,-3.969,-3.9599,-3.9552,-3.9709,-3.9901,-3.9897,-4.0078,-4.0272,-4.0118,-4.0077,-4.0098,-4.0253,-4.031,-4.031,-4.031,-4.031,-4.031,-4.031,-4.031,-4.031,-4.031,-4.031,-4.031,-4.031,-4.031,-4.031,-4.031,-4.031,-4.031,-4.031,-4.031,-4.031,-4.031,-4.031,-4.031,-4.031,-4.031,-4.031,-4.031,-4.031,-4.031,-4.031,-4.031,-4.031,-4.031,-4.031,-4.031,-4.031,-4.031,-4.031,-4.031,-4.031,-4.031,-4.031,-4.031,-4.031,-4.031,-4.031,-4.0559,-2.6005,-2.692,-2.7469,-2.6843,-2.666,-2.5948,0.0,-2.135,-1.9564,-1.7747,-1.5979,-1.5264,-1.6886,-1.6851,-1.7556,-2.0528,-2.0709,-2.1559,-2.466,-2.5817,0.0,0.0,0.0,0.0,0.0,0.0,0.0,0.0,-3.4561,-3.4495,-3.4221,-3.4173,-3.4934,-3.6623,-3.6679,-3.7413,-3.9045,-3.9045,-3.9036,-3.895,-3.9036,-3.9007,-3.891,-3.895,-3.8921,-3.891,-3.8881,-3.8979,0.0,-3.9219,-3.9279,-3.9327,-3.9427,-3.9402,-3.9327,-3.9294,-3.9427,-3.966,-3.9651,-3.9848,-4.0017,-3.9829,-3.9785,-3.9826,-3.9996,-4.0057,-4.0077,-4.0157,-4.0234,-4.031,-4.031,-4.031,-4.0291,-4.0196,-4.0176,-4.0157,-4.0077,-4.0057,-4.0057,-4.0057,-4.0057,-4.0077,-4.0176,-4.0176,-4.0215,-4.0291,-4.031,-4.031,-4.031,-4.031,-4.031,-4.031,-4.031,-4.031,-4.031,-4.031,-4.031,-4.031,-4.031,-4.031,-4.031,-4.031,-4.031,-4.031,-4.031,-4.031,-4.031,-4.031,-4.031,-4.031,-4.054,-4.1227,-2.5004,-2.5948,-2.6708,-2.6698,-2.6611,-2.5836,0.0,-2.12,-1.9326,-1.7662,-1.5905,-1.5007,-1.6033,-1.6902,-1.807,-1.9831,-2.0824,-2.2206,-2.4569,-2.5658,0.0,0.0,0.0,0.0,0.0,0.0,0.0,-3.4221,-3.445,0.0,-3.4221,-3.4148,-3.4877,-3.6535,-3.6591,-3.7341,-3.8892,-3.8892,-3.8892,-3.891,-3.8892,-3.891,-3.891,-3.891,-3.891,-3.891,-3.8822,-3.8822,0.0,-3.9017,-3.895,-3.8738,-3.8989,-3.895,-3.8707,-3.8707,-3.8881,-3.9101,-3.9101,-3.9272,-3.9526,-3.9526,-3.9483,-3.9483,-3.9526,-3.9526,-3.9556,-3.9829,-4.0098,-4.031,-4.031,-4.031,-4.0234,-3.9975,-3.9914,-3.9829,-3.9575,-3.9526,-3.9526,-3.9526,-3.9526,-3.9599,-3.987,-3.9914,-3.9996,-4.0253,-4.031,-4.031,-4.031,-4.031,-4.031,-4.031,-4.031,-4.031,-4.031,-4.031,-4.031,-4.031,-4.031,-4.031,-4.031,-4.031,-4.031,-4.031,-4.031,-4.031,-4.031,-4.031,-4.031,-4.0329,-4.1113,-4.2374,-2.2274,-2.3176,-2.3684,-2.3091,-2.3354,-2.3229,-2.1191,-1.9824,-1.8471,-1.6717,-1.5458,-1.5007,-1.6005,-1.5945,-1.6657,-1.9494,-1.9692,0.0,0.0,0.0,0.0,0.0,0.0,0.0,0.0,0.0,0.0,-3.4473,-3.4539,-3.4473,-3.4148,-3.4124,-3.4877,-3.6535,-3.6564,-3.7295,-3.8873,-3.891,-3.8881,-3.8851,-3.8881,-3.8851,-3.875,-3.8822,-3.8792,-3.875,-3.875,-3.8719,-3.8719,-3.8792,-3.878,-3.8707,-3.8792,-3.878,-3.8707,-3.8707,-3.8881,-3.9101,-3.9101,-3.9272,-3.9477,-3.9298,-3.9219,-3.9192,-3.9007,-3.9192,-3.9526,-3.958,-3.9693,-3.9739,-3.9739,-3.9739,-3.9717,-3.9647,-3.9623,-3.958,-3.9526,-3.9502,-3.9502,-3.9502,-3.9502,-3.9526,-3.9623,-3.9623,-3.967,-3.9739,-3.9914,-4.0017,-4.0017,-4.0176,-4.031,-4.031,-4.031,-4.031,-4.031,-4.031,-4.031,-4.031,-4.031,-4.031,-4.031,-4.031,-4.031,-4.031,-4.031,-4.031,-4.031,-4.031,-4.0578,-4.1151,-4.2565,-4.3501,0.0,-2.113,-2.1874,-2.1331,-2.1571,-2.1556,-2.0132,-1.888,-1.7629,-1.619,-1.5258,-1.4914,-1.558,-1.5769,-1.6498,-1.8607,-1.9262,-2.0363,0.0,0.0,0.0,0.0,0.0,0.0,0.0,0.0,-3.4495,-3.4363,-3.4473,-3.4386,-3.4074,-3.4049,-3.4652,-3.6038,-3.6021,-3.6749,-3.8361,-3.8361,-3.8497,-3.8762,-3.8792,-3.878,-3.8707,-3.875,-3.875,-3.8707,-3.8707,-3.8707,0.0,-3.8707,-3.8707,-3.8707,-3.8707,-3.8707,-3.8707,-3.8707,-3.881,-3.895,-3.895,-3.9045,-3.9165,-3.8989,-3.895,-3.8939,-3.875,-3.8989,-3.935,-3.935,-3.9408,-3.9502,-3.9502,-3.9502,-3.9458,-3.9357,-3.9575,-3.9698,-3.9293,-3.9434,-3.9564,-3.9266,-3.9192,-3.9219,-3.9324,-3.935,-3.9401,-3.9483,-3.9739,-3.9851,-3.9679,-4.0038,-4.0196,-3.9916,-3.9998,-4.0019,-3.9895,-4.0138,-4.031,-4.031,-4.0291,-4.0272,-4.031,-4.0176,-4.0176,-4.031,-4.0196,-4.0348,-4.075,-4.1074,-4.1667,-4.2469,-4.352,-4.4168,0.0,-1.9601,0.0,-2.0864,-2.0769,-2.0509,-1.9712,-1.8235,0.0,-1.5982,-1.5221,-1.4773,-1.5033,-1.6234,-1.7315,-1.7623,-1.9548,0.0,0.0,0.0,0.0,0.0,0.0,0.0,0.0,0.0,-3.4269,-3.4023,-3.4221,-3.4269,-3.3998,-3.3921,-3.4281,-3.5064,-3.5046,-3.5772,-3.7415,-3.7489,-3.7863,-3.8615,-3.867,-3.8707,-3.8707,-3.8707,-3.8707,0.0,-3.8707,-3.8707,-3.8707,-3.8707,-3.8707,-3.8707,-3.8707,-3.8707,-3.8707,-3.8707,-3.8707,-3.8707,-3.8707,-3.8707,-3.8707,-3.8707,-3.8658,-3.8676,-3.8676,-3.8862,-3.9073,-3.9073,-3.9245,-3.9433,-3.9433,-3.9433,-3.9357,-3.911,-3.9657,-3.9989,-3.8989,-3.9392,-3.9735,-3.8915,-3.875,-3.8823,-3.911,-3.9082,-3.9175,-3.9551,-3.9727,-3.9717,-3.9401,-3.9848,-3.9956,-3.9282,-3.9481,-3.9548,-3.9305,-3.987,-4.0234,-4.0215,-4.0214,-4.0253,-4.0349,-4.0106,-4.0125,-4.0463,-4.0228,-4.0589,-4.159,-4.245,-4.3251,-4.3996,-4.4053,-4.4491,-1.5554,0.0,-1.806,-1.7393,-1.77,-1.7949,0.0,-1.653,-1.5945,-1.5147,-1.4783,-1.5069,-1.6536,-1.6496,-1.7133,-1.9931,-2.0766,-2.162,0.0,0.0,0.0,0.0,0.0,0.0,0.0,0.0,-3.4074,-3.3998,-3.4074,-3.4049,-3.3921,-3.3895,-3.396,-3.4127,-3.4109,-3.4917,-3.656,-3.7184,-3.7569,-3.7771,-3.8414,-3.8707,-3.8707,-3.8707,-3.8707,-3.8707,-3.8707,-3.8707,-3.8707,-3.8707,-3.8707,-3.8707,-3.8707,-3.8707,-3.8707,-3.8707,-3.8707,-3.8707,-3.8707,-3.8707,-3.8658,-3.859,-3.8528,-3.8465,-3.8465,-3.864,-3.8792,-3.8792,-3.8773,-3.8748,-3.8748,-3.8688,-3.8646,-3.8585,-3.9177,-3.9694,-3.9433,-4.0035,-4.0364,-3.9542,-3.9396,-3.9429,-3.9475,-3.8975,-3.9006,-4.0286,-3.9671,-3.925,-3.9777,-3.9597,-3.9402,-3.9231,-3.9282,-3.9526,-4.0074,-3.9758,-3.95,-3.9451,-4.0058,-4.0532,-4.0757,-4.1269,-4.1718,-4.206,-4.2041,-4.2136,-4.2326,-4.3207,-4.3723,-4.3871,-4.4538,-4.4957,-1.4804,-1.6025,-1.7283,-1.7252,-1.7259,-1.7283,-1.72,-1.6242,-1.5221,0.0,0.0,0.0,0.0,0.0,0.0,0.0,-2.1597,0.0,0.0,0.0,0.0,0.0,0.0,0.0,0.0,0.0,-3.4049,-3.3921,-3.4023,-3.4023,-3.3868,-3.3842,-3.386,-3.3807,-3.3807,-3.4412,-3.5697,-3.6138,-3.6743,-3.7526,-3.7936,-3.834,-3.8707,-3.8707,-3.8707,-3.8707,-3.8707,-3.8707,-3.8707,-3.8707,-3.8707,-3.8707,-3.8707,-3.8707,-3.8707,-3.8707,-3.8658,-3.8609,-3.8609,-3.8578,-3.8546,-3.8478,-3.8415,-3.8382,-3.8382,-3.8465,-3.8546,-3.8546,-3.8496,-3.8446,-3.8446,-3.8688,-3.8948,-3.8948,-3.9841,-4.0607,-4.0242,-4.0789,-4.1118,-4.0315,-4.0151,-4.0151,-4.0151,-3.9786,-3.9805,-4.068,-4.0267,-4.0001,-4.0272,-4.0314,-4.0179,-3.9829,-3.9949,-4.0163,-4.0425,-4.0136,-4.0055,-4.029,-4.0728,-4.1052,-4.121,-4.1635,-4.2046,-4.2412,-4.2949,-4.3183,-4.3161,-4.4021,-4.4421,-4.4398,-4.4874,-4.508,-1.496,-1.6272,-1.7669,-1.8213,-1.7841,-1.7535,-1.8251,0.0,0.0,0.0,0.0,0.0,0.0,-1.8569,0.0,0.0,0.0,0.0,0.0,0.0,0.0,0.0,0.0,0.0,-3.3954,-3.403,-3.4049,-3.3834,-3.3998,-3.4049,-3.3815,-3.3807,-3.3807,-3.3807,-3.3807,-3.4137,-3.4807,-3.4935,-3.5789,-3.7312,-3.7452,-3.7918,-3.8707,-3.8707,-3.8707,-3.8707,0.0,0.0,-3.8707,-3.8707,-3.8707,-3.8707,-3.8707,-3.8707,-3.8707,-3.8707,-3.8609,-3.851,-3.851,-3.8446,-3.8382,-3.8382,-3.8401,-3.8368,-3.8368,-3.8368,-3.8368,-3.8368,-3.8401,-3.8382,-3.8382,-3.897,-3.9571,-3.9571,-4.0792,-4.1775,-4.1067,-4.1575,-4.1903,-4.1085,-4.0921,-4.0921,-4.0921,-4.083,-4.083,-4.1067,-4.1101,-4.1024,-4.0868,-4.1185,-4.1188,-4.0563,-4.0787,-4.0909,-4.0709,-4.078,-4.111,-4.1753,-4.1661,-4.1672,-4.1853,-4.192,-4.2155,-4.2536,-4.3436,-4.3935,-4.3977,-4.4718,-4.508,-4.508,-4.508,-4.5057,-1.5666,-1.7322,-1.8323,-1.6995,-1.711,-1.7562,-1.7577,-1.7204,0.0,0.0,0.0,0.0,0.0,-2.0066,-2.0589,0.0,0.0,0.0,0.0,0.0,0.0,0.0,0.0,-3.4508,-3.4464,-3.4087,-3.3842,-3.3788,-3.386,-3.3842,-3.3788,-3.3807,-3.3807,-3.3807,-3.3807,-3.3862,-3.399,-3.4642,-3.5514,-3.6486,-3.7165,-3.7918,-3.8707,-3.8707,-3.8707,-3.8707,0.0,-3.8707,-3.8707,-3.8707,-3.8707,-3.8707,-3.8707,-3.8707,-3.8707,-3.8707,-3.8707,-3.8658,-3.8541,-3.8433,-3.834,-3.834,-3.8274,-3.8241,-3.8241,-3.8241,-3.8241,-3.8241,-3.8274,-3.834,-3.834,-3.8873,-3.9422,-3.9422,-4.0618,-4.1724,-4.1597,-4.2195,-4.2503,-4.1724,-4.1579,-4.1579,-4.1579,-4.0999,-4.1017,-4.2358,-4.1434,-4.0817,-4.1488,-4.1016,-4.0633,-4.051,-4.0545,-4.0853,-4.147,-4.1542,-4.1887,-4.2632,-4.214,-4.2242,-4.3085,-4.3415,-4.3722,-4.4054,-4.4275,-4.4506,-4.473,-4.4934,-4.4986,-4.4919,-4.4919,-4.4938,-1.4749,-1.5905,-1.7044,-1.7612,-1.8718,-1.9629,-1.9583,-1.9085,0.0,0.0,0.0,0.0,0.0,0.0,-2.2734,0.0,0.0,-2.7656,-2.8798,-3.0805,-3.2267,0.0,0.0,-3.4464,-3.4394,-3.403,-3.3807,-3.3807,-3.3807,-3.3807,-3.3807,-3.3807,-3.3807,-3.3807,-3.3807,-3.3807,-3.3807,-3.4174,-3.478,-3.5624,-3.645,-3.7257,-3.8065,-3.8505,-3.8707,-3.8707,0.0,-3.8707,-3.8707,-3.8707,-3.8707,-3.8707,-3.8707,-3.8707,-3.8676,-3.8578,-3.8515,-3.8469,-3.8387,-3.8289,-3.8259,-3.8259,-3.8225,-3.8192,-3.8192,-3.8192,-3.8192,-3.8192,-3.8207,-3.835,-3.8785,-3.944,-4.0111,-4.0546,-4.1524,-4.2357,-4.2357,-4.2629,-4.2774,-4.2411,-4.2357,-4.2357,-4.2357,-4.2049,-4.2049,-4.2774,-4.2266,-4.1922,-4.2303,-4.2031,-4.1796,-4.1796,-4.1796,-4.1959,-4.2321,-4.2357,-4.2502,-4.2864,-4.2594,-4.2723,-4.3387,-4.3557,-4.3862,-4.4383,-4.4438,-4.461,-4.4895,-4.4919,-4.4919,-4.4895,-4.4895,-4.4895,-1.4284,-1.4961,-1.6112,-1.8666,-2.0073,-2.0976,-2.1531,-2.0925,0.0,0.0,0.0,0.0,0.0,0.0,0.0,-2.6472,-2.7969,-2.9034,-2.9172,-3.1097,-3.2501,-3.2476,-3.3505,-3.4236,-3.4279,-3.3998,-3.3807,-3.3807,-3.3807,-3.3807,-3.3807,-3.3807,-3.3807,-3.3807,-3.3807,-3.3807,-3.3807,-3.3807,-3.4211,-3.5009,-3.5679,-3.6431,-3.7239,-3.8046,-3.8414,-3.8432,-3.8615,-3.8707,-3.8707,-3.8707,-3.8658,-3.8658,-3.8658,-3.8658,-3.8627,-3.8465,-3.8336,-3.8307,-3.8241,-3.8225,-3.8192,-3.8192,-3.8192,-3.8192,-3.8192,-3.8192,-3.8192,-3.8192,-3.8192,-3.8337,-3.8952,-3.9804,-4.0673,-4.1289,-4.2176,-4.2882,-4.2882,-4.2882,-4.2882,-4.2882,-4.2882,-4.2882,-4.2882,-4.2882,-4.2882,-4.2882,-4.2882,-4.2882,-4.2882,-4.2882,-4.2882,-4.2882,-4.2882,-4.2882,-4.2882,-4.2882,-4.2882,-4.2882,-4.2882,-4.3014,-4.3266,-4.3266,-4.359,-4.427,-4.427,-4.4503,-4.4895,-4.4895,-4.4895,-4.4895,-4.4895,-4.4895,-1.5645,-1.6349,-1.7023,-1.9573,-1.9696,-1.9734,-2.1928,-2.179,0.0,-2.2004,0.0,0.0,0.0,-2.5061,0.0,-2.7471,-2.8345,-2.9192,-2.9994,0.0,-3.1866,-3.2581,-3.311,-3.366,-3.4411,-3.4062,-3.3807,-3.3807,-3.3807,-3.3807,-3.3807,-3.3807,-3.3807,-3.3807,-3.3807,-3.3807,-3.3807,-3.3807,-3.4211,-3.499,-3.5045,-3.5569,-3.6413,-3.7202,-3.7569,-3.7606,-3.8377,-3.8707,-3.8707,-3.8707,-3.8609,-3.851,-3.851,-3.8478,-3.8415,-3.8433,-3.8336,-3.8307,-3.8307,-3.8241,-3.8192,-3.8192,-3.8192,-3.8192,-3.8192,-3.8192,-3.8192,-3.8192,-3.8192,-3.8192,-3.8264,-3.9387,-4.0528,-4.0582,-4.1778,-4.2882,-4.2882,-4.2882,-4.2882,-4.2882,-4.2882,-4.2882,-4.2882,-4.2882,-4.2882,-4.2882,-4.2882,-4.2882,-4.2882,-4.2882,-4.2882,-4.2882,-4.2882,-4.2882,-4.2882,-4.2882,-4.2882,-4.2882,-4.2882,-4.292,-4.292,-4.292,-4.3231,-4.3912,-4.3943,-4.4242,-4.4895,-4.4895,-4.4895,-4.4895,-4.4895,-4.4895,-1.4472,-1.528,-1.6285,-1.8793,-1.9964,0.0,0.0,-2.3605,-2.4564,-2.4839,-2.4903,0.0,0.0,0.0,-2.7351,-2.7657,-2.8829,-2.9822,-3.0147,-3.0911,-3.156,-3.1866,-3.2278,-3.2874,-3.3682,-3.3321,-3.3256,-3.3752,-3.3807,-3.3807,-3.3807,-3.3807,-3.3807,-3.3807,-3.3807,-3.3807,-3.3807,-3.3807,-3.3954,-3.4266,-3.4752,-3.5155,-3.5532,-3.6376,-3.6971,-3.7387,-3.7699,-3.8071,-3.8496,-3.8496,-3.8496,-3.8446,-3.8446,-3.8401,-3.8354,-3.8354,-3.8307,-3.8259,-3.8259,-3.8225,-3.8192,-3.8192,-3.8192,-3.8192,-3.8192,-3.8192,-3.8192,-3.8192,-3.8192,-3.8301,-3.8808,-3.9713,-4.0637,-4.1144,-4.2085,-4.2882,-4.2882,-4.2882,-4.2882,-4.2882,-4.2882,-4.2882,-4.2882,-4.2882,-4.2882,-4.2882,-4.2882,-4.2882,-4.2882,-4.2882,-4.2882,-4.2882,-4.2882,-4.2882,-4.2882,-4.2882,-4.2882,-4.2882,-4.2882,-4.2882,-4.2882,-4.2882,-4.3124,-4.359,-4.359,-4.3924,-4.4584,-4.4584,-4.4707,-4.4895,-4.4895,-4.4895,-1.4134,-1.4941,-1.6202,-1.8693,0.0,0.0,-2.2882,-2.4643,-2.6101,-2.6404,-2.645,-2.6338,-2.6051,0.0,0.0,0.0,-2.9241,-3.0171,-3.0113,-3.0634,-3.1107,-3.1295,-3.156,-3.1991,-3.2732,-3.2464,-3.2559,-3.3366,-3.3421,-3.3532,-3.3788,-3.3807,-3.3807,-3.3807,-3.3807,-3.3807,-3.378,-3.378,-3.3753,-3.3726,-3.4293,-3.4549,-3.4614,-3.5457,-3.6087,-3.654,-3.6766,-3.7332,-3.8018,-3.8018,-3.8164,-3.8368,-3.8354,-3.8322,-3.8274,-3.8274,-3.8241,-3.8192,-3.8192,-3.8192,-3.8192,-3.8192,-3.8192,-3.8192,-3.8192,-3.8192,-3.8192,-3.8192,-3.8192,-3.8319,-3.8862,-3.9767,-4.0655,-4.1198,-4.214,-4.2882,-4.2882,-4.2882,-4.2882,-4.2882,-4.2882,-4.2882,-4.2882,-4.2882,-4.2882,-4.2882,-4.2882,-4.2882,-4.2882,-4.2882,-4.2882,-4.2882,-4.2882,-4.2882,-4.2882,-4.2882,-4.2882,-4.2882,-4.2882,-4.2882,-4.2882,-4.2882,-4.305,-4.3406,-4.3406,-4.3689,-4.4242,-4.4242,-4.4374,-4.4584,-4.4584,-4.4655,-1.5178,-1.5831,-1.7105,0.0,0.0,0.0,-2.3522,-2.4583,-2.5451,-2.6262,-2.6484,-2.6764,-2.7549,0.0,0.0,-2.8499,-2.9493,-3.0128,-2.9921,-3.0064,-3.0452,-3.1113,-3.0941,-3.1048,-3.1738,-3.1537,-3.1715,-3.254,-3.2596,-3.2944,-3.3733,-3.3788,-3.3788,-3.3788,-3.3788,-3.378,-3.3698,-3.3698,-3.3671,-3.3605,-3.3605,-3.3615,-3.3716,-3.4465,-3.4801,-3.4856,-3.5629,-3.645,-3.7197,-3.7197,-3.7626,-3.8289,-3.8207,-3.8192,-3.8192,-3.8192,-3.8192,-3.8192,-3.8192,-3.8192,-3.8192,-3.8192,-3.8192,-3.8192,-3.8192,-3.8192,-3.8192,-3.8192,-3.8192,-3.8192,-3.8192,-3.9351,-4.051,-4.051,-4.1723,-4.2882,-4.2882,-4.2882,-4.2882,-4.2882,-4.2882,-4.2882,-4.2882,-4.2882,-4.2882,-4.2882,-4.2882,-4.2882,-4.2882,-4.2882,-4.2882,-4.2882,-4.2882,-4.2882,-4.2882,-4.2882,-4.2882,-4.2882,-4.2882,-4.2882,-4.2882,-4.2882,-4.305,-4.3406,-4.3406,-4.3557,-4.3912,-4.3912,-4.3912,-4.3912,-4.3912,-4.4095,-1.4422,-1.5779,0.0,-1.8953,0.0,0.0,0.0,-2.5497,0.0,0.0,-2.8205,-2.8141,-2.7759,0.0,0.0,-2.8779,-2.9584,-3.0171,-3.0128,-3.0157,-3.0223,-3.0281,-3.0093,-3.0187,-3.0838,-3.0683,-3.0889,-3.1696,-3.1751,-3.1861,-3.21,-3.2598,-3.2902,-3.2902,-3.3378,-3.3643,-3.3633,-3.3633,-3.3633,-3.3605,-3.3549,-3.3549,-3.3633,-3.3842,-3.4233,-3.4739,-3.4975,-3.5527,-3.6263,-3.684,-3.7189,-3.7428,-3.8008,-3.8192,-3.8192,-3.8192,-3.8192,-3.8192,-3.8192,-3.8192,-3.8192,-3.8192,-3.8192,-3.8192,-3.8192,-3.8192,-3.8192,-3.8192,-3.8192,-3.8192,-3.8192,-3.8952,-3.9858,-4.0383,-4.1307,-4.2212,-4.2774,-4.2882,-4.2882,-4.2882,-4.2882,-4.2882,-4.2882,-4.2882,-4.2882,-4.2882,-4.2882,-4.2882,-4.2882,-4.2882,-4.2882,-4.2882,-4.2882,-4.2882,-4.2882,-4.2882,-4.2882,-4.2882,-4.2882,-4.2882,-4.2882,-4.2882,-4.2957,-4.305,-4.305,-4.3213,-4.3557,-4.3557,-4.3656,-4.3912,-4.3912,-4.3943,-1.5415,-1.7262,0.0,-2.0182,-2.2153,-2.4064,-2.474,0.0,0.0,0.0,0.0,-2.8912,-2.8733,-2.8809,0.0,-2.9246,-2.9818,-3.0171,-3.0079,-3.0142,-3.0113,-2.9803,-2.9681,-2.9681,-2.9869,-2.9784,-3.0063,-3.0852,-3.0907,-3.1054,-3.1341,-3.1785,-3.2153,-3.2437,-3.2885,-3.3277,-3.3549,-3.3549,-3.3549,-3.352,-3.3481,-3.3481,-3.352,-3.352,-3.3764,-3.4195,-3.4522,-3.4909,-3.5403,-3.6182,-3.6508,-3.6598,-3.7395,-3.7703,-3.7739,-3.8065,-3.8192,-3.8192,-3.8192,-3.8192,-3.8192,-3.8192,-3.8192,-3.8192,-3.8192,-3.8192,-3.8192,-3.8192,-3.8192,-3.8192,-3.8192,-3.8554,-3.9115,-3.9876,-4.0908,-4.185,-4.2321,-4.2665,-4.2882,-4.2882,-4.2882,-4.2882,-4.2882,-4.2882,-4.2882,-4.2882,-4.2882,-4.2882,-4.2882,-4.2882,-4.2882,-4.2882,-4.2882,-4.2882,-4.2882,-4.2882,-4.2882,-4.2882,-4.2882,-4.2882,-4.2882,-4.2882,-4.2882,-4.2882,-4.2882,-4.2976,-4.3213,-4.3213,-4.3301,-4.349,-4.349,-4.3557,-1.7198,0.0,0.0,-2.2392,-2.3329,0.0,-2.5937,-2.6956,-2.7835,-2.872,0.0,-2.9254,-3.0051,-2.9541,-2.9198,-2.9823,-3.0049,-3.0098,-2.9921,-3.0034,-3.0,-2.9626,-2.957,-2.9415,-2.904,-2.8994,-2.9287,-3.0044,-3.0081,-3.0363,-3.1045,-3.113,-3.1469,-3.2146,-3.2238,-3.262,-3.3382,-3.3382,-3.3379,-3.3393,-3.3393,-3.3393,-3.3393,-3.3393,-3.3393,-3.3447,-3.4172,-3.4498,-3.4552,-3.5367,-3.5693,-3.5783,-3.658,-3.6924,-3.7069,-3.7812,-3.8119,-3.8192,-3.8192,-3.8192,-3.8192,-3.8192,-3.8192,-3.8192,-3.8192,-3.8192,-3.8192,-3.8192,-3.8192,-3.8192,-3.8192,-3.8192,-3.8373,-3.9115,-4.0419,-4.1524,-4.1596,-4.223,-4.2774,-4.2774,-4.2846,-4.2882,-4.2882,-4.2882,-4.2882,-4.2882,-4.2882,-4.2882,-4.2882,-4.2882,-4.2882,-4.2882,-4.2882,-4.2882,-4.2882,-4.2882,-4.2882,-4.2882,-4.2882,-4.2882,-4.2882,-4.2882,-4.2882,-4.2882,-4.2882,-4.2882,-4.2882,-4.2882,-4.2882,-4.2882,-4.2882,-4.305,-1.5784,-1.8007,0.0,0.0,-2.3807,-2.5,-2.5382,-2.6078,-2.7109,-2.8586,-2.944,-2.9975,-3.0166,-2.9931,-2.9775,-3.009,-2.9905,-2.9769,-2.9888,-2.9786,-2.9644,-2.9395,-2.9375,-2.927,-2.9021,-2.8994,-2.9067,-2.9167,-2.9185,-2.9234,-2.9345,-2.9897,-3.0264,-3.0428,-3.0993,-3.1692,-3.248,-3.248,-3.2806,-3.3393,-3.3393,-3.3393,-3.3393,-3.3393,-3.3393,-3.3411,-3.3592,-3.3665,-3.3719,-3.4534,-3.486,-3.495,-3.5747,-3.6435,-3.7029,-3.7178,-3.7649,-3.8192,-3.8192,-3.8192,-3.8192,-3.8192,-3.8192,-3.8192,-3.8192,-3.8192,-3.8192,-3.8192,-3.8192,-3.8192,-3.8192,-3.8192,-3.8228,-3.8409,-3.9188,-4.0057,-4.0637,-4.1397,-4.1977,-4.1977,-4.2466,-4.2882,-4.2882,-4.2882,-4.2882,-4.2882,-4.2882,-4.2882,-4.2882,-4.2882,-4.2882,-4.2882,-4.2882,-4.2882,-4.2882,-4.2882,-4.2882,-4.2882,-4.2882,-4.2882,-4.2882,-4.2882,-4.2882,-4.2882,-4.2882,-4.2882,-4.2882,-4.2882,-4.2882,-4.2882,-4.2882,-4.2957,-1.6103,0.0,0.0,-2.3367,0.0,-2.5191,-2.5191,-2.5822,-2.6651,-2.7529,-2.8695,-2.9707,-3.0109,-3.0034,-2.9921,-3.0034,-2.9786,-2.9644,-2.9734,-2.9662,-2.9532,-2.9334,-2.9293,-2.9206,-2.8975,-2.8952,-2.8929,-2.8858,-2.8858,-2.8834,-2.8761,-2.9137,-2.9486,-2.9842,-3.0232,-3.0803,-3.1618,-3.1999,-3.2415,-3.2832,-3.3212,-3.3393,-3.3393,-3.3393,-3.3286,-3.3099,-3.3099,-3.3099,-3.3135,-3.3566,-3.3839,-3.4117,-3.4914,-3.5494,-3.5928,-3.6707,-3.7283,-3.7667,-3.8047,-3.8192,-3.8192,-3.8192,-3.8192,-3.8192,-3.8192,-3.8192,-3.8192,-3.8192,-3.8192,-3.8192,-3.8192,-3.8192,-3.8192,-3.8192,-3.8808,-3.9514,-3.9894,-4.089,-4.1723,-4.1723,-4.2357,-4.2882,-4.2882,-4.2882,-4.2882,-4.2882,-4.2882,-4.2882,-4.2882,-4.2882,-4.2882,-4.2882,-4.2882,-4.2882,-4.2882,-4.2882,-4.2882,-4.2882,-4.2882,-4.2882,-4.2882,-4.2882,-4.2882,-4.2882,-4.2882,-4.2882,-4.2882,-4.2882,-4.2882,-4.2882,-4.2882,-4.2882,-1.6364,0.0,-2.1971,-2.4388,-2.5096,0.0,-2.5191,-2.5707,-2.623,-2.6364,-2.7625,-2.8949,-2.9822,-2.9806,-2.9718,-2.9869,-2.9698,-2.9551,-2.9551,-2.9513,-2.9435,-2.927,-2.923,-2.9141,-2.891,-2.8905,-2.8858,-2.8785,-2.8785,-2.8761,-2.8687,-2.8669,-2.8953,-2.9554,-2.959,-2.997,-3.0785,-3.1437,-3.1826,-3.1924,-3.2708,-3.3207,-3.3393,-3.3334,-3.3099,-3.2795,-3.2795,-3.2795,-3.2795,-3.2731,-3.2957,-3.3358,-3.3965,-3.4339,-3.4659,-3.5991,-3.6693,-3.712,-3.7739,-3.8065,-3.8192,-3.8192,-3.8192,-3.8192,-3.8192,-3.8192,-3.8192,-3.8192,-3.8192,-3.8192,-3.8192,-3.8192,-3.8192,-3.8192,-3.8699,-3.9188,-3.9188,-4.0401,-4.1506,-4.1506,-4.2248,-4.2882,-4.2882,-4.2882,-4.2882,-4.2882,-4.2882,-4.2882,-4.2882,-4.2882,-4.2882,-4.2882,-4.2882,-4.2882,-4.2882,-4.2882,-4.2882,-4.2882,-4.2882,-4.2882,-4.2882,-4.2882,-4.2882,-4.2882,-4.2882,-4.2882,-4.2882,-4.2882,-4.2882,-4.2882,-4.2882,-4.2882,0.0,0.0,-2.1827,0.0,-2.4645,-2.5191,0.0,0.0,-2.5554,0.0,-2.7186,-2.8122,-2.8911,-2.8897,-2.9017,-2.9775,-2.957,-2.9334,-2.9334,-2.9185,-2.9067,-2.9044,-2.8998,-2.8934,-2.8887,-2.8858,-2.8785,-2.8718,-2.8718,-2.8669,-2.8612,-2.8612,-2.8667,-2.8775,-2.8775,-2.9156,-2.9961,-3.0087,-3.0333,-3.0742,-3.153,-3.2451,-3.3393,-3.3019,-3.2844,-3.2795,-3.2795,-3.2795,-3.2763,-3.2468,-3.2586,-3.2844,-3.2677,-3.3219,-3.4124,-3.4339,-3.5504,-3.7029,-3.7138,-3.7612,-3.8192,-3.8192,-3.8192,-3.8192,-3.8192,-3.8192,-3.8192,-3.8192,-3.8192,-3.8192,-3.8192,-3.8192,-3.8192,-3.8192,-3.8264,-3.8355,-3.8355,-3.9568,-4.0673,-4.0673,-4.1868,-4.2882,-4.2882,-4.2882,-4.2882,-4.2882,-4.2882,-4.2882,-4.2882,-4.2882,-4.2882,-4.2882,-4.2882,-4.2882,-4.2882,-4.2882,-4.2882,-4.2882,-4.2882,-4.2882,-4.2882,-4.2882,-4.2882,-4.2882,-4.2882,-4.2882,-4.2882,-4.2882,-4.2882,-4.2882,-4.2882,-4.2882,-1.524,-1.7936,-2.0642,0.0,-2.4186,-2.4587,-2.5096,0.0,-2.5306,-2.565,-2.6032,-2.6689,-2.7988,-2.7964,-2.802,-2.8868,-2.8706,-2.8621,-2.9064,-2.9044,-2.8994,-2.8952,-2.8929,-2.8863,-2.881,-2.8743,-2.8712,-2.8662,-2.8637,-2.8637,-2.8587,-2.8587,-2.8587,-2.8587,-2.8587,-2.8775,-2.9119,-2.9377,-2.9765,-3.0282,-3.0772,-3.1421,-3.2157,-3.2152,-3.2289,-3.2502,-3.2299,-3.2196,-3.2162,-3.2021,-3.2162,-3.2519,-3.2351,-3.2714,-3.3366,-3.3812,-3.499,-3.6381,-3.6834,-3.7522,-3.8192,-3.8192,-3.8192,-3.8192,-3.8192,-3.8192,-3.8192,-3.8192,-3.8192,-3.8192,-3.8192,-3.8192,-3.8192,-3.8192,-3.8192,-3.8192,-3.8192,-3.9405,-4.0782,-4.1669,-4.2411,-4.2882,-4.2882,-4.2882,-4.2882,-4.2882,-4.2882,-4.2882,-4.2882,-4.2882,-4.2882,-4.2882,-4.2882,-4.2882,-4.2882,-4.2882,-4.2882,-4.2882,-4.2882,-4.2882,-4.2882,-4.2882,-4.2882,-4.2882,-4.2882,-4.2882,-4.2882,-4.2882,-4.2882,-4.2882,-4.2882,-4.2882,0.0,0.0,-1.8691,-2.1836,-2.3097,-2.3804,0.0,0.0,-2.5191,0.0,-2.5191,-2.5573,-2.6823,-2.6992,-2.7172,-2.788,-2.7791,-2.788,-2.8576,-2.8705,-2.8755,-2.8868,-2.8881,-2.8834,-2.8718,-2.8669,-2.8644,-2.8612,-2.8587,-2.8587,-2.8587,-2.8587,-2.8587,-2.8587,-2.8587,-2.8562,-2.8448,-2.8681,-2.9094,-2.98,-2.9902,-3.0278,-3.0876,-3.1182,-3.1489,-3.1777,-3.1737,-3.1677,-3.1694,-3.1582,-3.175,-3.2109,-3.2003,-3.2196,-3.2573,-3.329,-3.4288,-3.5393,-3.6367,-3.7181,-3.7853,-3.8068,-3.814,-3.8106,-3.8106,-3.8158,-3.8158,-3.8158,-3.8192,-3.8192,-3.8158,-3.8158,-3.8158,-3.814,-3.814,-3.8282,-3.8681,-3.9586,-4.0818,-4.2556,-4.2882,-4.2882,-4.2882,-4.2882,-4.2882,-4.2882,-4.2882,-4.2882,-4.2882,-4.2882,-4.2882,-4.2882,-4.2882,-4.2882,-4.2882,-4.2882,-4.2882,-4.2882,-4.2882,-4.2882,-4.2882,-4.2882,-4.2882,-4.2882,-4.2882,-4.2882,-4.2882,-4.2882,-4.2882,-4.2882,-4.2882,-4.2882,0.0,-1.4042,0.0,-1.8512,-2.0919,0.0,0.0,0.0,0.0,-2.5191,-2.5191,-2.5229,-2.5306,-2.5944,-2.6591,-2.7086,-2.715,-2.7307,-2.7797,-2.786,-2.8113,-2.8814,-2.8834,-2.8785,-2.8712,-2.8637,-2.8612,-2.8587,-2.8587,-2.8587,-2.8587,-2.8587,-2.8587,-2.8587,-2.8587,-2.8448,-2.8129,-2.7582,-2.7882,-2.8961,-2.8644,-2.9027,-2.9972,-3.037,-3.0503,-3.0465,-3.1313,-3.164,-3.1582,-3.1179,-3.1257,-3.162,-3.1235,-3.1295,-3.1714,-3.2214,-3.3,-3.4017,-3.5389,-3.6251,-3.6926,-3.7749,-3.7985,-3.7899,-3.7899,-3.7952,-3.8021,-3.8021,-3.809,-3.8192,-3.8056,-3.8021,-3.8003,-3.8002,-3.8018,-3.8451,-4.0022,-4.0022,-4.0383,-4.2484,-4.2882,-4.2882,-4.2882,-4.2882,-4.2882,-4.2882,-4.2882,-4.2882,-4.2882,-4.2882,-4.2882,-4.2882,-4.2882,-4.2882,-4.2882,-4.2882,-4.2882,-4.2882,-4.2882,-4.2882,-4.2882,-4.2882,-4.2882,-4.2882,-4.2882,-4.2882,-4.2882,-4.2882,-4.2882,-4.2882,-4.2882,-4.2882,0.0,0.0,0.0,-1.7431,-1.9544,-2.1359,-2.2753,-2.4167,-2.5191,-2.5191,-2.5191,-2.5191,-2.5191,-2.5253,-2.554,-2.6209,-2.6134,-2.6243,-2.6885,-2.7409,-2.7807,-2.7989,-2.8433,-2.8712,-2.8637,-2.8612,-2.8587,-2.8587,-2.8587,-2.8587,-2.8587,-2.8587,-2.8587,-2.8587,-2.8587,-2.8362,-2.784,-2.7413,-2.7319,-2.748,-2.7545,-2.7875,-2.8511,-2.8767,-2.9291,-2.9981,-3.0328,-3.0734,-3.1157,-3.0975,-3.1015,-3.1117,-3.0975,-3.114,-3.1511,-3.195,-3.2792,-3.3878,-3.5154,-3.608,-3.6838,-3.7664,-3.7969,-3.7952,-3.7952,-3.7952,-3.7952,-3.7952,-3.8038,-3.8158,-3.7969,-3.7899,-3.7899,-3.7934,-3.7916,-3.8312,-3.995,-4.0257,-4.0763,-4.2538,-4.2882,-4.2882,-4.2882,-4.2882,-4.2882,-4.2882,-4.2882,-4.2882,-4.2882,-4.2882,-4.2882,-4.2882,-4.2882,-4.2882,-4.2882,-4.2882,-4.2882,-4.2882,-4.2882,-4.2882,-4.2882,-4.2882,-4.2882,-4.2882,-4.2882,-4.2882,-4.2882,-4.2882,-4.2882,-4.2882,-4.2882,-4.2882,-1.1667,0.0,0.0,0.0,0.0,-1.9448,-2.1683,0.0,-2.4408,-2.4713,-2.5,-2.5191,-2.5191,-2.4926,-2.4876,-2.5405,-2.5314,-2.5373,-2.602,-2.6563,-2.694,-2.7082,-2.7803,-2.827,-2.8214,-2.8424,-2.8587,-2.8587,-2.8587,0.0,-2.8587,-2.8587,-2.8562,-2.8422,-2.8344,-2.8045,-2.7552,-2.7213,-2.6891,-2.6674,-2.6842,-2.7046,-2.7242,-2.7602,-2.8205,-2.9003,-2.9449,-3.0106,-3.0831,-3.0831,-3.0831,-3.0831,-3.0831,-3.0958,-3.1223,-3.177,-3.2423,-3.3213,-3.461,-3.56,-3.6323,-3.7182,-3.7648,-3.7864,-3.7864,-3.7828,-3.7793,-3.7793,-3.7899,-3.7969,-3.781,-3.7793,-3.7739,-3.7793,-3.7828,-3.8151,-3.9175,-3.9987,-4.0981,-4.2574,-4.2882,-4.2882,-4.2882,-4.2882,-4.2882,-4.2882,-4.2882,-4.2882,-4.2882,-4.2882,-4.2882,-4.2882,-4.2882,-4.2882,-4.2882,-4.2786,-4.2709,-4.2709,-4.2768,-4.2806,-4.2806,-4.29,-4.2882,-4.2882,-4.2882,-4.2882,-4.2882,-4.2882,-4.2882,-4.2882,-4.2882,-4.2882,0.0,0.0,0.0,0.0,0.0,0.0,-2.0508,0.0,-2.2753,-2.367,-2.453,-2.5134,-2.5191,-2.4926,-2.4707,-2.4707,-2.4692,-2.4808,-2.5199,-2.5285,-2.5536,-2.6172,-2.6968,-2.7434,-2.7381,-2.8062,-2.8515,-2.8515,-2.8515,-2.8515,-2.8515,-2.8515,-2.8394,-2.8066,-2.7823,-2.7517,-2.7213,-2.6858,-2.6674,-2.6606,-2.6606,-2.6486,-2.6312,-2.7045,-2.7358,-2.7383,-2.8771,-2.9838,-3.0658,-3.0692,-3.0692,-3.0692,-3.0692,-3.0692,-3.0797,-3.1677,-3.186,-3.1927,-3.3675,-3.4676,-3.5328,-3.6272,-3.7041,-3.7577,-3.7577,-3.7577,-3.7577,-3.7577,-3.7577,-3.7577,-3.7577,-3.7577,-3.7577,-3.7577,-3.7739,-3.7899,-3.7899,-3.9229,-4.089,-4.2574,-4.2882,-4.2882,-4.2882,-4.2882,-4.2882,-4.2882,-4.2882,-4.2882,-4.2882,-4.2882,-4.2882,-4.2882,-4.2882,-4.2882,-4.2882,-4.2512,-4.2287,-4.2287,-4.2552,-4.2691,-4.2709,-4.2806,-4.2882,-4.2882,-4.2882,-4.2882,-4.2882,-4.29,-4.2882,-4.2882,-4.2882,-4.2882,-1.1185,0.0,0.0,0.0,0.0,0.0,0.0,0.0,0.0,-2.2543,-2.3155,-2.3689,-2.4962,-2.5006,-2.479,-2.4639,-2.4426,-2.4265,-2.4288,-2.4796,-2.5208,-2.5343,-2.6064,-2.6553,-2.653,-2.6729,-2.6874,0.0,-2.6874,-2.6874,-2.6874,-2.6874,-2.7006,-2.7308,-2.7,-2.6946,-2.7213,-2.6858,-2.6674,-2.6606,-2.6554,-2.6468,-2.6312,-2.6474,-2.6819,-2.7367,-2.8257,-2.9108,-2.9805,-3.0352,-3.0568,-3.0568,-3.0568,-3.0568,-3.0634,-3.1145,-3.149,-3.1891,-3.3266,-3.4018,-3.4633,-3.6006,-3.697,-3.7577,-3.7577,-3.7577,-3.7577,-3.7577,-3.7577,-3.7577,-3.7577,-3.7577,-3.7577,-3.7577,-3.7649,-3.7703,-3.7703,-3.8079,-3.9283,-4.232,-4.2882,-4.2882,-4.2882,-4.2882,-4.2882,-4.2882,-4.267,-4.2591,-4.2844,-4.2631,-4.249,-4.249,-4.249,-4.249,-4.249,-4.2369,-4.2287,-4.2287,-4.2472,-4.2591,-4.2649,-4.267,-4.2709,-4.2729,-4.2709,-4.267,-4.267,-4.2824,-4.2882,-4.2882,-4.2882,-4.2882,0.0,0.0,0.0,0.0,0.0,0.0,-1.6613,-1.7895,0.0,0.0,-2.2104,-2.2895,-2.3854,-2.4157,-2.4218,-2.402,-2.4008,-2.4016,-2.3917,-2.4296,-2.4566,-2.4502,-2.5208,-2.5697,-2.5697,-2.6005,-2.6204,-2.6204,-2.6204,-2.6204,-2.6204,-2.6204,-2.6237,-2.6322,-2.6151,-2.6051,-2.6079,-2.6148,-2.6152,-2.6067,-2.6318,-2.6364,-2.6258,-2.6203,-2.6435,-2.6866,-2.7595,-2.8323,-2.9036,-2.9764,-3.0228,-3.0526,-3.0526,-3.0526,-3.0551,-3.0965,-3.1338,-3.1819,-3.2686,-3.3474,-3.4258,-3.515,-3.6417,-3.7577,-3.7577,-3.7577,-3.7577,-3.7577,-3.7577,-3.7577,-3.7577,-3.7577,-3.7577,-3.7577,-3.7577,-3.7577,-3.7577,-3.7577,-3.8579,-4.1962,-4.2786,-4.2882,-4.2882,-4.2768,-4.267,-4.267,-4.2432,-4.2391,-4.2631,-4.245,-4.2287,-4.2287,-4.2287,-4.2287,-4.2287,-4.2287,-4.2287,-4.2287,-4.245,-4.2512,-4.257,-4.257,-4.2552,-4.2631,-4.2631,-4.2649,-4.2609,-4.2747,-4.2862,-4.2882,-4.2882,-4.2882,0.0,0.0,0.0,0.0,0.0,0.0,-1.6884,-1.7813,-1.8659,0.0,-2.0995,-2.2043,-2.2102,-2.2669,-2.306,-2.2868,-2.3419,-2.3886,-2.3899,-2.3896,-2.3876,-2.3816,-2.4429,-2.4864,-2.4864,-2.5516,-2.5932,-2.5932,-2.5932,-2.5932,-2.5932,-2.5932,-2.5733,-2.5279,-2.5252,-2.501,-2.4475,-2.5141,-2.5413,-2.528,-2.598,-2.6277,-2.622,-2.622,-2.622,-2.6253,-2.6965,-2.7682,-2.8362,-2.9085,-2.9847,-3.0526,-3.0526,-3.0526,-3.0551,-3.0885,-3.1278,-3.1677,-3.2056,-3.293,-3.3906,-3.3995,-3.5472,-3.7238,-3.7505,-3.7577,-3.7577,-3.7577,-3.7577,-3.7577,-3.7577,-3.7577,-3.7577,-3.7577,-3.7577,-3.7577,-3.7577,-3.7577,-3.8522,-4.168,-4.2631,-4.29,-4.2844,-4.2552,-4.2287,-4.2287,-4.2287,-4.2287,-4.2287,-4.2287,-4.2287,-4.2287,-4.2287,-4.2287,-4.2287,-4.2287,-4.2287,-4.2287,-4.2391,-4.2472,-4.2472,-4.2472,-4.2472,-4.2472,-4.2591,-4.2631,-4.257,-4.2631,-4.2747,-4.2862,-4.2882,-4.29,-1.5922,0.0,0.0,0.0,0.0,0.0,-1.4979,-1.5536,-1.6784,0.0,-1.8193,-1.8868,-2.007,-2.0897,-2.134,-2.1194,-2.226,-2.3304,-2.3826,-2.3837,-2.3816,-2.3795,-2.394,-2.4031,-2.4031,-2.4176,-2.4266,-2.4266,-2.4266,-2.4266,-2.4266,-2.4266,-2.4334,-2.441,-2.4392,-2.4372,-2.443,-2.5093,-2.5347,-2.523,-2.5929,-2.6277,-2.622,-2.622,-2.622,-2.6253,-2.6965,-2.7383,-2.7616,-2.8887,-2.9847,-3.0526,-3.0526,-3.0526,-3.051,-3.0593,-3.0861,-3.1223,-3.13,-3.1927,-3.2773,-3.3407,-3.4145,-3.5132,-3.7023,-3.7577,-3.7577,-3.7577,-3.7577,-3.7577,-3.7577,-3.7577,-3.7577,-3.7577,-3.7577,-3.7577,-3.7577,-3.7577,-3.8522,-4.168,-4.2631,-4.2824,-4.2472,-4.2369,-4.2287,-4.2287,-4.2287,-4.2287,-4.2287,-4.2287,-4.2287,-4.2287,-4.2287,-4.2287,-4.2287,-4.2287,-4.2287,-4.2287,-4.2328,-4.2328,-4.2328,-4.2328,-4.2328,-4.2328,-4.2369,-4.2369,-4.2369,-4.2512,-4.2631,-4.267,-4.2806,-4.2897,-1.7552,0.0,0.0,-1.77,0.0,0.0,0.0,-1.6319,-1.6929,-1.8237,-1.792,-1.7866,-1.937,-1.9956,-2.0155,-2.0015,-2.1255,-2.2373,-2.2699,-2.3388,-2.3837,-2.3795,-2.3795,-2.3795,-2.3795,-2.3795,-2.3795,-2.3795,-2.3795,-2.3795,-2.3795,-2.3795,-2.3741,-2.3646,-2.3613,-2.3517,-2.3321,-2.3953,-2.4394,-2.4663,-2.5379,-2.5874,-2.622,-2.622,-2.622,-2.6236,-2.6584,-2.6949,-2.7367,-2.8042,-2.8986,-2.9996,-3.0377,-3.0526,-3.0526,-3.0526,-3.074,-3.1123,-3.1123,-3.1507,-3.209,-3.2704,-3.3318,-3.4056,-3.5454,-3.6381,-3.7077,-3.747,-3.7577,-3.7577,-3.7577,-3.7577,-3.7577,-3.7577,-3.7577,-3.7577,-3.7577,-3.7577,-3.8522,-4.168,-4.2472,-4.2552,-4.2328,-4.2287,-4.2287,-4.2287,-4.2287,-4.2287,-4.2287,-4.2287,-4.2287,-4.2287,-4.2287,-4.2287,-4.2287,-4.2287,-4.2287,-4.2287,-4.2287,-4.2287,-4.2287,-4.2287,-4.2287,-4.2287,-4.2287,-4.2287,-4.2287,-4.2409,-4.245,-4.245,-4.2552,-4.2606,0.0,0.0,0.0,0.0,0.0,-1.9011,0.0,0.0,0.0,-1.8932,-1.8146,0.0,0.0,0.0,0.0,0.0,0.0,0.0,0.0,-2.2244,0.0,-2.3363,-2.3487,-2.3596,-2.3596,-2.3451,-2.3469,-2.3777,-2.3524,-2.3487,-2.3777,-2.3795,-2.3584,-2.3116,-2.3067,-2.2764,-2.2168,-2.2768,-2.3427,-2.4098,-2.4779,-2.5508,-2.622,-2.622,-2.622,-2.622,-2.622,-2.6535,-2.7118,-2.7251,-2.8042,-2.9284,-3.0029,-3.0394,-3.0526,-3.0526,-3.0699,-3.0965,-3.0965,-3.124,-3.164,-3.1949,-3.2739,-3.3583,-3.4157,-3.5293,-3.656,-3.7362,-3.7577,-3.7577,-3.7577,-3.7577,-3.7577,-3.7577,-3.7577,-3.7577,-3.7577,-3.7577,-3.8344,-4.0877,-4.1859,-4.2287,-4.2287,-4.2287,-4.2287,-4.2287,-4.2287,-4.2287,-4.2287,-4.2287,-4.2287,-4.2287,-4.2287,-4.2287,-4.2287,-4.2287,-4.2287,-4.2287,-4.2287,-4.2287,-4.2287,-4.2287,-4.2287,-4.2287,-4.2287,-4.2287,-4.2287,-4.2287,-4.2287,-4.2287,-4.2287,-4.2287,0.0,0.0,0.0,0.0,-2.0662,0.0,0.0,0.0,-1.8695,-1.7477,0.0,0.0,0.0,0.0,0.0,0.0,0.0,0.0,-1.8515,-1.9806,-2.1025,-2.1676,-2.2401,-2.2835,-2.2835,-2.2184,-2.2328,-2.3687,-2.2528,-2.2365,-2.3723,-2.3795,-2.3584,-2.3116,-2.2982,-2.2634,-2.2027,-2.2692,-2.335,-2.4,-2.4746,-2.5508,-2.622,-2.622,-2.622,-2.622,-2.622,-2.627,-2.6385,-2.7015,-2.7798,-2.8572,-2.9268,-2.993,-3.0526,-3.0526,-3.051,-3.0551,-3.0551,-3.0821,-3.1201,-3.124,-3.2268,-3.3688,-3.4762,-3.5703,-3.656,-3.7362,-3.7577,-3.7577,-3.7577,-3.7577,-3.7577,-3.7577,-3.7577,-3.7577,-3.7577,-3.7577,-3.7702,-3.8041,-4.0378,-4.2287,-4.2287,-4.2287,-4.2287,-4.2287,-4.2287,-4.2287,-4.2287,-4.2287,-4.2287,-4.2287,-4.2287,-4.2287,-4.2287,-4.2287,-4.2287,-4.2287,-4.2287,-4.2287,-4.2287,-4.2287,-4.2287,-4.2287,-4.2287,-4.2287,-4.2287,-4.2287,-4.2287,-4.2287,-4.2287,-4.2287,0.0,0.0,0.0,0.0,0.0,0.0,-1.8439,0.0,-1.8684,0.0,0.0,0.0,0.0,0.0,0.0,0.0,-1.7424,0.0,0.0,0.0,-1.8703,0.0,0.0,0.0,-2.126,-2.1423,-2.1767,-2.2419,-2.1876,-2.1926,-2.2883,-2.3368,-2.3376,-2.2876,-2.279,-2.2571,-2.2106,-2.2333,-2.2762,-2.3418,-2.4149,-2.4862,-2.559,-2.6021,-2.622,-2.622,-2.622,-2.622,-2.6236,-2.6535,-2.7081,-2.7848,-2.8522,-2.9516,-3.0526,-3.0526,-3.0526,-3.0526,-3.0526,-3.0593,-3.0821,-3.1317,-3.2048,-3.3055,-3.4389,-3.5025,-3.5614,-3.7148,-3.7577,-3.7577,-3.7577,-3.7577,-3.7577,-3.7577,-3.7577,-3.7577,-3.7577,-3.7577,-3.7577,-3.7577,-4.0128,-4.2287,-4.2287,-4.2287,-4.2287,-4.2287,-4.2287,-4.2287,-4.2287,-4.2287,-4.2287,-4.2287,-4.2287,-4.2287,-4.2287,-4.2287,-4.2287,-4.2287,-4.2287,-4.2287,-4.2287,-4.2287,-4.2287,-4.2287,-4.2287,-4.2287,-4.2287,-4.2287,-4.2287,-4.2287,-4.2287,-4.2287,-2.275,0.0,0.0,0.0,0.0,0.0,0.0,0.0,0.0,0.0,0.0,0.0,0.0,0.0,0.0,0.0,0.0,-1.6882,0.0,0.0,0.0,0.0,0.0,0.0,0.0,-2.0517,-2.0771,-2.1347,-2.0843,-2.1,-2.2127,-2.2816,-2.3018,-2.2712,-2.2712,-2.2525,-2.2152,-2.2044,-2.2325,-2.2984,-2.3469,-2.4199,-2.5127,-2.5657,-2.6021,-2.622,-2.622,-2.622,-2.622,-2.622,-2.6634,-2.7383,-2.813,-2.9135,-3.0228,-3.0444,-3.0526,-3.0526,-3.0526,-3.0526,-3.0634,-3.13,-3.175,-3.2319,-3.381,-3.4494,-3.5079,-3.7041,-3.7577,-3.7577,-3.7577,-3.7577,-3.7577,-3.7577,-3.7577,-3.7577,-3.7577,-3.7577,-3.7577,-3.7577,-4.0128,-4.2287,-4.2287,-4.2287,-4.2287,-4.2287,-4.2287,-4.2287,-4.2287,-4.2287,-4.2287,-4.2287,-4.2287,-4.2287,-4.2287,-4.2287,-4.2287,-4.2287,-4.2287,-4.2287,-4.2287,-4.2287,-4.2287,-4.2287,-4.2287,-4.2287,-4.2287,-4.2287,-4.2287,-4.2287,-4.2287,-4.2287,0.0,0.0,0.0,-2.015,0.0,0.0,0.0,0.0,-2.0429,0.0,0.0,0.0,0.0,0.0,0.0,0.0,0.0,0.0,0.0,0.0,0.0,0.0,0.0,0.0,0.0,-1.9218,-1.8875,0.0,-1.92,-1.9165,-2.1784,-2.2171,-2.2447,-2.2694,-2.2712,-2.248,-2.2027,-2.1998,-2.2295,-2.2891,-2.2924,-2.3702,-2.511,-2.5127,-2.5524,-2.622,-2.622,-2.622,-2.622,-2.622,-2.6634,-2.7383,-2.813,-2.882,-2.9533,-3.0261,-3.0526,-3.0526,-3.0526,-3.0526,-3.0551,-3.0965,-3.1223,-3.1623,-3.3221,-3.4412,-3.5525,-3.7131,-3.7577,-3.7577,-3.7577,-3.7577,-3.7577,-3.7577,-3.7577,-3.7577,-3.7577,-3.7577,-3.7577,-3.7577,-4.0128,-4.2287,-4.2287,-4.2287,-4.2287,-4.2287,-4.2287,-4.2287,-4.2287,-4.2287,-4.2287,-4.2287,-4.2287,-4.2287,-4.2287,-4.2287,-4.2287,-4.2287,-4.2287,-4.2287,-4.2287,-4.2287,-4.2287,-4.2287,-4.2287,-4.2287,-4.2287,-4.2287,-4.2287,-4.2287,-4.2287,-4.2287,0.0,0.0,-2.3676,-2.1509,0.0,0.0,0.0,0.0,0.0,0.0,0.0,0.0,0.0,0.0,0.0,0.0,0.0,0.0,0.0,0.0,0.0,0.0,0.0,0.0,0.0,0.0,0.0,0.0,-1.8909,0.0,-2.0766,-2.1937,-2.2513,-2.2432,-2.2432,-2.2349,-2.2192,-2.2073,-2.2086,-2.2295,-2.272,-2.3421,-2.4398,-2.4878,-2.5508,-2.622,-2.622,-2.622,-2.622,-2.622,-2.6352,-2.6684,-2.7909,-2.8522,-2.887,-3.0079,-3.0526,-3.0526,-3.0526,-3.0526,-3.0593,-3.1067,-3.1261,-3.1542,-3.2791,-3.3428,-3.4222,-3.6845,-3.7577,-3.7577,-3.7577,-3.7577,-3.7577,-3.7577,-3.7577,-3.7577,-3.7577,-3.7577,-3.7577,-3.7577,-4.0128,-4.2287,-4.2287,-4.2287,-4.2287,-4.2287,-4.2287,-4.2287,-4.2287,-4.2287,-4.2287,-4.2287,-4.2287,-4.2287,-4.2287,-4.2287,-4.2287,-4.2287,-4.2287,-4.2287,-4.2287,-4.2287,-4.2287,-4.2287,-4.2287,-4.2287,-4.2287,-4.2287,-4.2287,-4.2287,-4.2287,-4.2287,-2.419,-2.419,0.0,-2.2207,-2.2006,0.0,-1.9748,0.0,-2.131,0.0,0.0,0.0,0.0,0.0,0.0,0.0,0.0,0.0,0.0,-1.4495,0.0,0.0,0.0,0.0,0.0,0.0,-1.7135,-1.7807,-1.7964,0.0,0.0,-2.1224,-2.1977,-2.2293,-2.231,-2.2282,-2.2254,-2.2073,-2.1998,-2.1969,-2.2322,-2.3023,-2.4017,-2.4497,-2.5259,-2.622,-2.622,-2.622,-2.622,-2.622,-2.622,-2.6369,-2.781,-2.8412,-2.8555,-2.998,-3.0526,-3.0526,-3.0526,-3.0526,-3.0551,-3.0885,-3.1044,-3.1145,-3.1842,-3.2788,-3.4152,-3.6843,-3.7577,-3.7577,-3.7577,-3.7577,-3.7577,-3.7577,-3.7577,-3.7577,-3.7577,-3.7577,-3.7916,-3.904,-4.0895,-4.2287,-4.2287,-4.2287,-4.2287,-4.2287,-4.2287,-4.2287,-4.2287,-4.2287,-4.2287,-4.2287,-4.2287,-4.2287,-4.2287,-4.2287,-4.2287,-4.2287,-4.2287,-4.2287,-4.2287,-4.2287,-4.2287,-4.2287,-4.2287,-4.2287,-4.2287,-4.2287,-4.2287,-4.2287,-4.2287,-4.2287]}]]